<?xml version="1.0" encoding="UTF-8" standalone="no" ?>
<gpx xmlns="http://www.topografix.com/GPX/1/1" xmlns:xsi="http://www.w3.org/2001/XMLSchema-instance" xsi:schemaLocation="http://www.topografix.com/GPX/1/1 http://www.topografix.com/GPX/1/1/gpx.xsd" version="1.1" creator="VisuGPX - https://www.visugpx.com">
  <metadata>
    <name>revard-mariet</name>
    <desc><![CDATA[itinéraire en 8 entre le revard et la montagne de Bange]]></desc>
  </metadata>
  <trk>
    <name><![CDATA[le revard/le mariet]]></name>
    <trkseg>
      <trkpt lat="45.67971" lon="5.99959">
        <ele>1386.3583984</ele>
        <time>2011-05-01T08:48:35Z</time>
      </trkpt>
      <trkpt lat="45.67954" lon="5.99937">
        <ele>1384.435791</ele>
        <time>2011-05-01T08:48:42Z</time>
      </trkpt>
      <trkpt lat="45.67934" lon="5.99926">
        <ele>1384.435791</ele>
        <time>2011-05-01T08:48:49Z</time>
      </trkpt>
      <trkpt lat="45.67909" lon="5.99917">
        <ele>1387.3195801</ele>
        <time>2011-05-01T08:48:57Z</time>
      </trkpt>
      <trkpt lat="45.67884" lon="5.99908">
        <ele>1391.645752</ele>
        <time>2011-05-01T08:49:05Z</time>
      </trkpt>
      <trkpt lat="45.67858" lon="5.99907">
        <ele>1393.0876465</ele>
        <time>2011-05-01T08:49:13Z</time>
      </trkpt>
      <trkpt lat="45.67842" lon="5.99913">
        <ele>1392.6071777</ele>
        <time>2011-05-01T08:49:18Z</time>
      </trkpt>
      <trkpt lat="45.67836" lon="5.99922">
        <ele>1391.1650391</ele>
        <time>2011-05-01T08:49:20Z</time>
      </trkpt>
      <trkpt lat="45.67832" lon="5.99955">
        <ele>1390.2038574</ele>
        <time>2011-05-01T08:49:25Z</time>
      </trkpt>
      <trkpt lat="45.67825" lon="5.99961">
        <ele>1390.6843262</ele>
        <time>2011-05-01T08:49:27Z</time>
      </trkpt>
      <trkpt lat="45.67812" lon="5.99967">
        <ele>1390.6843262</ele>
        <time>2011-05-01T08:49:33Z</time>
      </trkpt>
      <trkpt lat="45.67807" lon="5.9997">
        <ele>1392.6071777</ele>
        <time>2011-05-01T08:49:37Z</time>
      </trkpt>
      <trkpt lat="45.67798" lon="5.99972">
        <ele>1396.4523926</ele>
        <time>2011-05-01T08:49:44Z</time>
      </trkpt>
      <trkpt lat="45.67788" lon="5.99973">
        <ele>1397.4135742</ele>
        <time>2011-05-01T08:49:50Z</time>
      </trkpt>
      <trkpt lat="45.67786" lon="5.99973">
        <ele>1396.4523926</ele>
        <time>2011-05-01T08:49:51Z</time>
      </trkpt>
      <trkpt lat="45.67771" lon="5.99972">
        <ele>1393.5683594</ele>
        <time>2011-05-01T08:49:56Z</time>
      </trkpt>
      <trkpt lat="45.67756" lon="5.99965">
        <ele>1392.1264648</ele>
        <time>2011-05-01T08:50:01Z</time>
      </trkpt>
      <trkpt lat="45.67741" lon="5.9996">
        <ele>1394.0490723</ele>
        <time>2011-05-01T08:50:05Z</time>
      </trkpt>
      <trkpt lat="45.67734" lon="5.99957">
        <ele>1394.529541</ele>
        <time>2011-05-01T08:50:07Z</time>
      </trkpt>
      <trkpt lat="45.67707" lon="5.9996">
        <ele>1391.645752</ele>
        <time>2011-05-01T08:50:13Z</time>
      </trkpt>
      <trkpt lat="45.67687" lon="5.99964">
        <ele>1393.0876465</ele>
        <time>2011-05-01T08:50:17Z</time>
      </trkpt>
      <trkpt lat="45.67666" lon="5.99969">
        <ele>1390.2038574</ele>
        <time>2011-05-01T08:50:21Z</time>
      </trkpt>
      <trkpt lat="45.67651" lon="5.99968">
        <ele>1387.800293</ele>
        <time>2011-05-01T08:50:24Z</time>
      </trkpt>
      <trkpt lat="45.67632" lon="5.9998">
        <ele>1387.3195801</ele>
        <time>2011-05-01T08:50:29Z</time>
      </trkpt>
      <trkpt lat="45.67631" lon="5.99988">
        <ele>1386.8388672</ele>
        <time>2011-05-01T08:50:31Z</time>
      </trkpt>
      <trkpt lat="45.67629" lon="6.00011">
        <ele>1386.8388672</ele>
        <time>2011-05-01T08:50:37Z</time>
      </trkpt>
      <trkpt lat="45.67616" lon="6.00043">
        <ele>1387.800293</ele>
        <time>2011-05-01T08:50:43Z</time>
      </trkpt>
      <trkpt lat="45.6761" lon="6.00068">
        <ele>1389.2424316</ele>
        <time>2011-05-01T08:50:48Z</time>
      </trkpt>
      <trkpt lat="45.67608" lon="6.0008">
        <ele>1390.6843262</ele>
        <time>2011-05-01T08:50:50Z</time>
      </trkpt>
      <trkpt lat="45.67609" lon="6.00121">
        <ele>1390.2038574</ele>
        <time>2011-05-01T08:50:55Z</time>
      </trkpt>
      <trkpt lat="45.67598" lon="6.00161">
        <ele>1385.3969727</ele>
        <time>2011-05-01T08:51:00Z</time>
      </trkpt>
      <trkpt lat="45.67586" lon="6.00202">
        <ele>1384.435791</ele>
        <time>2011-05-01T08:51:05Z</time>
      </trkpt>
      <trkpt lat="45.67579" lon="6.0025">
        <ele>1383.9550781</ele>
        <time>2011-05-01T08:51:11Z</time>
      </trkpt>
      <trkpt lat="45.67575" lon="6.00294">
        <ele>1382.9936523</ele>
        <time>2011-05-01T08:51:16Z</time>
      </trkpt>
      <trkpt lat="45.67574" lon="6.00316">
        <ele>1382.0324707</ele>
        <time>2011-05-01T08:51:19Z</time>
      </trkpt>
      <trkpt lat="45.67582" lon="6.00344">
        <ele>1380.1098633</ele>
        <time>2011-05-01T08:51:24Z</time>
      </trkpt>
      <trkpt lat="45.67586" lon="6.00347">
        <ele>1378.6679688</ele>
        <time>2011-05-01T08:51:25Z</time>
      </trkpt>
      <trkpt lat="45.67615" lon="6.00369">
        <ele>1376.7453613</ele>
        <time>2011-05-01T08:51:31Z</time>
      </trkpt>
      <trkpt lat="45.67648" lon="6.00385">
        <ele>1376.2646484</ele>
        <time>2011-05-01T08:51:37Z</time>
      </trkpt>
      <trkpt lat="45.67656" lon="6.00414">
        <ele>1376.2646484</ele>
        <time>2011-05-01T08:51:42Z</time>
      </trkpt>
      <trkpt lat="45.67656" lon="6.00419">
        <ele>1376.7453613</ele>
        <time>2011-05-01T08:51:43Z</time>
      </trkpt>
      <trkpt lat="45.67654" lon="6.00432">
        <ele>1378.1872559</ele>
        <time>2011-05-01T08:51:45Z</time>
      </trkpt>
      <trkpt lat="45.67655" lon="6.00451">
        <ele>1381.0712891</ele>
        <time>2011-05-01T08:51:48Z</time>
      </trkpt>
      <trkpt lat="45.67663" lon="6.00473">
        <ele>1376.2646484</ele>
        <time>2011-05-01T08:51:53Z</time>
      </trkpt>
      <trkpt lat="45.67671" lon="6.00498">
        <ele>1376.7453613</ele>
        <time>2011-05-01T08:51:57Z</time>
      </trkpt>
      <trkpt lat="45.67681" lon="6.00527">
        <ele>1380.5905762</ele>
        <time>2011-05-01T08:52:02Z</time>
      </trkpt>
      <trkpt lat="45.67683" lon="6.0053">
        <ele>1380.5905762</ele>
        <time>2011-05-01T08:52:03Z</time>
      </trkpt>
      <trkpt lat="45.67695" lon="6.00537">
        <ele>1377.706543</ele>
        <time>2011-05-01T08:52:06Z</time>
      </trkpt>
      <trkpt lat="45.67701" lon="6.00549">
        <ele>1373.3808594</ele>
        <time>2011-05-01T08:52:09Z</time>
      </trkpt>
      <trkpt lat="45.67696" lon="6.00573">
        <ele>1376.2646484</ele>
        <time>2011-05-01T08:52:13Z</time>
      </trkpt>
      <trkpt lat="45.677" lon="6.00586">
        <ele>1375.3032227</ele>
        <time>2011-05-01T08:52:17Z</time>
      </trkpt>
      <trkpt lat="45.67707" lon="6.0059">
        <ele>1376.2646484</ele>
        <time>2011-05-01T08:52:20Z</time>
      </trkpt>
      <trkpt lat="45.67727" lon="6.00608">
        <ele>1371.9384766</ele>
        <time>2011-05-01T08:52:27Z</time>
      </trkpt>
      <trkpt lat="45.67745" lon="6.00627">
        <ele>1368.5739746</ele>
        <time>2011-05-01T08:52:32Z</time>
      </trkpt>
      <trkpt lat="45.67754" lon="6.00645">
        <ele>1367.1320801</ele>
        <time>2011-05-01T08:52:36Z</time>
      </trkpt>
      <trkpt lat="45.67772" lon="6.00664">
        <ele>1367.1320801</ele>
        <time>2011-05-01T08:52:42Z</time>
      </trkpt>
      <trkpt lat="45.67785" lon="6.00678">
        <ele>1367.1320801</ele>
        <time>2011-05-01T08:52:47Z</time>
      </trkpt>
      <trkpt lat="45.67783" lon="6.00702">
        <ele>1367.1320801</ele>
        <time>2011-05-01T08:52:52Z</time>
      </trkpt>
      <trkpt lat="45.67776" lon="6.00729">
        <ele>1369.5354004</ele>
        <time>2011-05-01T08:52:56Z</time>
      </trkpt>
      <trkpt lat="45.67774" lon="6.00746">
        <ele>1370.9772949</ele>
        <time>2011-05-01T08:52:59Z</time>
      </trkpt>
      <trkpt lat="45.67764" lon="6.00777">
        <ele>1378.1872559</ele>
        <time>2011-05-01T08:53:04Z</time>
      </trkpt>
      <trkpt lat="45.67753" lon="6.00797">
        <ele>1376.7453613</ele>
        <time>2011-05-01T08:53:09Z</time>
      </trkpt>
      <trkpt lat="45.6775" lon="6.00801">
        <ele>1376.2646484</ele>
        <time>2011-05-01T08:53:10Z</time>
      </trkpt>
      <trkpt lat="45.67745" lon="6.0081">
        <ele>1375.3032227</ele>
        <time>2011-05-01T08:53:12Z</time>
      </trkpt>
      <trkpt lat="45.6775" lon="6.00829">
        <ele>1377.2260742</ele>
        <time>2011-05-01T08:53:16Z</time>
      </trkpt>
      <trkpt lat="45.67759" lon="6.00855">
        <ele>1377.706543</ele>
        <time>2011-05-01T08:53:22Z</time>
      </trkpt>
      <trkpt lat="45.67756" lon="6.00872">
        <ele>1379.6291504</ele>
        <time>2011-05-01T08:53:27Z</time>
      </trkpt>
      <trkpt lat="45.67739" lon="6.00884">
        <ele>1382.5131836</ele>
        <time>2011-05-01T08:53:33Z</time>
      </trkpt>
      <trkpt lat="45.67719" lon="6.00895">
        <ele>1381.0712891</ele>
        <time>2011-05-01T08:53:39Z</time>
      </trkpt>
      <trkpt lat="45.67699" lon="6.00908">
        <ele>1382.9936523</ele>
        <time>2011-05-01T08:53:44Z</time>
      </trkpt>
      <trkpt lat="45.67662" lon="6.00924">
        <ele>1379.1484375</ele>
        <time>2011-05-01T08:53:50Z</time>
      </trkpt>
      <trkpt lat="45.67641" lon="6.00946">
        <ele>1373.3808594</ele>
        <time>2011-05-01T08:53:54Z</time>
      </trkpt>
      <trkpt lat="45.67631" lon="6.00979">
        <ele>1370.496582</ele>
        <time>2011-05-01T08:53:58Z</time>
      </trkpt>
      <trkpt lat="45.67623" lon="6.01">
        <ele>1371.4577637</ele>
        <time>2011-05-01T08:54:01Z</time>
      </trkpt>
      <trkpt lat="45.67608" lon="6.0102">
        <ele>1373.3808594</ele>
        <time>2011-05-01T08:54:05Z</time>
      </trkpt>
      <trkpt lat="45.67602" lon="6.01026">
        <ele>1373.3808594</ele>
        <time>2011-05-01T08:54:07Z</time>
      </trkpt>
      <trkpt lat="45.67594" lon="6.01031">
        <ele>1373.3808594</ele>
        <time>2011-05-01T08:54:09Z</time>
      </trkpt>
      <trkpt lat="45.67574" lon="6.01046">
        <ele>1382.0324707</ele>
        <time>2011-05-01T08:54:16Z</time>
      </trkpt>
      <trkpt lat="45.6756" lon="6.01065">
        <ele>1386.3583984</ele>
        <time>2011-05-01T08:54:24Z</time>
      </trkpt>
      <trkpt lat="45.67553" lon="6.0108">
        <ele>1385.3969727</ele>
        <time>2011-05-01T08:54:29Z</time>
      </trkpt>
      <trkpt lat="45.67548" lon="6.01101">
        <ele>1390.2038574</ele>
        <time>2011-05-01T08:54:35Z</time>
      </trkpt>
      <trkpt lat="45.67546" lon="6.01105">
        <ele>1390.6843262</ele>
        <time>2011-05-01T08:54:36Z</time>
      </trkpt>
      <trkpt lat="45.6754" lon="6.01123">
        <ele>1390.6843262</ele>
        <time>2011-05-01T08:54:42Z</time>
      </trkpt>
      <trkpt lat="45.67535" lon="6.0114">
        <ele>1387.800293</ele>
        <time>2011-05-01T08:54:47Z</time>
      </trkpt>
      <trkpt lat="45.67532" lon="6.01169">
        <ele>1389.2424316</ele>
        <time>2011-05-01T08:54:51Z</time>
      </trkpt>
      <trkpt lat="45.67531" lon="6.01178">
        <ele>1389.2424316</ele>
        <time>2011-05-01T08:54:52Z</time>
      </trkpt>
      <trkpt lat="45.67516" lon="6.01216">
        <ele>1389.7231445</ele>
        <time>2011-05-01T08:54:57Z</time>
      </trkpt>
      <trkpt lat="45.67505" lon="6.01237">
        <ele>1385.3969727</ele>
        <time>2011-05-01T08:55:01Z</time>
      </trkpt>
      <trkpt lat="45.67499" lon="6.01263">
        <ele>1382.9936523</ele>
        <time>2011-05-01T08:55:06Z</time>
      </trkpt>
      <trkpt lat="45.67507" lon="6.0128">
        <ele>1382.0324707</ele>
        <time>2011-05-01T08:55:10Z</time>
      </trkpt>
      <trkpt lat="45.67523" lon="6.01296">
        <ele>1384.435791</ele>
        <time>2011-05-01T08:55:16Z</time>
      </trkpt>
      <trkpt lat="45.67538" lon="6.01314">
        <ele>1389.7231445</ele>
        <time>2011-05-01T08:55:24Z</time>
      </trkpt>
      <trkpt lat="45.6755" lon="6.01326">
        <ele>1395.9716797</ele>
        <time>2011-05-01T08:55:32Z</time>
      </trkpt>
      <trkpt lat="45.67564" lon="6.01337">
        <ele>1398.3747559</ele>
        <time>2011-05-01T08:55:40Z</time>
      </trkpt>
      <trkpt lat="45.67571" lon="6.01345">
        <ele>1398.3747559</ele>
        <time>2011-05-01T08:55:47Z</time>
      </trkpt>
      <trkpt lat="45.67576" lon="6.01355">
        <ele>1398.8554688</ele>
        <time>2011-05-01T08:55:54Z</time>
      </trkpt>
      <trkpt lat="45.67586" lon="6.01372">
        <ele>1399.8168945</ele>
        <time>2011-05-01T08:56:03Z</time>
      </trkpt>
      <trkpt lat="45.676" lon="6.01387">
        <ele>1401.2587891</ele>
        <time>2011-05-01T08:56:12Z</time>
      </trkpt>
      <trkpt lat="45.67611" lon="6.01399">
        <ele>1405.104248</ele>
        <time>2011-05-01T08:56:19Z</time>
      </trkpt>
      <trkpt lat="45.67615" lon="6.01408">
        <ele>1405.5849609</ele>
        <time>2011-05-01T08:56:27Z</time>
      </trkpt>
      <trkpt lat="45.67623" lon="6.01416">
        <ele>1405.5849609</ele>
        <time>2011-05-01T08:56:35Z</time>
      </trkpt>
      <trkpt lat="45.67634" lon="6.01427">
        <ele>1407.5075684</ele>
        <time>2011-05-01T08:56:40Z</time>
      </trkpt>
      <trkpt lat="45.67654" lon="6.01453">
        <ele>1404.1430664</ele>
        <time>2011-05-01T08:56:47Z</time>
      </trkpt>
      <trkpt lat="45.67669" lon="6.01483">
        <ele>1399.8168945</ele>
        <time>2011-05-01T08:56:52Z</time>
      </trkpt>
      <trkpt lat="45.67679" lon="6.01509">
        <ele>1397.8942871</ele>
        <time>2011-05-01T08:56:55Z</time>
      </trkpt>
      <trkpt lat="45.67683" lon="6.0155">
        <ele>1394.0490723</ele>
        <time>2011-05-01T08:56:59Z</time>
      </trkpt>
      <trkpt lat="45.67678" lon="6.0157">
        <ele>1392.6071777</ele>
        <time>2011-05-01T08:57:01Z</time>
      </trkpt>
      <trkpt lat="45.67686" lon="6.01607">
        <ele>1387.800293</ele>
        <time>2011-05-01T08:57:05Z</time>
      </trkpt>
      <trkpt lat="45.67693" lon="6.01615">
        <ele>1386.3583984</ele>
        <time>2011-05-01T08:57:06Z</time>
      </trkpt>
      <trkpt lat="45.67738" lon="6.01674">
        <ele>1380.1098633</ele>
        <time>2011-05-01T08:57:12Z</time>
      </trkpt>
      <trkpt lat="45.67754" lon="6.01692">
        <ele>1378.1872559</ele>
        <time>2011-05-01T08:57:14Z</time>
      </trkpt>
      <trkpt lat="45.67777" lon="6.0171">
        <ele>1377.2260742</ele>
        <time>2011-05-01T08:57:17Z</time>
      </trkpt>
      <trkpt lat="45.67829" lon="6.01725">
        <ele>1376.2646484</ele>
        <time>2011-05-01T08:57:24Z</time>
      </trkpt>
      <trkpt lat="45.67877" lon="6.01743">
        <ele>1377.2260742</ele>
        <time>2011-05-01T08:57:31Z</time>
      </trkpt>
      <trkpt lat="45.67909" lon="6.01748">
        <ele>1375.7839355</ele>
        <time>2011-05-01T08:57:36Z</time>
      </trkpt>
      <trkpt lat="45.67914" lon="6.01744">
        <ele>1374.8227539</ele>
        <time>2011-05-01T08:57:37Z</time>
      </trkpt>
      <trkpt lat="45.67931" lon="6.0172">
        <ele>1372.4194336</ele>
        <time>2011-05-01T08:57:40Z</time>
      </trkpt>
      <trkpt lat="45.67954" lon="6.01716">
        <ele>1370.496582</ele>
        <time>2011-05-01T08:57:44Z</time>
      </trkpt>
      <trkpt lat="45.67967" lon="6.01736">
        <ele>1371.4577637</ele>
        <time>2011-05-01T08:57:47Z</time>
      </trkpt>
      <trkpt lat="45.67969" lon="6.01754">
        <ele>1369.0546875</ele>
        <time>2011-05-01T08:57:49Z</time>
      </trkpt>
      <trkpt lat="45.6798" lon="6.01793">
        <ele>1370.496582</ele>
        <time>2011-05-01T08:57:53Z</time>
      </trkpt>
      <trkpt lat="45.67998" lon="6.01832">
        <ele>1373.8613281</ele>
        <time>2011-05-01T08:57:57Z</time>
      </trkpt>
      <trkpt lat="45.68015" lon="6.01859">
        <ele>1374.8227539</ele>
        <time>2011-05-01T08:58:00Z</time>
      </trkpt>
      <trkpt lat="45.68024" lon="6.01882">
        <ele>1374.342041</ele>
        <time>2011-05-01T08:58:03Z</time>
      </trkpt>
      <trkpt lat="45.68027" lon="6.01904">
        <ele>1369.5354004</ele>
        <time>2011-05-01T08:58:07Z</time>
      </trkpt>
      <trkpt lat="45.6803" lon="6.01944">
        <ele>1363.767334</ele>
        <time>2011-05-01T08:58:14Z</time>
      </trkpt>
      <trkpt lat="45.68031" lon="6.01957">
        <ele>1362.3254395</ele>
        <time>2011-05-01T08:58:16Z</time>
      </trkpt>
      <trkpt lat="45.68033" lon="6.02006">
        <ele>1363.767334</ele>
        <time>2011-05-01T08:58:24Z</time>
      </trkpt>
      <trkpt lat="45.68032" lon="6.02018">
        <ele>1365.6901855</ele>
        <time>2011-05-01T08:58:26Z</time>
      </trkpt>
      <trkpt lat="45.68036" lon="6.02051">
        <ele>1374.8227539</ele>
        <time>2011-05-01T08:58:33Z</time>
      </trkpt>
      <trkpt lat="45.68044" lon="6.0208">
        <ele>1377.2260742</ele>
        <time>2011-05-01T08:58:40Z</time>
      </trkpt>
      <trkpt lat="45.68054" lon="6.02112">
        <ele>1374.342041</ele>
        <time>2011-05-01T08:58:48Z</time>
      </trkpt>
      <trkpt lat="45.68072" lon="6.02128">
        <ele>1376.7453613</ele>
        <time>2011-05-01T08:58:54Z</time>
      </trkpt>
      <trkpt lat="45.68098" lon="6.02142">
        <ele>1378.6679688</ele>
        <time>2011-05-01T08:59:02Z</time>
      </trkpt>
      <trkpt lat="45.68114" lon="6.02153">
        <ele>1377.2260742</ele>
        <time>2011-05-01T08:59:08Z</time>
      </trkpt>
      <trkpt lat="45.6813" lon="6.02168">
        <ele>1377.706543</ele>
        <time>2011-05-01T08:59:14Z</time>
      </trkpt>
      <trkpt lat="45.68143" lon="6.02189">
        <ele>1378.1872559</ele>
        <time>2011-05-01T08:59:21Z</time>
      </trkpt>
      <trkpt lat="45.68161" lon="6.02221">
        <ele>1375.7839355</ele>
        <time>2011-05-01T08:59:30Z</time>
      </trkpt>
      <trkpt lat="45.68182" lon="6.02248">
        <ele>1376.2646484</ele>
        <time>2011-05-01T08:59:38Z</time>
      </trkpt>
      <trkpt lat="45.682" lon="6.02271">
        <ele>1374.342041</ele>
        <time>2011-05-01T08:59:46Z</time>
      </trkpt>
      <trkpt lat="45.68207" lon="6.02281">
        <ele>1373.8613281</ele>
        <time>2011-05-01T08:59:50Z</time>
      </trkpt>
      <trkpt lat="45.6822" lon="6.02297">
        <ele>1378.6679688</ele>
        <time>2011-05-01T08:59:55Z</time>
      </trkpt>
      <trkpt lat="45.6823" lon="6.02307">
        <ele>1382.0324707</ele>
        <time>2011-05-01T08:59:59Z</time>
      </trkpt>
      <trkpt lat="45.68242" lon="6.02324">
        <ele>1389.2424316</ele>
        <time>2011-05-01T09:00:04Z</time>
      </trkpt>
      <trkpt lat="45.68244" lon="6.02325">
        <ele>1391.1650391</ele>
        <time>2011-05-01T09:00:05Z</time>
      </trkpt>
      <trkpt lat="45.68253" lon="6.02345">
        <ele>1394.0490723</ele>
        <time>2011-05-01T09:00:11Z</time>
      </trkpt>
      <trkpt lat="45.68269" lon="6.02373">
        <ele>1389.7231445</ele>
        <time>2011-05-01T09:00:18Z</time>
      </trkpt>
      <trkpt lat="45.6828" lon="6.0239">
        <ele>1384.9165039</ele>
        <time>2011-05-01T09:00:23Z</time>
      </trkpt>
      <trkpt lat="45.68291" lon="6.02404">
        <ele>1378.6679688</ele>
        <time>2011-05-01T09:00:28Z</time>
      </trkpt>
      <trkpt lat="45.68316" lon="6.02413">
        <ele>1380.1098633</ele>
        <time>2011-05-01T09:00:35Z</time>
      </trkpt>
      <trkpt lat="45.68343" lon="6.0243">
        <ele>1376.7453613</ele>
        <time>2011-05-01T09:00:42Z</time>
      </trkpt>
      <trkpt lat="45.68363" lon="6.02446">
        <ele>1375.3032227</ele>
        <time>2011-05-01T09:00:47Z</time>
      </trkpt>
      <trkpt lat="45.68386" lon="6.02469">
        <ele>1374.342041</ele>
        <time>2011-05-01T09:00:53Z</time>
      </trkpt>
      <trkpt lat="45.68408" lon="6.02483">
        <ele>1373.8613281</ele>
        <time>2011-05-01T09:00:58Z</time>
      </trkpt>
      <trkpt lat="45.68444" lon="6.02495">
        <ele>1373.3808594</ele>
        <time>2011-05-01T09:01:06Z</time>
      </trkpt>
      <trkpt lat="45.68469" lon="6.02504">
        <ele>1377.706543</ele>
        <time>2011-05-01T09:01:11Z</time>
      </trkpt>
      <trkpt lat="45.6848" lon="6.02513">
        <ele>1374.8227539</ele>
        <time>2011-05-01T09:01:14Z</time>
      </trkpt>
      <trkpt lat="45.68489" lon="6.02528">
        <ele>1371.9384766</ele>
        <time>2011-05-01T09:01:17Z</time>
      </trkpt>
      <trkpt lat="45.68496" lon="6.0256">
        <ele>1365.6901855</ele>
        <time>2011-05-01T09:01:22Z</time>
      </trkpt>
      <trkpt lat="45.68496" lon="6.02573">
        <ele>1363.767334</ele>
        <time>2011-05-01T09:01:24Z</time>
      </trkpt>
      <trkpt lat="45.68497" lon="6.02587">
        <ele>1362.8061523</ele>
        <time>2011-05-01T09:01:26Z</time>
      </trkpt>
      <trkpt lat="45.68498" lon="6.02614">
        <ele>1361.8449707</ele>
        <time>2011-05-01T09:01:30Z</time>
      </trkpt>
      <trkpt lat="45.68499" lon="6.02648">
        <ele>1361.8449707</ele>
        <time>2011-05-01T09:01:35Z</time>
      </trkpt>
      <trkpt lat="45.685" lon="6.02704">
        <ele>1358.9609375</ele>
        <time>2011-05-01T09:01:43Z</time>
      </trkpt>
      <trkpt lat="45.68501" lon="6.02718">
        <ele>1357.9997559</ele>
        <time>2011-05-01T09:01:45Z</time>
      </trkpt>
      <trkpt lat="45.685" lon="6.02737">
        <ele>1356.5576172</ele>
        <time>2011-05-01T09:01:48Z</time>
      </trkpt>
      <trkpt lat="45.68492" lon="6.02781">
        <ele>1356.5576172</ele>
        <time>2011-05-01T09:01:54Z</time>
      </trkpt>
      <trkpt lat="45.68489" lon="6.02797">
        <ele>1357.519043</ele>
        <time>2011-05-01T09:01:56Z</time>
      </trkpt>
      <trkpt lat="45.68482" lon="6.02836">
        <ele>1355.1154785</ele>
        <time>2011-05-01T09:02:02Z</time>
      </trkpt>
      <trkpt lat="45.68479" lon="6.02852">
        <ele>1353.673584</ele>
        <time>2011-05-01T09:02:07Z</time>
      </trkpt>
      <trkpt lat="45.68474" lon="6.02854">
        <ele>1352.7121582</ele>
        <time>2011-05-01T09:02:10Z</time>
      </trkpt>
      <trkpt lat="45.68455" lon="6.02873">
        <ele>1354.6347656</ele>
        <time>2011-05-01T09:02:16Z</time>
      </trkpt>
      <trkpt lat="45.68442" lon="6.02897">
        <ele>1356.5576172</ele>
        <time>2011-05-01T09:02:21Z</time>
      </trkpt>
      <trkpt lat="45.6844" lon="6.02925">
        <ele>1357.519043</ele>
        <time>2011-05-01T09:02:25Z</time>
      </trkpt>
      <trkpt lat="45.6844" lon="6.02939">
        <ele>1357.519043</ele>
        <time>2011-05-01T09:02:27Z</time>
      </trkpt>
      <trkpt lat="45.68451" lon="6.0297">
        <ele>1353.673584</ele>
        <time>2011-05-01T09:02:32Z</time>
      </trkpt>
      <trkpt lat="45.68465" lon="6.02978">
        <ele>1352.2314453</ele>
        <time>2011-05-01T09:02:35Z</time>
      </trkpt>
      <trkpt lat="45.68471" lon="6.02981">
        <ele>1351.7509766</ele>
        <time>2011-05-01T09:02:37Z</time>
      </trkpt>
      <trkpt lat="45.68486" lon="6.02982">
        <ele>1357.519043</ele>
        <time>2011-05-01T09:02:42Z</time>
      </trkpt>
      <trkpt lat="45.68494" lon="6.03005">
        <ele>1354.1542969</ele>
        <time>2011-05-01T09:02:48Z</time>
      </trkpt>
      <trkpt lat="45.68495" lon="6.03041">
        <ele>1352.7121582</ele>
        <time>2011-05-01T09:02:54Z</time>
      </trkpt>
      <trkpt lat="45.68498" lon="6.03065">
        <ele>1350.7895508</ele>
        <time>2011-05-01T09:03:00Z</time>
      </trkpt>
      <trkpt lat="45.68497" lon="6.03096">
        <ele>1351.7509766</ele>
        <time>2011-05-01T09:03:06Z</time>
      </trkpt>
      <trkpt lat="45.68494" lon="6.0313">
        <ele>1351.2702637</ele>
        <time>2011-05-01T09:03:13Z</time>
      </trkpt>
      <trkpt lat="45.68492" lon="6.03164">
        <ele>1347.4250488</ele>
        <time>2011-05-01T09:03:20Z</time>
      </trkpt>
      <trkpt lat="45.68494" lon="6.03195">
        <ele>1343.0991211</ele>
        <time>2011-05-01T09:03:26Z</time>
      </trkpt>
      <trkpt lat="45.68492" lon="6.03221">
        <ele>1340.215332</ele>
        <time>2011-05-01T09:03:32Z</time>
      </trkpt>
      <trkpt lat="45.68488" lon="6.03244">
        <ele>1337.8117676</ele>
        <time>2011-05-01T09:03:37Z</time>
      </trkpt>
      <trkpt lat="45.68496" lon="6.03257">
        <ele>1336.369873</ele>
        <time>2011-05-01T09:03:41Z</time>
      </trkpt>
      <trkpt lat="45.68522" lon="6.03256">
        <ele>1334.4472656</ele>
        <time>2011-05-01T09:03:47Z</time>
      </trkpt>
      <trkpt lat="45.68527" lon="6.03255">
        <ele>1334.9279785</ele>
        <time>2011-05-01T09:03:48Z</time>
      </trkpt>
      <trkpt lat="45.68538" lon="6.03256">
        <ele>1334.4472656</ele>
        <time>2011-05-01T09:03:51Z</time>
      </trkpt>
      <trkpt lat="45.68554" lon="6.03254">
        <ele>1333.9665527</ele>
        <time>2011-05-01T09:03:55Z</time>
      </trkpt>
      <trkpt lat="45.68575" lon="6.03254">
        <ele>1335.8891602</ele>
        <time>2011-05-01T09:04:01Z</time>
      </trkpt>
      <trkpt lat="45.68593" lon="6.03252">
        <ele>1339.2536621</ele>
        <time>2011-05-01T09:04:06Z</time>
      </trkpt>
      <trkpt lat="45.68614" lon="6.03251">
        <ele>1342.1379395</ele>
        <time>2011-05-01T09:04:12Z</time>
      </trkpt>
      <trkpt lat="45.68623" lon="6.03249">
        <ele>1343.0991211</ele>
        <time>2011-05-01T09:04:18Z</time>
      </trkpt>
      <trkpt lat="45.68631" lon="6.03251">
        <ele>1343.579834</ele>
        <time>2011-05-01T09:04:23Z</time>
      </trkpt>
      <trkpt lat="45.68644" lon="6.03253">
        <ele>1346.4638672</ele>
        <time>2011-05-01T09:04:28Z</time>
      </trkpt>
      <trkpt lat="45.68661" lon="6.03269">
        <ele>1346.9443359</ele>
        <time>2011-05-01T09:04:34Z</time>
      </trkpt>
      <trkpt lat="45.68683" lon="6.03283">
        <ele>1351.7509766</ele>
        <time>2011-05-01T09:04:40Z</time>
      </trkpt>
      <trkpt lat="45.68706" lon="6.03294">
        <ele>1353.673584</ele>
        <time>2011-05-01T09:04:46Z</time>
      </trkpt>
      <trkpt lat="45.68726" lon="6.03315">
        <ele>1349.3476562</ele>
        <time>2011-05-01T09:04:52Z</time>
      </trkpt>
      <trkpt lat="45.68742" lon="6.03335">
        <ele>1345.0217285</ele>
        <time>2011-05-01T09:04:57Z</time>
      </trkpt>
      <trkpt lat="45.68764" lon="6.03364">
        <ele>1339.734375</ele>
        <time>2011-05-01T09:05:03Z</time>
      </trkpt>
      <trkpt lat="45.68767" lon="6.03369">
        <ele>1339.2536621</ele>
        <time>2011-05-01T09:05:04Z</time>
      </trkpt>
      <trkpt lat="45.68795" lon="6.03405">
        <ele>1334.9279785</ele>
        <time>2011-05-01T09:05:12Z</time>
      </trkpt>
      <trkpt lat="45.68804" lon="6.03416">
        <ele>1333.005127</ele>
        <time>2011-05-01T09:05:15Z</time>
      </trkpt>
      <trkpt lat="45.68823" lon="6.03443">
        <ele>1331.5632324</ele>
        <time>2011-05-01T09:05:22Z</time>
      </trkpt>
      <trkpt lat="45.68835" lon="6.03465">
        <ele>1333.4858398</ele>
        <time>2011-05-01T09:05:28Z</time>
      </trkpt>
      <trkpt lat="45.6884" lon="6.03491">
        <ele>1330.1213379</ele>
        <time>2011-05-01T09:05:33Z</time>
      </trkpt>
      <trkpt lat="45.68839" lon="6.03515">
        <ele>1329.1599121</ele>
        <time>2011-05-01T09:05:38Z</time>
      </trkpt>
      <trkpt lat="45.68838" lon="6.03535">
        <ele>1328.6794434</ele>
        <time>2011-05-01T09:05:43Z</time>
      </trkpt>
      <trkpt lat="45.68834" lon="6.0356">
        <ele>1332.0439453</ele>
        <time>2011-05-01T09:05:49Z</time>
      </trkpt>
      <trkpt lat="45.68833" lon="6.03588">
        <ele>1335.4084473</ele>
        <time>2011-05-01T09:05:55Z</time>
      </trkpt>
      <trkpt lat="45.68835" lon="6.03622">
        <ele>1335.4084473</ele>
        <time>2011-05-01T09:06:02Z</time>
      </trkpt>
      <trkpt lat="45.68848" lon="6.03644">
        <ele>1330.1213379</ele>
        <time>2011-05-01T09:06:08Z</time>
      </trkpt>
      <trkpt lat="45.68869" lon="6.03674">
        <ele>1327.7180176</ele>
        <time>2011-05-01T09:06:14Z</time>
      </trkpt>
      <trkpt lat="45.68899" lon="6.03687">
        <ele>1330.1213379</ele>
        <time>2011-05-01T09:06:20Z</time>
      </trkpt>
      <trkpt lat="45.68915" lon="6.03681">
        <ele>1329.1599121</ele>
        <time>2011-05-01T09:06:24Z</time>
      </trkpt>
      <trkpt lat="45.68918" lon="6.0368">
        <ele>1329.640625</ele>
        <time>2011-05-01T09:06:25Z</time>
      </trkpt>
      <trkpt lat="45.68926" lon="6.03677">
        <ele>1329.1599121</ele>
        <time>2011-05-01T09:06:27Z</time>
      </trkpt>
      <trkpt lat="45.68945" lon="6.03663">
        <ele>1323.8725586</ele>
        <time>2011-05-01T09:06:34Z</time>
      </trkpt>
      <trkpt lat="45.68961" lon="6.0365">
        <ele>1329.640625</ele>
        <time>2011-05-01T09:06:39Z</time>
      </trkpt>
      <trkpt lat="45.68974" lon="6.03643">
        <ele>1330.6020508</ele>
        <time>2011-05-01T09:06:46Z</time>
      </trkpt>
      <trkpt lat="45.68983" lon="6.03645">
        <ele>1329.1599121</ele>
        <time>2011-05-01T09:06:51Z</time>
      </trkpt>
      <trkpt lat="45.68993" lon="6.03651">
        <ele>1328.6794434</ele>
        <time>2011-05-01T09:06:55Z</time>
      </trkpt>
      <trkpt lat="45.69008" lon="6.03674">
        <ele>1329.1599121</ele>
        <time>2011-05-01T09:07:00Z</time>
      </trkpt>
      <trkpt lat="45.69021" lon="6.03703">
        <ele>1327.7180176</ele>
        <time>2011-05-01T09:07:05Z</time>
      </trkpt>
      <trkpt lat="45.69025" lon="6.03714">
        <ele>1325.7954102</ele>
        <time>2011-05-01T09:07:07Z</time>
      </trkpt>
      <trkpt lat="45.69032" lon="6.03739">
        <ele>1324.3535156</ele>
        <time>2011-05-01T09:07:11Z</time>
      </trkpt>
      <trkpt lat="45.69037" lon="6.03765">
        <ele>1325.7954102</ele>
        <time>2011-05-01T09:07:15Z</time>
      </trkpt>
      <trkpt lat="45.69037" lon="6.0379">
        <ele>1329.640625</ele>
        <time>2011-05-01T09:07:18Z</time>
      </trkpt>
      <trkpt lat="45.69045" lon="6.03826">
        <ele>1331.0827637</ele>
        <time>2011-05-01T09:07:23Z</time>
      </trkpt>
      <trkpt lat="45.69051" lon="6.03839">
        <ele>1331.0827637</ele>
        <time>2011-05-01T09:07:25Z</time>
      </trkpt>
      <trkpt lat="45.69071" lon="6.0386">
        <ele>1324.8342285</ele>
        <time>2011-05-01T09:07:30Z</time>
      </trkpt>
      <trkpt lat="45.69076" lon="6.03862">
        <ele>1324.3535156</ele>
        <time>2011-05-01T09:07:31Z</time>
      </trkpt>
      <trkpt lat="45.691" lon="6.03863">
        <ele>1322.4306641</ele>
        <time>2011-05-01T09:07:36Z</time>
      </trkpt>
      <trkpt lat="45.69109" lon="6.03865">
        <ele>1323.8725586</ele>
        <time>2011-05-01T09:07:38Z</time>
      </trkpt>
      <trkpt lat="45.69124" lon="6.0387">
        <ele>1322.911377</ele>
        <time>2011-05-01T09:07:41Z</time>
      </trkpt>
      <trkpt lat="45.6915" lon="6.03889">
        <ele>1324.8342285</ele>
        <time>2011-05-01T09:07:47Z</time>
      </trkpt>
      <trkpt lat="45.69172" lon="6.03909">
        <ele>1324.3535156</ele>
        <time>2011-05-01T09:07:53Z</time>
      </trkpt>
      <trkpt lat="45.6918" lon="6.03915">
        <ele>1324.8342285</ele>
        <time>2011-05-01T09:07:55Z</time>
      </trkpt>
      <trkpt lat="45.69213" lon="6.03931">
        <ele>1326.7568359</ele>
        <time>2011-05-01T09:08:03Z</time>
      </trkpt>
      <trkpt lat="45.69243" lon="6.03944">
        <ele>1326.276123</ele>
        <time>2011-05-01T09:08:09Z</time>
      </trkpt>
      <trkpt lat="45.69248" lon="6.03946">
        <ele>1325.7954102</ele>
        <time>2011-05-01T09:08:10Z</time>
      </trkpt>
      <trkpt lat="45.69264" lon="6.03955">
        <ele>1324.8342285</ele>
        <time>2011-05-01T09:08:13Z</time>
      </trkpt>
      <trkpt lat="45.69281" lon="6.03989">
        <ele>1319.0661621</ele>
        <time>2011-05-01T09:08:18Z</time>
      </trkpt>
      <trkpt lat="45.69294" lon="6.04026">
        <ele>1316.6628418</ele>
        <time>2011-05-01T09:08:22Z</time>
      </trkpt>
      <trkpt lat="45.69298" lon="6.04033">
        <ele>1316.1821289</ele>
        <time>2011-05-01T09:08:23Z</time>
      </trkpt>
      <trkpt lat="45.6932" lon="6.04063">
        <ele>1316.1821289</ele>
        <time>2011-05-01T09:08:28Z</time>
      </trkpt>
      <trkpt lat="45.69332" lon="6.04084">
        <ele>1314.2595215</ele>
        <time>2011-05-01T09:08:31Z</time>
      </trkpt>
      <trkpt lat="45.69344" lon="6.041">
        <ele>1312.3369141</ele>
        <time>2011-05-01T09:08:34Z</time>
      </trkpt>
      <trkpt lat="45.69351" lon="6.04109">
        <ele>1310.4143066</ele>
        <time>2011-05-01T09:08:36Z</time>
      </trkpt>
      <trkpt lat="45.69362" lon="6.04122">
        <ele>1309.9335938</ele>
        <time>2011-05-01T09:08:39Z</time>
      </trkpt>
      <trkpt lat="45.69368" lon="6.04125">
        <ele>1309.453125</ele>
        <time>2011-05-01T09:08:41Z</time>
      </trkpt>
      <trkpt lat="45.69378" lon="6.04125">
        <ele>1309.453125</ele>
        <time>2011-05-01T09:08:45Z</time>
      </trkpt>
      <trkpt lat="45.69395" lon="6.04112">
        <ele>1309.9335938</ele>
        <time>2011-05-01T09:08:51Z</time>
      </trkpt>
      <trkpt lat="45.69418" lon="6.04099">
        <ele>1308.0112305</ele>
        <time>2011-05-01T09:08:57Z</time>
      </trkpt>
      <trkpt lat="45.69422" lon="6.04097">
        <ele>1308.0112305</ele>
        <time>2011-05-01T09:08:58Z</time>
      </trkpt>
      <trkpt lat="45.69448" lon="6.04085">
        <ele>1306.0881348</ele>
        <time>2011-05-01T09:09:03Z</time>
      </trkpt>
      <trkpt lat="45.69457" lon="6.04078">
        <ele>1305.1269531</ele>
        <time>2011-05-01T09:09:05Z</time>
      </trkpt>
      <trkpt lat="45.69474" lon="6.04076">
        <ele>1304.1657715</ele>
        <time>2011-05-01T09:09:09Z</time>
      </trkpt>
      <trkpt lat="45.69486" lon="6.0409">
        <ele>1303.2043457</ele>
        <time>2011-05-01T09:09:12Z</time>
      </trkpt>
      <trkpt lat="45.6949" lon="6.04104">
        <ele>1302.7236328</ele>
        <time>2011-05-01T09:09:14Z</time>
      </trkpt>
      <trkpt lat="45.69495" lon="6.04121">
        <ele>1302.2429199</ele>
        <time>2011-05-01T09:09:16Z</time>
      </trkpt>
      <trkpt lat="45.69495" lon="6.04173">
        <ele>1303.6850586</ele>
        <time>2011-05-01T09:09:22Z</time>
      </trkpt>
      <trkpt lat="45.69497" lon="6.0419">
        <ele>1302.7236328</ele>
        <time>2011-05-01T09:09:24Z</time>
      </trkpt>
      <trkpt lat="45.69511" lon="6.0421">
        <ele>1298.3977051</ele>
        <time>2011-05-01T09:09:28Z</time>
      </trkpt>
      <trkpt lat="45.69526" lon="6.04208">
        <ele>1294.0720215</ele>
        <time>2011-05-01T09:09:30Z</time>
      </trkpt>
      <trkpt lat="45.69543" lon="6.04193">
        <ele>1295.0332031</ele>
        <time>2011-05-01T09:09:33Z</time>
      </trkpt>
      <trkpt lat="45.69545" lon="6.04184">
        <ele>1293.5913086</ele>
        <time>2011-05-01T09:09:35Z</time>
      </trkpt>
      <trkpt lat="45.69546" lon="6.04173">
        <ele>1292.630127</ele>
        <time>2011-05-01T09:09:37Z</time>
      </trkpt>
      <trkpt lat="45.69562" lon="6.04146">
        <ele>1290.7070312</ele>
        <time>2011-05-01T09:09:42Z</time>
      </trkpt>
      <trkpt lat="45.69575" lon="6.04139">
        <ele>1292.1494141</ele>
        <time>2011-05-01T09:09:44Z</time>
      </trkpt>
      <trkpt lat="45.69603" lon="6.04132">
        <ele>1297.4365234</ele>
        <time>2011-05-01T09:09:48Z</time>
      </trkpt>
      <trkpt lat="45.69629" lon="6.04146">
        <ele>1294.0720215</ele>
        <time>2011-05-01T09:09:52Z</time>
      </trkpt>
      <trkpt lat="45.69648" lon="6.04166">
        <ele>1291.668457</ele>
        <time>2011-05-01T09:09:55Z</time>
      </trkpt>
      <trkpt lat="45.69673" lon="6.04175">
        <ele>1289.2651367</ele>
        <time>2011-05-01T09:09:59Z</time>
      </trkpt>
      <trkpt lat="45.69691" lon="6.04178">
        <ele>1288.784668</ele>
        <time>2011-05-01T09:10:02Z</time>
      </trkpt>
      <trkpt lat="45.69707" lon="6.04185">
        <ele>1290.2265625</ele>
        <time>2011-05-01T09:10:05Z</time>
      </trkpt>
      <trkpt lat="45.69719" lon="6.04193">
        <ele>1290.7070312</ele>
        <time>2011-05-01T09:10:08Z</time>
      </trkpt>
      <trkpt lat="45.6972" lon="6.042">
        <ele>1288.3039551</ele>
        <time>2011-05-01T09:10:10Z</time>
      </trkpt>
      <trkpt lat="45.69733" lon="6.04204">
        <ele>1289.2651367</ele>
        <time>2011-05-01T09:10:15Z</time>
      </trkpt>
      <trkpt lat="45.69738" lon="6.042">
        <ele>1289.2651367</ele>
        <time>2011-05-01T09:10:17Z</time>
      </trkpt>
      <trkpt lat="45.69746" lon="6.04182">
        <ele>1292.630127</ele>
        <time>2011-05-01T09:10:22Z</time>
      </trkpt>
      <trkpt lat="45.69742" lon="6.04159">
        <ele>1293.1105957</ele>
        <time>2011-05-01T09:10:28Z</time>
      </trkpt>
      <trkpt lat="45.69744" lon="6.04139">
        <ele>1295.9946289</ele>
        <time>2011-05-01T09:10:34Z</time>
      </trkpt>
      <trkpt lat="45.69754" lon="6.04128">
        <ele>1300.8010254</ele>
        <time>2011-05-01T09:10:40Z</time>
      </trkpt>
      <trkpt lat="45.69758" lon="6.04118">
        <ele>1301.2817383</ele>
        <time>2011-05-01T09:10:44Z</time>
      </trkpt>
      <trkpt lat="45.6976" lon="6.04108">
        <ele>1300.3205566</ele>
        <time>2011-05-01T09:10:49Z</time>
      </trkpt>
      <trkpt lat="45.69764" lon="6.04085">
        <ele>1303.2043457</ele>
        <time>2011-05-01T09:10:58Z</time>
      </trkpt>
      <trkpt lat="45.69766" lon="6.04083">
        <ele>1303.2043457</ele>
        <time>2011-05-01T09:11:00Z</time>
      </trkpt>
      <trkpt lat="45.69773" lon="6.04086">
        <ele>1304.6462402</ele>
        <time>2011-05-01T09:11:07Z</time>
      </trkpt>
      <trkpt lat="45.69782" lon="6.04108">
        <ele>1304.6462402</ele>
        <time>2011-05-01T09:11:12Z</time>
      </trkpt>
      <trkpt lat="45.69794" lon="6.04142">
        <ele>1303.2043457</ele>
        <time>2011-05-01T09:11:18Z</time>
      </trkpt>
      <trkpt lat="45.69794" lon="6.04147">
        <ele>1302.7236328</ele>
        <time>2011-05-01T09:11:19Z</time>
      </trkpt>
      <trkpt lat="45.69806" lon="6.04172">
        <ele>1303.6850586</ele>
        <time>2011-05-01T09:11:25Z</time>
      </trkpt>
      <trkpt lat="45.69818" lon="6.04188">
        <ele>1303.2043457</ele>
        <time>2011-05-01T09:11:29Z</time>
      </trkpt>
      <trkpt lat="45.69833" lon="6.04201">
        <ele>1303.6850586</ele>
        <time>2011-05-01T09:11:34Z</time>
      </trkpt>
      <trkpt lat="45.69851" lon="6.04209">
        <ele>1305.1269531</ele>
        <time>2011-05-01T09:11:40Z</time>
      </trkpt>
      <trkpt lat="45.69863" lon="6.04203">
        <ele>1305.1269531</ele>
        <time>2011-05-01T09:11:44Z</time>
      </trkpt>
      <trkpt lat="45.69877" lon="6.04199">
        <ele>1308.0112305</ele>
        <time>2011-05-01T09:11:48Z</time>
      </trkpt>
      <trkpt lat="45.69889" lon="6.04203">
        <ele>1309.9335938</ele>
        <time>2011-05-01T09:11:53Z</time>
      </trkpt>
      <trkpt lat="45.699" lon="6.04212">
        <ele>1310.4143066</ele>
        <time>2011-05-01T09:11:57Z</time>
      </trkpt>
      <trkpt lat="45.69907" lon="6.04222">
        <ele>1310.4143066</ele>
        <time>2011-05-01T09:12:00Z</time>
      </trkpt>
      <trkpt lat="45.69906" lon="6.0425">
        <ele>1306.0881348</ele>
        <time>2011-05-01T09:12:06Z</time>
      </trkpt>
      <trkpt lat="45.69907" lon="6.04268">
        <ele>1306.5688477</ele>
        <time>2011-05-01T09:12:09Z</time>
      </trkpt>
      <trkpt lat="45.69923" lon="6.04281">
        <ele>1305.1269531</ele>
        <time>2011-05-01T09:12:13Z</time>
      </trkpt>
      <trkpt lat="45.69943" lon="6.04282">
        <ele>1305.607666</ele>
        <time>2011-05-01T09:12:18Z</time>
      </trkpt>
      <trkpt lat="45.69945" lon="6.04282">
        <ele>1306.0881348</ele>
        <time>2011-05-01T09:12:19Z</time>
      </trkpt>
      <trkpt lat="45.69957" lon="6.04279">
        <ele>1307.5302734</ele>
        <time>2011-05-01T09:12:25Z</time>
      </trkpt>
      <trkpt lat="45.69957" lon="6.04276">
        <ele>1307.5302734</ele>
        <time>2011-05-01T09:12:26Z</time>
      </trkpt>
      <trkpt lat="45.69957" lon="6.04262">
        <ele>1307.5302734</ele>
        <time>2011-05-01T09:12:34Z</time>
      </trkpt>
      <trkpt lat="45.69959" lon="6.04259">
        <ele>1308.9724121</ele>
        <time>2011-05-01T09:12:50Z</time>
      </trkpt>
      <trkpt lat="45.69963" lon="6.04256">
        <ele>1308.4916992</ele>
        <time>2011-05-01T09:12:57Z</time>
      </trkpt>
      <trkpt lat="45.69965" lon="6.04257">
        <ele>1308.9724121</ele>
        <time>2011-05-01T09:12:59Z</time>
      </trkpt>
      <trkpt lat="45.69971" lon="6.04258">
        <ele>1311.3757324</ele>
        <time>2011-05-01T09:13:07Z</time>
      </trkpt>
      <trkpt lat="45.69974" lon="6.04254">
        <ele>1312.817627</ele>
        <time>2011-05-01T09:13:13Z</time>
      </trkpt>
      <trkpt lat="45.69975" lon="6.04254">
        <ele>1314.7402344</ele>
        <time>2011-05-01T09:13:31Z</time>
      </trkpt>
      <trkpt lat="45.69971" lon="6.04253">
        <ele>1311.3757324</ele>
        <time>2011-05-01T09:13:58Z</time>
      </trkpt>
      <trkpt lat="45.6997" lon="6.04257">
        <ele>1311.8564453</ele>
        <time>2011-05-01T09:14:04Z</time>
      </trkpt>
      <trkpt lat="45.69968" lon="6.04257">
        <ele>1311.8564453</ele>
        <time>2011-05-01T09:14:06Z</time>
      </trkpt>
      <trkpt lat="45.69964" lon="6.04256">
        <ele>1311.3757324</ele>
        <time>2011-05-01T09:14:10Z</time>
      </trkpt>
      <trkpt lat="45.69958" lon="6.04258">
        <ele>1309.453125</ele>
        <time>2011-05-01T09:14:18Z</time>
      </trkpt>
      <trkpt lat="45.69955" lon="6.04261">
        <ele>1308.9724121</ele>
        <time>2011-05-01T09:14:25Z</time>
      </trkpt>
      <trkpt lat="45.69956" lon="6.0426">
        <ele>1308.0112305</ele>
        <time>2011-05-01T09:14:30Z</time>
      </trkpt>
      <trkpt lat="45.69957" lon="6.04249">
        <ele>1307.5302734</ele>
        <time>2011-05-01T09:14:35Z</time>
      </trkpt>
      <trkpt lat="45.69963" lon="6.04217">
        <ele>1309.453125</ele>
        <time>2011-05-01T09:14:47Z</time>
      </trkpt>
      <trkpt lat="45.69969" lon="6.042">
        <ele>1311.8564453</ele>
        <time>2011-05-01T09:14:54Z</time>
      </trkpt>
      <trkpt lat="45.69973" lon="6.04187">
        <ele>1312.817627</ele>
        <time>2011-05-01T09:15:00Z</time>
      </trkpt>
      <trkpt lat="45.69977" lon="6.04168">
        <ele>1314.7402344</ele>
        <time>2011-05-01T09:15:07Z</time>
      </trkpt>
      <trkpt lat="45.69981" lon="6.04148">
        <ele>1316.1821289</ele>
        <time>2011-05-01T09:15:16Z</time>
      </trkpt>
      <trkpt lat="45.69986" lon="6.04133">
        <ele>1317.1435547</ele>
        <time>2011-05-01T09:15:23Z</time>
      </trkpt>
      <trkpt lat="45.69991" lon="6.04117">
        <ele>1318.1047363</ele>
        <time>2011-05-01T09:15:31Z</time>
      </trkpt>
      <trkpt lat="45.69997" lon="6.04099">
        <ele>1319.0661621</ele>
        <time>2011-05-01T09:15:41Z</time>
      </trkpt>
      <trkpt lat="45.69998" lon="6.04083">
        <ele>1320.9887695</ele>
        <time>2011-05-01T09:15:48Z</time>
      </trkpt>
      <trkpt lat="45.69999" lon="6.0407">
        <ele>1322.911377</ele>
        <time>2011-05-01T09:15:54Z</time>
      </trkpt>
      <trkpt lat="45.7" lon="6.04068">
        <ele>1323.3920898</ele>
        <time>2011-05-01T09:15:55Z</time>
      </trkpt>
      <trkpt lat="45.70002" lon="6.0406">
        <ele>1324.3535156</ele>
        <time>2011-05-01T09:15:59Z</time>
      </trkpt>
      <trkpt lat="45.70005" lon="6.04043">
        <ele>1323.8725586</ele>
        <time>2011-05-01T09:16:06Z</time>
      </trkpt>
      <trkpt lat="45.70011" lon="6.04028">
        <ele>1323.8725586</ele>
        <time>2011-05-01T09:16:13Z</time>
      </trkpt>
      <trkpt lat="45.70017" lon="6.04007">
        <ele>1326.7568359</ele>
        <time>2011-05-01T09:16:22Z</time>
      </trkpt>
      <trkpt lat="45.70025" lon="6.03983">
        <ele>1330.1213379</ele>
        <time>2011-05-01T09:16:32Z</time>
      </trkpt>
      <trkpt lat="45.70035" lon="6.03958">
        <ele>1332.5246582</ele>
        <time>2011-05-01T09:16:42Z</time>
      </trkpt>
      <trkpt lat="45.70043" lon="6.03933">
        <ele>1333.9665527</ele>
        <time>2011-05-01T09:16:51Z</time>
      </trkpt>
      <trkpt lat="45.70048" lon="6.0391">
        <ele>1337.3310547</ele>
        <time>2011-05-01T09:16:59Z</time>
      </trkpt>
      <trkpt lat="45.70051" lon="6.03896">
        <ele>1337.8117676</ele>
        <time>2011-05-01T09:17:04Z</time>
      </trkpt>
      <trkpt lat="45.70051" lon="6.03876">
        <ele>1338.2924805</ele>
        <time>2011-05-01T09:17:10Z</time>
      </trkpt>
      <trkpt lat="45.70056" lon="6.0384">
        <ele>1339.2536621</ele>
        <time>2011-05-01T09:17:20Z</time>
      </trkpt>
      <trkpt lat="45.70066" lon="6.03815">
        <ele>1341.1765137</ele>
        <time>2011-05-01T09:17:28Z</time>
      </trkpt>
      <trkpt lat="45.70078" lon="6.03791">
        <ele>1344.5410156</ele>
        <time>2011-05-01T09:17:36Z</time>
      </trkpt>
      <trkpt lat="45.70089" lon="6.03763">
        <ele>1345.0217285</ele>
        <time>2011-05-01T09:17:45Z</time>
      </trkpt>
      <trkpt lat="45.701" lon="6.0374">
        <ele>1346.9443359</ele>
        <time>2011-05-01T09:17:53Z</time>
      </trkpt>
      <trkpt lat="45.70113" lon="6.0372">
        <ele>1348.3862305</ele>
        <time>2011-05-01T09:18:00Z</time>
      </trkpt>
      <trkpt lat="45.70128" lon="6.03701">
        <ele>1350.309082</ele>
        <time>2011-05-01T09:18:07Z</time>
      </trkpt>
      <trkpt lat="45.70142" lon="6.03689">
        <ele>1351.2702637</ele>
        <time>2011-05-01T09:18:13Z</time>
      </trkpt>
      <trkpt lat="45.70153" lon="6.03678">
        <ele>1351.2702637</ele>
        <time>2011-05-01T09:18:19Z</time>
      </trkpt>
      <trkpt lat="45.70165" lon="6.03668">
        <ele>1351.2702637</ele>
        <time>2011-05-01T09:18:26Z</time>
      </trkpt>
      <trkpt lat="45.7018" lon="6.03659">
        <ele>1351.2702637</ele>
        <time>2011-05-01T09:18:32Z</time>
      </trkpt>
      <trkpt lat="45.70198" lon="6.03647">
        <ele>1352.2314453</ele>
        <time>2011-05-01T09:18:39Z</time>
      </trkpt>
      <trkpt lat="45.70208" lon="6.03638">
        <ele>1352.2314453</ele>
        <time>2011-05-01T09:18:44Z</time>
      </trkpt>
      <trkpt lat="45.70224" lon="6.03623">
        <ele>1352.2314453</ele>
        <time>2011-05-01T09:18:51Z</time>
      </trkpt>
      <trkpt lat="45.70238" lon="6.03609">
        <ele>1351.7509766</ele>
        <time>2011-05-01T09:18:57Z</time>
      </trkpt>
      <trkpt lat="45.70252" lon="6.03591">
        <ele>1351.2702637</ele>
        <time>2011-05-01T09:19:04Z</time>
      </trkpt>
      <trkpt lat="45.70272" lon="6.03563">
        <ele>1353.1928711</ele>
        <time>2011-05-01T09:19:14Z</time>
      </trkpt>
      <trkpt lat="45.70285" lon="6.03554">
        <ele>1354.1542969</ele>
        <time>2011-05-01T09:19:19Z</time>
      </trkpt>
      <trkpt lat="45.70302" lon="6.03545">
        <ele>1355.5961914</ele>
        <time>2011-05-01T09:19:26Z</time>
      </trkpt>
      <trkpt lat="45.70315" lon="6.03537">
        <ele>1357.0383301</ele>
        <time>2011-05-01T09:19:32Z</time>
      </trkpt>
      <trkpt lat="45.70331" lon="6.03536">
        <ele>1357.9997559</ele>
        <time>2011-05-01T09:19:40Z</time>
      </trkpt>
      <trkpt lat="45.70344" lon="6.03547">
        <ele>1357.519043</ele>
        <time>2011-05-01T09:19:47Z</time>
      </trkpt>
      <trkpt lat="45.70358" lon="6.03562">
        <ele>1358.4802246</ele>
        <time>2011-05-01T09:19:55Z</time>
      </trkpt>
      <trkpt lat="45.70366" lon="6.03572">
        <ele>1359.9221191</ele>
        <time>2011-05-01T09:20:03Z</time>
      </trkpt>
      <trkpt lat="45.70374" lon="6.03585">
        <ele>1361.8449707</ele>
        <time>2011-05-01T09:20:11Z</time>
      </trkpt>
      <trkpt lat="45.7038" lon="6.03598">
        <ele>1363.767334</ele>
        <time>2011-05-01T09:20:18Z</time>
      </trkpt>
      <trkpt lat="45.70386" lon="6.03613">
        <ele>1365.6901855</ele>
        <time>2011-05-01T09:20:26Z</time>
      </trkpt>
      <trkpt lat="45.70393" lon="6.03621">
        <ele>1366.1706543</ele>
        <time>2011-05-01T09:20:32Z</time>
      </trkpt>
      <trkpt lat="45.70405" lon="6.03623">
        <ele>1367.1320801</ele>
        <time>2011-05-01T09:20:40Z</time>
      </trkpt>
      <trkpt lat="45.70416" lon="6.03624">
        <ele>1367.1320801</ele>
        <time>2011-05-01T09:20:46Z</time>
      </trkpt>
      <trkpt lat="45.70428" lon="6.0362">
        <ele>1367.6125488</ele>
        <time>2011-05-01T09:20:53Z</time>
      </trkpt>
      <trkpt lat="45.70439" lon="6.03617">
        <ele>1368.0932617</ele>
        <time>2011-05-01T09:21:00Z</time>
      </trkpt>
      <trkpt lat="45.70449" lon="6.03615">
        <ele>1368.5739746</ele>
        <time>2011-05-01T09:21:06Z</time>
      </trkpt>
      <trkpt lat="45.70461" lon="6.03611">
        <ele>1370.0158691</ele>
        <time>2011-05-01T09:21:14Z</time>
      </trkpt>
      <trkpt lat="45.70464" lon="6.03609">
        <ele>1370.496582</ele>
        <time>2011-05-01T09:21:17Z</time>
      </trkpt>
      <trkpt lat="45.70473" lon="6.03604">
        <ele>1372.4194336</ele>
        <time>2011-05-01T09:21:25Z</time>
      </trkpt>
      <trkpt lat="45.70481" lon="6.03597">
        <ele>1373.8613281</ele>
        <time>2011-05-01T09:21:33Z</time>
      </trkpt>
      <trkpt lat="45.70489" lon="6.03587">
        <ele>1375.7839355</ele>
        <time>2011-05-01T09:21:42Z</time>
      </trkpt>
      <trkpt lat="45.70496" lon="6.0358">
        <ele>1377.706543</ele>
        <time>2011-05-01T09:21:50Z</time>
      </trkpt>
      <trkpt lat="45.70503" lon="6.03576">
        <ele>1380.5905762</ele>
        <time>2011-05-01T09:21:58Z</time>
      </trkpt>
      <trkpt lat="45.70508" lon="6.03567">
        <ele>1382.5131836</ele>
        <time>2011-05-01T09:22:06Z</time>
      </trkpt>
      <trkpt lat="45.70515" lon="6.03558">
        <ele>1384.9165039</ele>
        <time>2011-05-01T09:22:15Z</time>
      </trkpt>
      <trkpt lat="45.70522" lon="6.03547">
        <ele>1387.3195801</ele>
        <time>2011-05-01T09:22:25Z</time>
      </trkpt>
      <trkpt lat="45.7053" lon="6.03534">
        <ele>1389.2424316</ele>
        <time>2011-05-01T09:22:35Z</time>
      </trkpt>
      <trkpt lat="45.70539" lon="6.03523">
        <ele>1391.645752</ele>
        <time>2011-05-01T09:22:45Z</time>
      </trkpt>
      <trkpt lat="45.70547" lon="6.0351">
        <ele>1393.5683594</ele>
        <time>2011-05-01T09:22:56Z</time>
      </trkpt>
      <trkpt lat="45.70553" lon="6.03498">
        <ele>1395.0102539</ele>
        <time>2011-05-01T09:23:05Z</time>
      </trkpt>
      <trkpt lat="45.70559" lon="6.03482">
        <ele>1397.8942871</ele>
        <time>2011-05-01T09:23:16Z</time>
      </trkpt>
      <trkpt lat="45.70564" lon="6.03472">
        <ele>1399.8168945</ele>
        <time>2011-05-01T09:23:23Z</time>
      </trkpt>
      <trkpt lat="45.7057" lon="6.03458">
        <ele>1402.7006836</ele>
        <time>2011-05-01T09:23:33Z</time>
      </trkpt>
      <trkpt lat="45.70573" lon="6.03446">
        <ele>1405.104248</ele>
        <time>2011-05-01T09:23:41Z</time>
      </trkpt>
      <trkpt lat="45.70578" lon="6.03433">
        <ele>1407.0268555</ele>
        <time>2011-05-01T09:23:50Z</time>
      </trkpt>
      <trkpt lat="45.70583" lon="6.03418">
        <ele>1408.9494629</ele>
        <time>2011-05-01T09:24:00Z</time>
      </trkpt>
      <trkpt lat="45.70588" lon="6.03403">
        <ele>1410.8720703</ele>
        <time>2011-05-01T09:24:09Z</time>
      </trkpt>
      <trkpt lat="45.70591" lon="6.03387">
        <ele>1412.7946777</ele>
        <time>2011-05-01T09:24:18Z</time>
      </trkpt>
      <trkpt lat="45.70598" lon="6.03381">
        <ele>1413.7558594</ele>
        <time>2011-05-01T09:24:24Z</time>
      </trkpt>
      <trkpt lat="45.70605" lon="6.03369">
        <ele>1414.2365723</ele>
        <time>2011-05-01T09:24:32Z</time>
      </trkpt>
      <trkpt lat="45.70614" lon="6.03352">
        <ele>1413.2753906</ele>
        <time>2011-05-01T09:24:40Z</time>
      </trkpt>
      <trkpt lat="45.70626" lon="6.03341">
        <ele>1413.2753906</ele>
        <time>2011-05-01T09:24:48Z</time>
      </trkpt>
      <trkpt lat="45.70641" lon="6.03331">
        <ele>1414.7172852</ele>
        <time>2011-05-01T09:24:57Z</time>
      </trkpt>
      <trkpt lat="45.7065" lon="6.03324">
        <ele>1416.1591797</ele>
        <time>2011-05-01T09:25:03Z</time>
      </trkpt>
      <trkpt lat="45.70663" lon="6.03313">
        <ele>1417.6010742</ele>
        <time>2011-05-01T09:25:12Z</time>
      </trkpt>
      <trkpt lat="45.70674" lon="6.03303">
        <ele>1419.0432129</ele>
        <time>2011-05-01T09:25:20Z</time>
      </trkpt>
      <trkpt lat="45.70685" lon="6.03292">
        <ele>1420.0046387</ele>
        <time>2011-05-01T09:25:29Z</time>
      </trkpt>
      <trkpt lat="45.70696" lon="6.03283">
        <ele>1420.9660645</ele>
        <time>2011-05-01T09:25:38Z</time>
      </trkpt>
      <trkpt lat="45.70706" lon="6.03274">
        <ele>1421.4465332</ele>
        <time>2011-05-01T09:25:47Z</time>
      </trkpt>
      <trkpt lat="45.70711" lon="6.03267">
        <ele>1421.4465332</ele>
        <time>2011-05-01T09:25:54Z</time>
      </trkpt>
      <trkpt lat="45.70711" lon="6.03267">
        <ele>1420.0046387</ele>
        <time>2011-05-01T09:26:40Z</time>
      </trkpt>
      <trkpt lat="45.70711" lon="6.03266">
        <ele>1418.5625</ele>
        <time>2011-05-01T09:29:04Z</time>
      </trkpt>
      <trkpt lat="45.70717" lon="6.03257">
        <ele>1419.5239258</ele>
        <time>2011-05-01T09:29:11Z</time>
      </trkpt>
      <trkpt lat="45.70728" lon="6.03244">
        <ele>1418.5625</ele>
        <time>2011-05-01T09:29:19Z</time>
      </trkpt>
      <trkpt lat="45.70742" lon="6.03223">
        <ele>1417.6010742</ele>
        <time>2011-05-01T09:29:26Z</time>
      </trkpt>
      <trkpt lat="45.70758" lon="6.03189">
        <ele>1416.1591797</ele>
        <time>2011-05-01T09:29:33Z</time>
      </trkpt>
      <trkpt lat="45.70767" lon="6.03166">
        <ele>1415.6787109</ele>
        <time>2011-05-01T09:29:39Z</time>
      </trkpt>
      <trkpt lat="45.70772" lon="6.03158">
        <ele>1415.6787109</ele>
        <time>2011-05-01T09:29:44Z</time>
      </trkpt>
      <trkpt lat="45.70783" lon="6.03144">
        <ele>1414.7172852</ele>
        <time>2011-05-01T09:29:50Z</time>
      </trkpt>
      <trkpt lat="45.70792" lon="6.03135">
        <ele>1414.7172852</ele>
        <time>2011-05-01T09:29:56Z</time>
      </trkpt>
      <trkpt lat="45.70806" lon="6.03121">
        <ele>1415.197998</ele>
        <time>2011-05-01T09:30:05Z</time>
      </trkpt>
      <trkpt lat="45.70814" lon="6.03111">
        <ele>1415.6787109</ele>
        <time>2011-05-01T09:30:11Z</time>
      </trkpt>
      <trkpt lat="45.70823" lon="6.03112">
        <ele>1416.1591797</ele>
        <time>2011-05-01T09:30:16Z</time>
      </trkpt>
      <trkpt lat="45.70841" lon="6.03116">
        <ele>1416.6398926</ele>
        <time>2011-05-01T09:30:23Z</time>
      </trkpt>
      <trkpt lat="45.7086" lon="6.0312">
        <ele>1417.1206055</ele>
        <time>2011-05-01T09:30:30Z</time>
      </trkpt>
      <trkpt lat="45.7088" lon="6.03124">
        <ele>1418.5625</ele>
        <time>2011-05-01T09:30:39Z</time>
      </trkpt>
      <trkpt lat="45.70898" lon="6.03128">
        <ele>1420.4853516</ele>
        <time>2011-05-01T09:30:48Z</time>
      </trkpt>
      <trkpt lat="45.70909" lon="6.03127">
        <ele>1421.9272461</ele>
        <time>2011-05-01T09:30:54Z</time>
      </trkpt>
      <trkpt lat="45.7092" lon="6.0312">
        <ele>1422.8886719</ele>
        <time>2011-05-01T09:31:01Z</time>
      </trkpt>
      <trkpt lat="45.70938" lon="6.03113">
        <ele>1425.291748</ele>
        <time>2011-05-01T09:31:12Z</time>
      </trkpt>
      <trkpt lat="45.70949" lon="6.03109">
        <ele>1425.291748</ele>
        <time>2011-05-01T09:31:20Z</time>
      </trkpt>
      <trkpt lat="45.70951" lon="6.03109">
        <ele>1425.291748</ele>
        <time>2011-05-01T09:31:26Z</time>
      </trkpt>
      <trkpt lat="45.70956" lon="6.0311">
        <ele>1425.7724609</ele>
        <time>2011-05-01T09:31:55Z</time>
      </trkpt>
      <trkpt lat="45.70969" lon="6.0311">
        <ele>1423.8498535</ele>
        <time>2011-05-01T09:31:59Z</time>
      </trkpt>
      <trkpt lat="45.70995" lon="6.03115">
        <ele>1420.4853516</ele>
        <time>2011-05-01T09:32:05Z</time>
      </trkpt>
      <trkpt lat="45.71006" lon="6.03118">
        <ele>1418.5625</ele>
        <time>2011-05-01T09:32:08Z</time>
      </trkpt>
      <trkpt lat="45.71016" lon="6.03122">
        <ele>1417.1206055</ele>
        <time>2011-05-01T09:32:10Z</time>
      </trkpt>
      <trkpt lat="45.71033" lon="6.03126">
        <ele>1414.2365723</ele>
        <time>2011-05-01T09:32:13Z</time>
      </trkpt>
      <trkpt lat="45.71046" lon="6.03137">
        <ele>1413.2753906</ele>
        <time>2011-05-01T09:32:17Z</time>
      </trkpt>
      <trkpt lat="45.71055" lon="6.03144">
        <ele>1411.8334961</ele>
        <time>2011-05-01T09:32:21Z</time>
      </trkpt>
      <trkpt lat="45.71075" lon="6.0315">
        <ele>1407.5075684</ele>
        <time>2011-05-01T09:32:27Z</time>
      </trkpt>
      <trkpt lat="45.71091" lon="6.03157">
        <ele>1405.5849609</ele>
        <time>2011-05-01T09:32:31Z</time>
      </trkpt>
      <trkpt lat="45.711" lon="6.03158">
        <ele>1404.6235352</ele>
        <time>2011-05-01T09:32:33Z</time>
      </trkpt>
      <trkpt lat="45.71126" lon="6.03164">
        <ele>1401.2587891</ele>
        <time>2011-05-01T09:32:38Z</time>
      </trkpt>
      <trkpt lat="45.71156" lon="6.03165">
        <ele>1397.4135742</ele>
        <time>2011-05-01T09:32:45Z</time>
      </trkpt>
      <trkpt lat="45.71162" lon="6.03166">
        <ele>1396.9328613</ele>
        <time>2011-05-01T09:32:50Z</time>
      </trkpt>
      <trkpt lat="45.71165" lon="6.03166">
        <ele>1396.4523926</ele>
        <time>2011-05-01T09:32:56Z</time>
      </trkpt>
      <trkpt lat="45.71166" lon="6.03167">
        <ele>1395.9716797</ele>
        <time>2011-05-01T09:32:58Z</time>
      </trkpt>
      <trkpt lat="45.71173" lon="6.03167">
        <ele>1394.529541</ele>
        <time>2011-05-01T09:33:03Z</time>
      </trkpt>
      <trkpt lat="45.71173" lon="6.03167">
        <ele>1394.529541</ele>
        <time>2011-05-01T09:33:13Z</time>
      </trkpt>
      <trkpt lat="45.71173" lon="6.03168">
        <ele>1395.4909668</ele>
        <time>2011-05-01T09:33:35Z</time>
      </trkpt>
      <trkpt lat="45.71174" lon="6.03167">
        <ele>1394.0490723</ele>
        <time>2011-05-01T09:33:40Z</time>
      </trkpt>
      <trkpt lat="45.71174" lon="6.03165">
        <ele>1394.0490723</ele>
        <time>2011-05-01T09:33:53Z</time>
      </trkpt>
      <trkpt lat="45.71172" lon="6.03165">
        <ele>1394.529541</ele>
        <time>2011-05-01T09:34:06Z</time>
      </trkpt>
      <trkpt lat="45.71172" lon="6.03165">
        <ele>1394.529541</ele>
        <time>2011-05-01T09:34:14Z</time>
      </trkpt>
      <trkpt lat="45.71171" lon="6.03165">
        <ele>1394.529541</ele>
        <time>2011-05-01T09:34:25Z</time>
      </trkpt>
      <trkpt lat="45.7117" lon="6.03164">
        <ele>1393.5683594</ele>
        <time>2011-05-01T09:34:36Z</time>
      </trkpt>
      <trkpt lat="45.7117" lon="6.03165">
        <ele>1394.0490723</ele>
        <time>2011-05-01T09:34:40Z</time>
      </trkpt>
      <trkpt lat="45.71171" lon="6.03162">
        <ele>1394.0490723</ele>
        <time>2011-05-01T09:34:45Z</time>
      </trkpt>
      <trkpt lat="45.71172" lon="6.03161">
        <ele>1394.529541</ele>
        <time>2011-05-01T09:34:51Z</time>
      </trkpt>
      <trkpt lat="45.71173" lon="6.0316">
        <ele>1394.529541</ele>
        <time>2011-05-01T09:35:02Z</time>
      </trkpt>
      <trkpt lat="45.71172" lon="6.03147">
        <ele>1393.5683594</ele>
        <time>2011-05-01T09:35:08Z</time>
      </trkpt>
      <trkpt lat="45.71179" lon="6.03134">
        <ele>1390.2038574</ele>
        <time>2011-05-01T09:35:14Z</time>
      </trkpt>
      <trkpt lat="45.71182" lon="6.03128">
        <ele>1388.28125</ele>
        <time>2011-05-01T09:35:17Z</time>
      </trkpt>
      <trkpt lat="45.71193" lon="6.03128">
        <ele>1385.8776855</ele>
        <time>2011-05-01T09:35:23Z</time>
      </trkpt>
      <trkpt lat="45.71205" lon="6.03134">
        <ele>1383.9550781</ele>
        <time>2011-05-01T09:35:29Z</time>
      </trkpt>
      <trkpt lat="45.71218" lon="6.0314">
        <ele>1381.0712891</ele>
        <time>2011-05-01T09:35:35Z</time>
      </trkpt>
      <trkpt lat="45.71227" lon="6.03144">
        <ele>1378.6679688</ele>
        <time>2011-05-01T09:35:40Z</time>
      </trkpt>
      <trkpt lat="45.71227" lon="6.03144">
        <ele>1379.1484375</ele>
        <time>2011-05-01T09:35:48Z</time>
      </trkpt>
      <trkpt lat="45.71233" lon="6.03143">
        <ele>1377.2260742</ele>
        <time>2011-05-01T09:35:53Z</time>
      </trkpt>
      <trkpt lat="45.71238" lon="6.03145">
        <ele>1375.7839355</ele>
        <time>2011-05-01T09:35:56Z</time>
      </trkpt>
      <trkpt lat="45.71248" lon="6.03144">
        <ele>1371.4577637</ele>
        <time>2011-05-01T09:36:03Z</time>
      </trkpt>
      <trkpt lat="45.71254" lon="6.03145">
        <ele>1370.0158691</ele>
        <time>2011-05-01T09:36:09Z</time>
      </trkpt>
      <trkpt lat="45.71257" lon="6.03146">
        <ele>1368.0932617</ele>
        <time>2011-05-01T09:36:14Z</time>
      </trkpt>
      <trkpt lat="45.71262" lon="6.03144">
        <ele>1366.6513672</ele>
        <time>2011-05-01T09:36:23Z</time>
      </trkpt>
      <trkpt lat="45.71263" lon="6.03143">
        <ele>1366.1706543</ele>
        <time>2011-05-01T09:36:29Z</time>
      </trkpt>
      <trkpt lat="45.71266" lon="6.03143">
        <ele>1362.3254395</ele>
        <time>2011-05-01T09:36:45Z</time>
      </trkpt>
      <trkpt lat="45.7127" lon="6.03142">
        <ele>1360.402832</ele>
        <time>2011-05-01T09:36:55Z</time>
      </trkpt>
      <trkpt lat="45.71272" lon="6.03143">
        <ele>1356.0769043</ele>
        <time>2011-05-01T09:37:07Z</time>
      </trkpt>
      <trkpt lat="45.71273" lon="6.03144">
        <ele>1355.5961914</ele>
        <time>2011-05-01T09:37:08Z</time>
      </trkpt>
      <trkpt lat="45.71278" lon="6.03149">
        <ele>1354.1542969</ele>
        <time>2011-05-01T09:37:16Z</time>
      </trkpt>
      <trkpt lat="45.7128" lon="6.03152">
        <ele>1353.1928711</ele>
        <time>2011-05-01T09:37:21Z</time>
      </trkpt>
      <trkpt lat="45.71282" lon="6.03158">
        <ele>1354.6347656</ele>
        <time>2011-05-01T09:37:28Z</time>
      </trkpt>
      <trkpt lat="45.71283" lon="6.03159">
        <ele>1354.6347656</ele>
        <time>2011-05-01T09:37:30Z</time>
      </trkpt>
      <trkpt lat="45.71285" lon="6.03163">
        <ele>1355.5961914</ele>
        <time>2011-05-01T09:37:36Z</time>
      </trkpt>
      <trkpt lat="45.71289" lon="6.03165">
        <ele>1359.4416504</ele>
        <time>2011-05-01T09:37:47Z</time>
      </trkpt>
      <trkpt lat="45.7129" lon="6.03166">
        <ele>1359.4416504</ele>
        <time>2011-05-01T09:37:50Z</time>
      </trkpt>
      <trkpt lat="45.71296" lon="6.03167">
        <ele>1362.3254395</ele>
        <time>2011-05-01T09:37:58Z</time>
      </trkpt>
      <trkpt lat="45.71295" lon="6.03168">
        <ele>1363.767334</ele>
        <time>2011-05-01T09:38:04Z</time>
      </trkpt>
      <trkpt lat="45.71298" lon="6.03181">
        <ele>1354.1542969</ele>
        <time>2011-05-01T09:38:10Z</time>
      </trkpt>
      <trkpt lat="45.71301" lon="6.03185">
        <ele>1351.7509766</ele>
        <time>2011-05-01T09:38:12Z</time>
      </trkpt>
      <trkpt lat="45.71307" lon="6.03195">
        <ele>1347.4250488</ele>
        <time>2011-05-01T09:38:19Z</time>
      </trkpt>
      <trkpt lat="45.71308" lon="6.03199">
        <ele>1347.9057617</ele>
        <time>2011-05-01T09:38:22Z</time>
      </trkpt>
      <trkpt lat="45.71315" lon="6.03206">
        <ele>1345.5024414</ele>
        <time>2011-05-01T09:38:33Z</time>
      </trkpt>
      <trkpt lat="45.71315" lon="6.03207">
        <ele>1346.9443359</ele>
        <time>2011-05-01T09:38:35Z</time>
      </trkpt>
      <trkpt lat="45.71317" lon="6.03208">
        <ele>1346.9443359</ele>
        <time>2011-05-01T09:38:37Z</time>
      </trkpt>
      <trkpt lat="45.71323" lon="6.03211">
        <ele>1353.673584</ele>
        <time>2011-05-01T09:38:44Z</time>
      </trkpt>
      <trkpt lat="45.71332" lon="6.03212">
        <ele>1359.9221191</ele>
        <time>2011-05-01T09:38:49Z</time>
      </trkpt>
      <trkpt lat="45.71346" lon="6.03218">
        <ele>1358.9609375</ele>
        <time>2011-05-01T09:38:57Z</time>
      </trkpt>
      <trkpt lat="45.71356" lon="6.0322">
        <ele>1363.767334</ele>
        <time>2011-05-01T09:39:29Z</time>
      </trkpt>
      <trkpt lat="45.71355" lon="6.03219">
        <ele>1370.0158691</ele>
        <time>2011-05-01T09:39:40Z</time>
      </trkpt>
      <trkpt lat="45.71358" lon="6.03219">
        <ele>1369.0546875</ele>
        <time>2011-05-01T09:39:46Z</time>
      </trkpt>
      <trkpt lat="45.71357" lon="6.03219">
        <ele>1367.1320801</ele>
        <time>2011-05-01T09:39:47Z</time>
      </trkpt>
      <trkpt lat="45.71359" lon="6.03219">
        <ele>1365.6901855</ele>
        <time>2011-05-01T09:39:49Z</time>
      </trkpt>
      <trkpt lat="45.71359" lon="6.03218">
        <ele>1361.8449707</ele>
        <time>2011-05-01T09:39:52Z</time>
      </trkpt>
      <trkpt lat="45.71357" lon="6.0322">
        <ele>1357.0383301</ele>
        <time>2011-05-01T09:40:02Z</time>
      </trkpt>
      <trkpt lat="45.71369" lon="6.0322">
        <ele>1356.5576172</ele>
        <time>2011-05-01T09:40:09Z</time>
      </trkpt>
      <trkpt lat="45.71372" lon="6.0322">
        <ele>1356.5576172</ele>
        <time>2011-05-01T09:40:10Z</time>
      </trkpt>
      <trkpt lat="45.71387" lon="6.03222">
        <ele>1357.519043</ele>
        <time>2011-05-01T09:40:15Z</time>
      </trkpt>
      <trkpt lat="45.71398" lon="6.03223">
        <ele>1357.0383301</ele>
        <time>2011-05-01T09:40:20Z</time>
      </trkpt>
      <trkpt lat="45.71402" lon="6.03224">
        <ele>1353.673584</ele>
        <time>2011-05-01T09:40:23Z</time>
      </trkpt>
      <trkpt lat="45.71408" lon="6.03223">
        <ele>1351.2702637</ele>
        <time>2011-05-01T09:40:27Z</time>
      </trkpt>
      <trkpt lat="45.71418" lon="6.03222">
        <ele>1350.7895508</ele>
        <time>2011-05-01T09:40:32Z</time>
      </trkpt>
      <trkpt lat="45.71429" lon="6.03223">
        <ele>1345.5024414</ele>
        <time>2011-05-01T09:40:39Z</time>
      </trkpt>
      <trkpt lat="45.71446" lon="6.03219">
        <ele>1345.0217285</ele>
        <time>2011-05-01T09:40:46Z</time>
      </trkpt>
      <trkpt lat="45.71456" lon="6.03218">
        <ele>1342.1379395</ele>
        <time>2011-05-01T09:40:51Z</time>
      </trkpt>
      <trkpt lat="45.71466" lon="6.03215">
        <ele>1340.215332</ele>
        <time>2011-05-01T09:40:55Z</time>
      </trkpt>
      <trkpt lat="45.71482" lon="6.0321">
        <ele>1334.9279785</ele>
        <time>2011-05-01T09:41:01Z</time>
      </trkpt>
      <trkpt lat="45.71495" lon="6.03209">
        <ele>1326.7568359</ele>
        <time>2011-05-01T09:41:05Z</time>
      </trkpt>
      <trkpt lat="45.71503" lon="6.03207">
        <ele>1322.911377</ele>
        <time>2011-05-01T09:41:08Z</time>
      </trkpt>
      <trkpt lat="45.7151" lon="6.03211">
        <ele>1318.1047363</ele>
        <time>2011-05-01T09:41:12Z</time>
      </trkpt>
      <trkpt lat="45.71516" lon="6.03216">
        <ele>1315.7016602</ele>
        <time>2011-05-01T09:41:16Z</time>
      </trkpt>
      <trkpt lat="45.71527" lon="6.03225">
        <ele>1320.0273438</ele>
        <time>2011-05-01T09:41:21Z</time>
      </trkpt>
      <trkpt lat="45.71532" lon="6.0323">
        <ele>1320.5080566</ele>
        <time>2011-05-01T09:41:23Z</time>
      </trkpt>
      <trkpt lat="45.71547" lon="6.03252">
        <ele>1320.5080566</ele>
        <time>2011-05-01T09:41:30Z</time>
      </trkpt>
      <trkpt lat="45.71548" lon="6.03255">
        <ele>1320.0273438</ele>
        <time>2011-05-01T09:41:31Z</time>
      </trkpt>
      <trkpt lat="45.71561" lon="6.03278">
        <ele>1319.0661621</ele>
        <time>2011-05-01T09:41:38Z</time>
      </trkpt>
      <trkpt lat="45.71574" lon="6.033">
        <ele>1319.546875</ele>
        <time>2011-05-01T09:41:44Z</time>
      </trkpt>
      <trkpt lat="45.71575" lon="6.03304">
        <ele>1320.9887695</ele>
        <time>2011-05-01T09:41:46Z</time>
      </trkpt>
      <trkpt lat="45.71574" lon="6.03311">
        <ele>1320.9887695</ele>
        <time>2011-05-01T09:41:51Z</time>
      </trkpt>
      <trkpt lat="45.71576" lon="6.03319">
        <ele>1320.5080566</ele>
        <time>2011-05-01T09:41:55Z</time>
      </trkpt>
      <trkpt lat="45.71581" lon="6.03327">
        <ele>1317.1435547</ele>
        <time>2011-05-01T09:42:01Z</time>
      </trkpt>
      <trkpt lat="45.71598" lon="6.03335">
        <ele>1319.546875</ele>
        <time>2011-05-01T09:42:07Z</time>
      </trkpt>
      <trkpt lat="45.71602" lon="6.03337">
        <ele>1318.5854492</ele>
        <time>2011-05-01T09:42:10Z</time>
      </trkpt>
      <trkpt lat="45.71612" lon="6.03345">
        <ele>1316.6628418</ele>
        <time>2011-05-01T09:42:16Z</time>
      </trkpt>
      <trkpt lat="45.71616" lon="6.03347">
        <ele>1315.2209473</ele>
        <time>2011-05-01T09:42:18Z</time>
      </trkpt>
      <trkpt lat="45.7162" lon="6.03352">
        <ele>1313.2983398</ele>
        <time>2011-05-01T09:42:22Z</time>
      </trkpt>
      <trkpt lat="45.7163" lon="6.03362">
        <ele>1309.453125</ele>
        <time>2011-05-01T09:42:27Z</time>
      </trkpt>
      <trkpt lat="45.71635" lon="6.0339">
        <ele>1305.1269531</ele>
        <time>2011-05-01T09:42:34Z</time>
      </trkpt>
      <trkpt lat="45.71631" lon="6.03421">
        <ele>1304.6462402</ele>
        <time>2011-05-01T09:42:39Z</time>
      </trkpt>
      <trkpt lat="45.71627" lon="6.03441">
        <ele>1303.6850586</ele>
        <time>2011-05-01T09:42:42Z</time>
      </trkpt>
      <trkpt lat="45.71626" lon="6.03451">
        <ele>1302.7236328</ele>
        <time>2011-05-01T09:42:44Z</time>
      </trkpt>
      <trkpt lat="45.71625" lon="6.03469">
        <ele>1304.1657715</ele>
        <time>2011-05-01T09:42:49Z</time>
      </trkpt>
      <trkpt lat="45.71625" lon="6.03484">
        <ele>1304.1657715</ele>
        <time>2011-05-01T09:42:53Z</time>
      </trkpt>
      <trkpt lat="45.71625" lon="6.03508">
        <ele>1309.453125</ele>
        <time>2011-05-01T09:42:59Z</time>
      </trkpt>
      <trkpt lat="45.71626" lon="6.03522">
        <ele>1308.0112305</ele>
        <time>2011-05-01T09:43:03Z</time>
      </trkpt>
      <trkpt lat="45.71619" lon="6.03555">
        <ele>1306.5688477</ele>
        <time>2011-05-01T09:43:09Z</time>
      </trkpt>
      <trkpt lat="45.71616" lon="6.03575">
        <ele>1302.7236328</ele>
        <time>2011-05-01T09:43:12Z</time>
      </trkpt>
      <trkpt lat="45.71615" lon="6.036">
        <ele>1301.7624512</ele>
        <time>2011-05-01T09:43:16Z</time>
      </trkpt>
      <trkpt lat="45.71615" lon="6.03623">
        <ele>1300.8010254</ele>
        <time>2011-05-01T09:43:21Z</time>
      </trkpt>
      <trkpt lat="45.71621" lon="6.03651">
        <ele>1300.3205566</ele>
        <time>2011-05-01T09:43:29Z</time>
      </trkpt>
      <trkpt lat="45.71626" lon="6.03667">
        <ele>1300.8010254</ele>
        <time>2011-05-01T09:43:36Z</time>
      </trkpt>
      <trkpt lat="45.71637" lon="6.03677">
        <ele>1299.8398438</ele>
        <time>2011-05-01T09:43:43Z</time>
      </trkpt>
      <trkpt lat="45.71648" lon="6.03674">
        <ele>1299.3591309</ele>
        <time>2011-05-01T09:43:49Z</time>
      </trkpt>
      <trkpt lat="45.71662" lon="6.03666">
        <ele>1298.878418</ele>
        <time>2011-05-01T09:43:57Z</time>
      </trkpt>
      <trkpt lat="45.71675" lon="6.03665">
        <ele>1300.3205566</ele>
        <time>2011-05-01T09:44:04Z</time>
      </trkpt>
      <trkpt lat="45.71689" lon="6.0367">
        <ele>1301.7624512</ele>
        <time>2011-05-01T09:44:11Z</time>
      </trkpt>
      <trkpt lat="45.71701" lon="6.03681">
        <ele>1303.2043457</ele>
        <time>2011-05-01T09:44:18Z</time>
      </trkpt>
      <trkpt lat="45.71708" lon="6.037">
        <ele>1304.6462402</ele>
        <time>2011-05-01T09:44:26Z</time>
      </trkpt>
      <trkpt lat="45.71712" lon="6.03724">
        <ele>1307.0495605</ele>
        <time>2011-05-01T09:44:35Z</time>
      </trkpt>
      <trkpt lat="45.71713" lon="6.03735">
        <ele>1308.4916992</ele>
        <time>2011-05-01T09:44:41Z</time>
      </trkpt>
      <trkpt lat="45.71719" lon="6.03737">
        <ele>1308.9724121</ele>
        <time>2011-05-01T09:44:47Z</time>
      </trkpt>
      <trkpt lat="45.7172" lon="6.03727">
        <ele>1310.4143066</ele>
        <time>2011-05-01T09:44:52Z</time>
      </trkpt>
      <trkpt lat="45.71726" lon="6.03709">
        <ele>1312.817627</ele>
        <time>2011-05-01T09:45:01Z</time>
      </trkpt>
      <trkpt lat="45.71734" lon="6.03696">
        <ele>1314.2595215</ele>
        <time>2011-05-01T09:45:09Z</time>
      </trkpt>
      <trkpt lat="45.71744" lon="6.03687">
        <ele>1314.7402344</ele>
        <time>2011-05-01T09:45:17Z</time>
      </trkpt>
      <trkpt lat="45.71758" lon="6.0368">
        <ele>1315.2209473</ele>
        <time>2011-05-01T09:45:26Z</time>
      </trkpt>
      <trkpt lat="45.71769" lon="6.03676">
        <ele>1315.7016602</ele>
        <time>2011-05-01T09:45:33Z</time>
      </trkpt>
      <trkpt lat="45.71775" lon="6.03667">
        <ele>1316.6628418</ele>
        <time>2011-05-01T09:45:39Z</time>
      </trkpt>
      <trkpt lat="45.71774" lon="6.03652">
        <ele>1318.5854492</ele>
        <time>2011-05-01T09:45:45Z</time>
      </trkpt>
      <trkpt lat="45.71767" lon="6.03637">
        <ele>1321.4692383</ele>
        <time>2011-05-01T09:45:52Z</time>
      </trkpt>
      <trkpt lat="45.71761" lon="6.0361">
        <ele>1324.3535156</ele>
        <time>2011-05-01T09:46:03Z</time>
      </trkpt>
      <trkpt lat="45.71759" lon="6.03593">
        <ele>1326.276123</ele>
        <time>2011-05-01T09:46:10Z</time>
      </trkpt>
      <trkpt lat="45.71758" lon="6.03578">
        <ele>1326.7568359</ele>
        <time>2011-05-01T09:46:16Z</time>
      </trkpt>
      <trkpt lat="45.71752" lon="6.03564">
        <ele>1329.1599121</ele>
        <time>2011-05-01T09:46:23Z</time>
      </trkpt>
      <trkpt lat="45.7174" lon="6.03553">
        <ele>1331.0827637</ele>
        <time>2011-05-01T09:46:31Z</time>
      </trkpt>
      <trkpt lat="45.7173" lon="6.03545">
        <ele>1332.0439453</ele>
        <time>2011-05-01T09:46:38Z</time>
      </trkpt>
      <trkpt lat="45.71716" lon="6.03531">
        <ele>1333.005127</ele>
        <time>2011-05-01T09:46:48Z</time>
      </trkpt>
      <trkpt lat="45.71715" lon="6.03529">
        <ele>1333.005127</ele>
        <time>2011-05-01T09:46:49Z</time>
      </trkpt>
      <trkpt lat="45.71719" lon="6.03522">
        <ele>1333.005127</ele>
        <time>2011-05-01T09:46:55Z</time>
      </trkpt>
      <trkpt lat="45.71735" lon="6.03521">
        <ele>1333.005127</ele>
        <time>2011-05-01T09:47:04Z</time>
      </trkpt>
      <trkpt lat="45.7175" lon="6.03515">
        <ele>1333.4858398</ele>
        <time>2011-05-01T09:47:13Z</time>
      </trkpt>
      <trkpt lat="45.71761" lon="6.03508">
        <ele>1333.4858398</ele>
        <time>2011-05-01T09:47:21Z</time>
      </trkpt>
      <trkpt lat="45.71773" lon="6.03499">
        <ele>1333.4858398</ele>
        <time>2011-05-01T09:47:29Z</time>
      </trkpt>
      <trkpt lat="45.71783" lon="6.03495">
        <ele>1333.9665527</ele>
        <time>2011-05-01T09:47:36Z</time>
      </trkpt>
      <trkpt lat="45.71791" lon="6.03503">
        <ele>1335.8891602</ele>
        <time>2011-05-01T09:47:42Z</time>
      </trkpt>
      <trkpt lat="45.71801" lon="6.03529">
        <ele>1337.3310547</ele>
        <time>2011-05-01T09:47:52Z</time>
      </trkpt>
      <trkpt lat="45.71814" lon="6.03557">
        <ele>1339.2536621</ele>
        <time>2011-05-01T09:48:03Z</time>
      </trkpt>
      <trkpt lat="45.71827" lon="6.03579">
        <ele>1341.6572266</ele>
        <time>2011-05-01T09:48:14Z</time>
      </trkpt>
      <trkpt lat="45.71832" lon="6.0359">
        <ele>1342.6186523</ele>
        <time>2011-05-01T09:48:20Z</time>
      </trkpt>
      <trkpt lat="45.71839" lon="6.03603">
        <ele>1343.579834</ele>
        <time>2011-05-01T09:48:27Z</time>
      </trkpt>
      <trkpt lat="45.71851" lon="6.03616">
        <ele>1344.5410156</ele>
        <time>2011-05-01T09:48:36Z</time>
      </trkpt>
      <trkpt lat="45.71863" lon="6.03625">
        <ele>1345.9831543</ele>
        <time>2011-05-01T09:48:44Z</time>
      </trkpt>
      <trkpt lat="45.7187" lon="6.03636">
        <ele>1347.9057617</ele>
        <time>2011-05-01T09:48:52Z</time>
      </trkpt>
      <trkpt lat="45.71875" lon="6.03649">
        <ele>1349.8283691</ele>
        <time>2011-05-01T09:48:59Z</time>
      </trkpt>
      <trkpt lat="45.71883" lon="6.03661">
        <ele>1350.309082</ele>
        <time>2011-05-01T09:49:06Z</time>
      </trkpt>
      <trkpt lat="45.71894" lon="6.0367">
        <ele>1350.309082</ele>
        <time>2011-05-01T09:49:13Z</time>
      </trkpt>
      <trkpt lat="45.71907" lon="6.03673">
        <ele>1350.309082</ele>
        <time>2011-05-01T09:49:20Z</time>
      </trkpt>
      <trkpt lat="45.71924" lon="6.03675">
        <ele>1351.2702637</ele>
        <time>2011-05-01T09:49:30Z</time>
      </trkpt>
      <trkpt lat="45.7194" lon="6.03679">
        <ele>1353.1928711</ele>
        <time>2011-05-01T09:49:40Z</time>
      </trkpt>
      <trkpt lat="45.71955" lon="6.03679">
        <ele>1356.5576172</ele>
        <time>2011-05-01T09:49:48Z</time>
      </trkpt>
      <trkpt lat="45.71963" lon="6.03678">
        <ele>1357.519043</ele>
        <time>2011-05-01T09:49:54Z</time>
      </trkpt>
      <trkpt lat="45.71973" lon="6.0368">
        <ele>1358.9609375</ele>
        <time>2011-05-01T09:50:02Z</time>
      </trkpt>
      <trkpt lat="45.71986" lon="6.03686">
        <ele>1359.4416504</ele>
        <time>2011-05-01T09:50:10Z</time>
      </trkpt>
      <trkpt lat="45.71999" lon="6.0369">
        <ele>1360.402832</ele>
        <time>2011-05-01T09:50:16Z</time>
      </trkpt>
      <trkpt lat="45.72018" lon="6.0369">
        <ele>1360.402832</ele>
        <time>2011-05-01T09:50:23Z</time>
      </trkpt>
      <trkpt lat="45.72035" lon="6.03684">
        <ele>1359.9221191</ele>
        <time>2011-05-01T09:50:29Z</time>
      </trkpt>
      <trkpt lat="45.72055" lon="6.03678">
        <ele>1358.4802246</ele>
        <time>2011-05-01T09:50:35Z</time>
      </trkpt>
      <trkpt lat="45.72083" lon="6.03674">
        <ele>1355.5961914</ele>
        <time>2011-05-01T09:50:41Z</time>
      </trkpt>
      <trkpt lat="45.72104" lon="6.03674">
        <ele>1354.1542969</ele>
        <time>2011-05-01T09:50:45Z</time>
      </trkpt>
      <trkpt lat="45.72127" lon="6.03664">
        <ele>1351.2702637</ele>
        <time>2011-05-01T09:50:50Z</time>
      </trkpt>
      <trkpt lat="45.72161" lon="6.03661">
        <ele>1347.4250488</ele>
        <time>2011-05-01T09:50:58Z</time>
      </trkpt>
      <trkpt lat="45.72186" lon="6.03663">
        <ele>1345.9831543</ele>
        <time>2011-05-01T09:51:03Z</time>
      </trkpt>
      <trkpt lat="45.72213" lon="6.03657">
        <ele>1344.0605469</ele>
        <time>2011-05-01T09:51:09Z</time>
      </trkpt>
      <trkpt lat="45.72222" lon="6.03654">
        <ele>1343.0991211</ele>
        <time>2011-05-01T09:51:11Z</time>
      </trkpt>
      <trkpt lat="45.72245" lon="6.03631">
        <ele>1340.215332</ele>
        <time>2011-05-01T09:51:16Z</time>
      </trkpt>
      <trkpt lat="45.72249" lon="6.03625">
        <ele>1339.2536621</ele>
        <time>2011-05-01T09:51:17Z</time>
      </trkpt>
      <trkpt lat="45.72264" lon="6.0361">
        <ele>1336.369873</ele>
        <time>2011-05-01T09:51:20Z</time>
      </trkpt>
      <trkpt lat="45.72282" lon="6.03603">
        <ele>1334.4472656</ele>
        <time>2011-05-01T09:51:24Z</time>
      </trkpt>
      <trkpt lat="45.72286" lon="6.03605">
        <ele>1333.9665527</ele>
        <time>2011-05-01T09:51:25Z</time>
      </trkpt>
      <trkpt lat="45.72312" lon="6.03614">
        <ele>1330.1213379</ele>
        <time>2011-05-01T09:51:30Z</time>
      </trkpt>
      <trkpt lat="45.72317" lon="6.03614">
        <ele>1329.640625</ele>
        <time>2011-05-01T09:51:31Z</time>
      </trkpt>
      <trkpt lat="45.72325" lon="6.03614">
        <ele>1328.1987305</ele>
        <time>2011-05-01T09:51:33Z</time>
      </trkpt>
      <trkpt lat="45.72339" lon="6.03603">
        <ele>1326.276123</ele>
        <time>2011-05-01T09:51:38Z</time>
      </trkpt>
      <trkpt lat="45.72338" lon="6.03586">
        <ele>1326.276123</ele>
        <time>2011-05-01T09:51:43Z</time>
      </trkpt>
      <trkpt lat="45.72337" lon="6.03577">
        <ele>1325.7954102</ele>
        <time>2011-05-01T09:51:45Z</time>
      </trkpt>
      <trkpt lat="45.7233" lon="6.03547">
        <ele>1323.8725586</ele>
        <time>2011-05-01T09:51:51Z</time>
      </trkpt>
      <trkpt lat="45.72331" lon="6.03541">
        <ele>1323.3920898</ele>
        <time>2011-05-01T09:51:52Z</time>
      </trkpt>
      <trkpt lat="45.72351" lon="6.03521">
        <ele>1320.9887695</ele>
        <time>2011-05-01T09:51:58Z</time>
      </trkpt>
      <trkpt lat="45.72356" lon="6.03517">
        <ele>1320.0273438</ele>
        <time>2011-05-01T09:51:59Z</time>
      </trkpt>
      <trkpt lat="45.72381" lon="6.03482">
        <ele>1315.2209473</ele>
        <time>2011-05-01T09:52:04Z</time>
      </trkpt>
      <trkpt lat="45.72395" lon="6.03459">
        <ele>1314.2595215</ele>
        <time>2011-05-01T09:52:07Z</time>
      </trkpt>
      <trkpt lat="45.72416" lon="6.03438">
        <ele>1312.3369141</ele>
        <time>2011-05-01T09:52:12Z</time>
      </trkpt>
      <trkpt lat="45.72421" lon="6.03432">
        <ele>1311.8564453</ele>
        <time>2011-05-01T09:52:14Z</time>
      </trkpt>
      <trkpt lat="45.72426" lon="6.03427">
        <ele>1311.8564453</ele>
        <time>2011-05-01T09:52:16Z</time>
      </trkpt>
      <trkpt lat="45.72441" lon="6.03425">
        <ele>1314.2595215</ele>
        <time>2011-05-01T09:52:24Z</time>
      </trkpt>
      <trkpt lat="45.72451" lon="6.03426">
        <ele>1316.6628418</ele>
        <time>2011-05-01T09:52:30Z</time>
      </trkpt>
      <trkpt lat="45.72464" lon="6.03427">
        <ele>1316.1821289</ele>
        <time>2011-05-01T09:52:36Z</time>
      </trkpt>
      <trkpt lat="45.72477" lon="6.03432">
        <ele>1313.2983398</ele>
        <time>2011-05-01T09:52:41Z</time>
      </trkpt>
      <trkpt lat="45.7249" lon="6.03433">
        <ele>1311.8564453</ele>
        <time>2011-05-01T09:52:44Z</time>
      </trkpt>
      <trkpt lat="45.72494" lon="6.03433">
        <ele>1312.3369141</ele>
        <time>2011-05-01T09:52:47Z</time>
      </trkpt>
      <trkpt lat="45.72501" lon="6.03433">
        <ele>1317.6240234</ele>
        <time>2011-05-01T09:53:34Z</time>
      </trkpt>
      <trkpt lat="45.72505" lon="6.0344">
        <ele>1317.6240234</ele>
        <time>2011-05-01T09:53:38Z</time>
      </trkpt>
      <trkpt lat="45.72508" lon="6.0345">
        <ele>1318.1047363</ele>
        <time>2011-05-01T09:53:41Z</time>
      </trkpt>
      <trkpt lat="45.72522" lon="6.03461">
        <ele>1316.6628418</ele>
        <time>2011-05-01T09:53:47Z</time>
      </trkpt>
      <trkpt lat="45.72542" lon="6.03478">
        <ele>1316.1821289</ele>
        <time>2011-05-01T09:53:56Z</time>
      </trkpt>
      <trkpt lat="45.7255" lon="6.03486">
        <ele>1318.1047363</ele>
        <time>2011-05-01T09:54:02Z</time>
      </trkpt>
      <trkpt lat="45.72558" lon="6.03493">
        <ele>1320.5080566</ele>
        <time>2011-05-01T09:54:10Z</time>
      </trkpt>
      <trkpt lat="45.72568" lon="6.03497">
        <ele>1320.5080566</ele>
        <time>2011-05-01T09:54:18Z</time>
      </trkpt>
      <trkpt lat="45.72575" lon="6.035">
        <ele>1321.9499512</ele>
        <time>2011-05-01T09:54:25Z</time>
      </trkpt>
      <trkpt lat="45.72583" lon="6.03508">
        <ele>1322.911377</ele>
        <time>2011-05-01T09:54:33Z</time>
      </trkpt>
      <trkpt lat="45.72591" lon="6.03515">
        <ele>1324.8342285</ele>
        <time>2011-05-01T09:54:41Z</time>
      </trkpt>
      <trkpt lat="45.72594" lon="6.03516">
        <ele>1325.3146973</ele>
        <time>2011-05-01T09:54:44Z</time>
      </trkpt>
      <trkpt lat="45.726" lon="6.03518">
        <ele>1326.276123</ele>
        <time>2011-05-01T09:54:51Z</time>
      </trkpt>
      <trkpt lat="45.72609" lon="6.03519">
        <ele>1328.1987305</ele>
        <time>2011-05-01T09:54:59Z</time>
      </trkpt>
      <trkpt lat="45.72617" lon="6.03524">
        <ele>1332.5246582</ele>
        <time>2011-05-01T09:55:08Z</time>
      </trkpt>
      <trkpt lat="45.72618" lon="6.03524">
        <ele>1333.005127</ele>
        <time>2011-05-01T09:55:09Z</time>
      </trkpt>
      <trkpt lat="45.7262" lon="6.03531">
        <ele>1334.4472656</ele>
        <time>2011-05-01T09:55:14Z</time>
      </trkpt>
      <trkpt lat="45.72627" lon="6.03545">
        <ele>1333.9665527</ele>
        <time>2011-05-01T09:55:24Z</time>
      </trkpt>
      <trkpt lat="45.72629" lon="6.0356">
        <ele>1336.369873</ele>
        <time>2011-05-01T09:55:33Z</time>
      </trkpt>
      <trkpt lat="45.72623" lon="6.03574">
        <ele>1338.7731934</ele>
        <time>2011-05-01T09:55:42Z</time>
      </trkpt>
      <trkpt lat="45.72615" lon="6.03582">
        <ele>1339.734375</ele>
        <time>2011-05-01T09:55:49Z</time>
      </trkpt>
      <trkpt lat="45.72611" lon="6.03595">
        <ele>1341.1765137</ele>
        <time>2011-05-01T09:55:56Z</time>
      </trkpt>
      <trkpt lat="45.7261" lon="6.03603">
        <ele>1342.6186523</ele>
        <time>2011-05-01T09:56:03Z</time>
      </trkpt>
      <trkpt lat="45.72611" lon="6.03603">
        <ele>1343.579834</ele>
        <time>2011-05-01T09:56:11Z</time>
      </trkpt>
      <trkpt lat="45.72614" lon="6.03602">
        <ele>1344.0605469</ele>
        <time>2011-05-01T09:56:14Z</time>
      </trkpt>
      <trkpt lat="45.72619" lon="6.03599">
        <ele>1344.5410156</ele>
        <time>2011-05-01T09:56:20Z</time>
      </trkpt>
      <trkpt lat="45.72627" lon="6.03591">
        <ele>1344.5410156</ele>
        <time>2011-05-01T09:56:32Z</time>
      </trkpt>
      <trkpt lat="45.72631" lon="6.03588">
        <ele>1344.5410156</ele>
        <time>2011-05-01T09:56:39Z</time>
      </trkpt>
      <trkpt lat="45.72635" lon="6.03586">
        <ele>1344.5410156</ele>
        <time>2011-05-01T09:56:45Z</time>
      </trkpt>
      <trkpt lat="45.72638" lon="6.03582">
        <ele>1341.6572266</ele>
        <time>2011-05-01T09:56:53Z</time>
      </trkpt>
      <trkpt lat="45.72643" lon="6.03578">
        <ele>1341.6572266</ele>
        <time>2011-05-01T09:57:00Z</time>
      </trkpt>
      <trkpt lat="45.72645" lon="6.03577">
        <ele>1342.6186523</ele>
        <time>2011-05-01T09:57:06Z</time>
      </trkpt>
      <trkpt lat="45.72651" lon="6.03571">
        <ele>1343.0991211</ele>
        <time>2011-05-01T09:57:12Z</time>
      </trkpt>
      <trkpt lat="45.7266" lon="6.03564">
        <ele>1343.0991211</ele>
        <time>2011-05-01T09:57:20Z</time>
      </trkpt>
      <trkpt lat="45.72666" lon="6.03558">
        <ele>1344.0605469</ele>
        <time>2011-05-01T09:57:26Z</time>
      </trkpt>
      <trkpt lat="45.72671" lon="6.03564">
        <ele>1345.9831543</ele>
        <time>2011-05-01T09:57:32Z</time>
      </trkpt>
      <trkpt lat="45.72671" lon="6.03568">
        <ele>1347.4250488</ele>
        <time>2011-05-01T09:57:34Z</time>
      </trkpt>
      <trkpt lat="45.72663" lon="6.03584">
        <ele>1351.7509766</ele>
        <time>2011-05-01T09:57:44Z</time>
      </trkpt>
      <trkpt lat="45.72661" lon="6.03592">
        <ele>1353.1928711</ele>
        <time>2011-05-01T09:57:49Z</time>
      </trkpt>
      <trkpt lat="45.72663" lon="6.03595">
        <ele>1353.1928711</ele>
        <time>2011-05-01T09:57:55Z</time>
      </trkpt>
      <trkpt lat="45.72666" lon="6.03594">
        <ele>1352.7121582</ele>
        <time>2011-05-01T09:58:04Z</time>
      </trkpt>
      <trkpt lat="45.72667" lon="6.03594">
        <ele>1352.7121582</ele>
        <time>2011-05-01T09:58:06Z</time>
      </trkpt>
      <trkpt lat="45.7268" lon="6.03589">
        <ele>1353.673584</ele>
        <time>2011-05-01T09:58:16Z</time>
      </trkpt>
      <trkpt lat="45.72685" lon="6.03586">
        <ele>1354.1542969</ele>
        <time>2011-05-01T09:58:22Z</time>
      </trkpt>
      <trkpt lat="45.72688" lon="6.03586">
        <ele>1356.0769043</ele>
        <time>2011-05-01T09:58:31Z</time>
      </trkpt>
      <trkpt lat="45.72693" lon="6.03583">
        <ele>1357.9997559</ele>
        <time>2011-05-01T09:58:40Z</time>
      </trkpt>
      <trkpt lat="45.72698" lon="6.03583">
        <ele>1361.8449707</ele>
        <time>2011-05-01T09:58:49Z</time>
      </trkpt>
      <trkpt lat="45.72701" lon="6.03584">
        <ele>1362.3254395</ele>
        <time>2011-05-01T09:58:56Z</time>
      </trkpt>
      <trkpt lat="45.72704" lon="6.03584">
        <ele>1362.8061523</ele>
        <time>2011-05-01T09:59:02Z</time>
      </trkpt>
      <trkpt lat="45.7271" lon="6.03584">
        <ele>1364.2480469</ele>
        <time>2011-05-01T09:59:12Z</time>
      </trkpt>
      <trkpt lat="45.72714" lon="6.03585">
        <ele>1366.6513672</ele>
        <time>2011-05-01T09:59:22Z</time>
      </trkpt>
      <trkpt lat="45.72716" lon="6.03586">
        <ele>1367.6125488</ele>
        <time>2011-05-01T09:59:28Z</time>
      </trkpt>
      <trkpt lat="45.72719" lon="6.03589">
        <ele>1369.5354004</ele>
        <time>2011-05-01T09:59:35Z</time>
      </trkpt>
      <trkpt lat="45.72714" lon="6.03596">
        <ele>1372.9001465</ele>
        <time>2011-05-01T09:59:45Z</time>
      </trkpt>
      <trkpt lat="45.72717" lon="6.03598">
        <ele>1373.3808594</ele>
        <time>2011-05-01T09:59:53Z</time>
      </trkpt>
      <trkpt lat="45.7272" lon="6.03598">
        <ele>1374.8227539</ele>
        <time>2011-05-01T10:00:01Z</time>
      </trkpt>
      <trkpt lat="45.72725" lon="6.03597">
        <ele>1377.2260742</ele>
        <time>2011-05-01T10:00:10Z</time>
      </trkpt>
      <trkpt lat="45.72727" lon="6.03596">
        <ele>1377.706543</ele>
        <time>2011-05-01T10:00:16Z</time>
      </trkpt>
      <trkpt lat="45.72728" lon="6.03595">
        <ele>1378.1872559</ele>
        <time>2011-05-01T10:00:25Z</time>
      </trkpt>
      <trkpt lat="45.72732" lon="6.03592">
        <ele>1378.1872559</ele>
        <time>2011-05-01T10:00:30Z</time>
      </trkpt>
      <trkpt lat="45.72742" lon="6.03584">
        <ele>1376.2646484</ele>
        <time>2011-05-01T10:00:38Z</time>
      </trkpt>
      <trkpt lat="45.72747" lon="6.0358">
        <ele>1374.342041</ele>
        <time>2011-05-01T10:00:42Z</time>
      </trkpt>
      <trkpt lat="45.72757" lon="6.03571">
        <ele>1373.8613281</ele>
        <time>2011-05-01T10:00:50Z</time>
      </trkpt>
      <trkpt lat="45.7276" lon="6.03567">
        <ele>1374.342041</ele>
        <time>2011-05-01T10:00:58Z</time>
      </trkpt>
      <trkpt lat="45.72763" lon="6.03564">
        <ele>1377.706543</ele>
        <time>2011-05-01T10:01:04Z</time>
      </trkpt>
      <trkpt lat="45.72768" lon="6.0356">
        <ele>1378.6679688</ele>
        <time>2011-05-01T10:01:13Z</time>
      </trkpt>
      <trkpt lat="45.72772" lon="6.03556">
        <ele>1380.1098633</ele>
        <time>2011-05-01T10:01:20Z</time>
      </trkpt>
      <trkpt lat="45.7278" lon="6.0355">
        <ele>1381.5517578</ele>
        <time>2011-05-01T10:01:27Z</time>
      </trkpt>
      <trkpt lat="45.72789" lon="6.03547">
        <ele>1383.4743652</ele>
        <time>2011-05-01T10:01:34Z</time>
      </trkpt>
      <trkpt lat="45.72797" lon="6.03549">
        <ele>1386.3583984</ele>
        <time>2011-05-01T10:01:42Z</time>
      </trkpt>
      <trkpt lat="45.72805" lon="6.03549">
        <ele>1388.7619629</ele>
        <time>2011-05-01T10:01:48Z</time>
      </trkpt>
      <trkpt lat="45.72813" lon="6.03548">
        <ele>1391.645752</ele>
        <time>2011-05-01T10:01:55Z</time>
      </trkpt>
      <trkpt lat="45.72821" lon="6.03547">
        <ele>1393.5683594</ele>
        <time>2011-05-01T10:02:03Z</time>
      </trkpt>
      <trkpt lat="45.7283" lon="6.03546">
        <ele>1396.4523926</ele>
        <time>2011-05-01T10:02:12Z</time>
      </trkpt>
      <trkpt lat="45.72832" lon="6.03545">
        <ele>1397.4135742</ele>
        <time>2011-05-01T10:02:15Z</time>
      </trkpt>
      <trkpt lat="45.72836" lon="6.03549">
        <ele>1400.2976074</ele>
        <time>2011-05-01T10:02:20Z</time>
      </trkpt>
      <trkpt lat="45.72836" lon="6.03552">
        <ele>1401.739502</ele>
        <time>2011-05-01T10:02:22Z</time>
      </trkpt>
      <trkpt lat="45.72831" lon="6.03561">
        <ele>1404.6235352</ele>
        <time>2011-05-01T10:02:29Z</time>
      </trkpt>
      <trkpt lat="45.72823" lon="6.03571">
        <ele>1408.46875</ele>
        <time>2011-05-01T10:02:39Z</time>
      </trkpt>
      <trkpt lat="45.72814" lon="6.03585">
        <ele>1411.3527832</ele>
        <time>2011-05-01T10:02:50Z</time>
      </trkpt>
      <trkpt lat="45.72808" lon="6.03596">
        <ele>1409.9106445</ele>
        <time>2011-05-01T10:02:58Z</time>
      </trkpt>
      <trkpt lat="45.72807" lon="6.03597">
        <ele>1410.3913574</ele>
        <time>2011-05-01T10:02:59Z</time>
      </trkpt>
      <trkpt lat="45.72801" lon="6.03608">
        <ele>1409.4301758</ele>
        <time>2011-05-01T10:03:07Z</time>
      </trkpt>
      <trkpt lat="45.72798" lon="6.03621">
        <ele>1407.9882812</ele>
        <time>2011-05-01T10:03:14Z</time>
      </trkpt>
      <trkpt lat="45.72799" lon="6.03635">
        <ele>1407.5075684</ele>
        <time>2011-05-01T10:03:22Z</time>
      </trkpt>
      <trkpt lat="45.72803" lon="6.03649">
        <ele>1407.0268555</ele>
        <time>2011-05-01T10:03:29Z</time>
      </trkpt>
      <trkpt lat="45.72804" lon="6.03654">
        <ele>1407.5075684</ele>
        <time>2011-05-01T10:03:32Z</time>
      </trkpt>
      <trkpt lat="45.728" lon="6.03671">
        <ele>1407.5075684</ele>
        <time>2011-05-01T10:03:42Z</time>
      </trkpt>
      <trkpt lat="45.72801" lon="6.03685">
        <ele>1407.5075684</ele>
        <time>2011-05-01T10:03:50Z</time>
      </trkpt>
      <trkpt lat="45.72802" lon="6.037">
        <ele>1406.5461426</ele>
        <time>2011-05-01T10:03:57Z</time>
      </trkpt>
      <trkpt lat="45.72805" lon="6.03717">
        <ele>1407.5075684</ele>
        <time>2011-05-01T10:04:05Z</time>
      </trkpt>
      <trkpt lat="45.72812" lon="6.03729">
        <ele>1406.5461426</ele>
        <time>2011-05-01T10:04:12Z</time>
      </trkpt>
      <trkpt lat="45.72818" lon="6.03743">
        <ele>1405.5849609</ele>
        <time>2011-05-01T10:04:20Z</time>
      </trkpt>
      <trkpt lat="45.72824" lon="6.0376">
        <ele>1404.6235352</ele>
        <time>2011-05-01T10:04:27Z</time>
      </trkpt>
      <trkpt lat="45.7283" lon="6.03779">
        <ele>1405.104248</ele>
        <time>2011-05-01T10:04:35Z</time>
      </trkpt>
      <trkpt lat="45.72834" lon="6.03792">
        <ele>1407.0268555</ele>
        <time>2011-05-01T10:04:41Z</time>
      </trkpt>
      <trkpt lat="45.72838" lon="6.038">
        <ele>1408.9494629</ele>
        <time>2011-05-01T10:04:48Z</time>
      </trkpt>
      <trkpt lat="45.72839" lon="6.03802">
        <ele>1409.4301758</ele>
        <time>2011-05-01T10:04:54Z</time>
      </trkpt>
      <trkpt lat="45.72842" lon="6.03803">
        <ele>1413.7558594</ele>
        <time>2011-05-01T10:14:58Z</time>
      </trkpt>
      <trkpt lat="45.72843" lon="6.03803">
        <ele>1412.7946777</ele>
        <time>2011-05-01T10:15:05Z</time>
      </trkpt>
      <trkpt lat="45.72849" lon="6.03801">
        <ele>1410.8720703</ele>
        <time>2011-05-01T10:15:10Z</time>
      </trkpt>
      <trkpt lat="45.72856" lon="6.03805">
        <ele>1408.9494629</ele>
        <time>2011-05-01T10:15:15Z</time>
      </trkpt>
      <trkpt lat="45.72869" lon="6.03815">
        <ele>1406.0654297</ele>
        <time>2011-05-01T10:15:19Z</time>
      </trkpt>
      <trkpt lat="45.72892" lon="6.03827">
        <ele>1402.2199707</ele>
        <time>2011-05-01T10:15:24Z</time>
      </trkpt>
      <trkpt lat="45.729" lon="6.0383">
        <ele>1401.2587891</ele>
        <time>2011-05-01T10:15:26Z</time>
      </trkpt>
      <trkpt lat="45.72917" lon="6.03837">
        <ele>1397.8942871</ele>
        <time>2011-05-01T10:15:32Z</time>
      </trkpt>
      <trkpt lat="45.7292" lon="6.03839">
        <ele>1397.4135742</ele>
        <time>2011-05-01T10:15:36Z</time>
      </trkpt>
      <trkpt lat="45.72925" lon="6.03844">
        <ele>1395.4909668</ele>
        <time>2011-05-01T10:15:44Z</time>
      </trkpt>
      <trkpt lat="45.72938" lon="6.03861">
        <ele>1392.1264648</ele>
        <time>2011-05-01T10:15:48Z</time>
      </trkpt>
      <trkpt lat="45.72948" lon="6.03869">
        <ele>1389.7231445</ele>
        <time>2011-05-01T10:15:50Z</time>
      </trkpt>
      <trkpt lat="45.72979" lon="6.03904">
        <ele>1383.4743652</ele>
        <time>2011-05-01T10:15:56Z</time>
      </trkpt>
      <trkpt lat="45.73003" lon="6.03928">
        <ele>1377.706543</ele>
        <time>2011-05-01T10:16:00Z</time>
      </trkpt>
      <trkpt lat="45.73021" lon="6.03951">
        <ele>1372.9001465</ele>
        <time>2011-05-01T10:16:04Z</time>
      </trkpt>
      <trkpt lat="45.73043" lon="6.03972">
        <ele>1368.0932617</ele>
        <time>2011-05-01T10:16:09Z</time>
      </trkpt>
      <trkpt lat="45.73047" lon="6.03976">
        <ele>1367.6125488</ele>
        <time>2011-05-01T10:16:10Z</time>
      </trkpt>
      <trkpt lat="45.73056" lon="6.03981">
        <ele>1366.6513672</ele>
        <time>2011-05-01T10:16:12Z</time>
      </trkpt>
      <trkpt lat="45.73062" lon="6.03985">
        <ele>1365.6901855</ele>
        <time>2011-05-01T10:16:14Z</time>
      </trkpt>
      <trkpt lat="45.73067" lon="6.03986">
        <ele>1365.6901855</ele>
        <time>2011-05-01T10:16:18Z</time>
      </trkpt>
      <trkpt lat="45.7307" lon="6.03987">
        <ele>1367.6125488</ele>
        <time>2011-05-01T10:16:26Z</time>
      </trkpt>
      <trkpt lat="45.7307" lon="6.03987">
        <ele>1369.5354004</ele>
        <time>2011-05-01T10:16:34Z</time>
      </trkpt>
      <trkpt lat="45.73069" lon="6.03986">
        <ele>1373.8613281</ele>
        <time>2011-05-01T10:17:21Z</time>
      </trkpt>
      <trkpt lat="45.73071" lon="6.03983">
        <ele>1368.5739746</ele>
        <time>2011-05-01T10:17:39Z</time>
      </trkpt>
      <trkpt lat="45.73072" lon="6.03983">
        <ele>1368.0932617</ele>
        <time>2011-05-01T10:17:41Z</time>
      </trkpt>
      <trkpt lat="45.73081" lon="6.03982">
        <ele>1368.0932617</ele>
        <time>2011-05-01T10:17:47Z</time>
      </trkpt>
      <trkpt lat="45.73095" lon="6.03985">
        <ele>1367.6125488</ele>
        <time>2011-05-01T10:17:53Z</time>
      </trkpt>
      <trkpt lat="45.73112" lon="6.03994">
        <ele>1366.1706543</ele>
        <time>2011-05-01T10:17:58Z</time>
      </trkpt>
      <trkpt lat="45.73138" lon="6.04007">
        <ele>1364.2480469</ele>
        <time>2011-05-01T10:18:06Z</time>
      </trkpt>
      <trkpt lat="45.73158" lon="6.04021">
        <ele>1362.3254395</ele>
        <time>2011-05-01T10:18:11Z</time>
      </trkpt>
      <trkpt lat="45.73171" lon="6.0403">
        <ele>1361.3642578</ele>
        <time>2011-05-01T10:18:14Z</time>
      </trkpt>
      <trkpt lat="45.73198" lon="6.04047">
        <ele>1358.4802246</ele>
        <time>2011-05-01T10:18:20Z</time>
      </trkpt>
      <trkpt lat="45.73202" lon="6.04051">
        <ele>1357.519043</ele>
        <time>2011-05-01T10:18:21Z</time>
      </trkpt>
      <trkpt lat="45.73235" lon="6.04085">
        <ele>1352.2314453</ele>
        <time>2011-05-01T10:18:29Z</time>
      </trkpt>
      <trkpt lat="45.73257" lon="6.04103">
        <ele>1347.9057617</ele>
        <time>2011-05-01T10:18:33Z</time>
      </trkpt>
      <trkpt lat="45.7328" lon="6.04124">
        <ele>1344.0605469</ele>
        <time>2011-05-01T10:18:37Z</time>
      </trkpt>
      <trkpt lat="45.73297" lon="6.04138">
        <ele>1340.215332</ele>
        <time>2011-05-01T10:18:41Z</time>
      </trkpt>
      <trkpt lat="45.73305" lon="6.04145">
        <ele>1337.8117676</ele>
        <time>2011-05-01T10:18:43Z</time>
      </trkpt>
      <trkpt lat="45.73326" lon="6.04163">
        <ele>1332.0439453</ele>
        <time>2011-05-01T10:18:48Z</time>
      </trkpt>
      <trkpt lat="45.73345" lon="6.04175">
        <ele>1328.6794434</ele>
        <time>2011-05-01T10:18:52Z</time>
      </trkpt>
      <trkpt lat="45.73351" lon="6.04178">
        <ele>1327.7180176</ele>
        <time>2011-05-01T10:18:54Z</time>
      </trkpt>
      <trkpt lat="45.73353" lon="6.04177">
        <ele>1327.2375488</ele>
        <time>2011-05-01T10:18:59Z</time>
      </trkpt>
      <trkpt lat="45.73356" lon="6.04178">
        <ele>1327.7180176</ele>
        <time>2011-05-01T10:19:07Z</time>
      </trkpt>
      <trkpt lat="45.73356" lon="6.04178">
        <ele>1329.1599121</ele>
        <time>2011-05-01T10:19:18Z</time>
      </trkpt>
      <trkpt lat="45.73355" lon="6.04178">
        <ele>1328.6794434</ele>
        <time>2011-05-01T10:19:24Z</time>
      </trkpt>
      <trkpt lat="45.73357" lon="6.04178">
        <ele>1328.1987305</ele>
        <time>2011-05-01T10:19:30Z</time>
      </trkpt>
      <trkpt lat="45.73371" lon="6.04187">
        <ele>1324.3535156</ele>
        <time>2011-05-01T10:19:36Z</time>
      </trkpt>
      <trkpt lat="45.73383" lon="6.04199">
        <ele>1320.5080566</ele>
        <time>2011-05-01T10:19:40Z</time>
      </trkpt>
      <trkpt lat="45.7339" lon="6.04207">
        <ele>1317.6240234</ele>
        <time>2011-05-01T10:19:44Z</time>
      </trkpt>
      <trkpt lat="45.73401" lon="6.04213">
        <ele>1315.2209473</ele>
        <time>2011-05-01T10:19:49Z</time>
      </trkpt>
      <trkpt lat="45.73413" lon="6.04222">
        <ele>1312.3369141</ele>
        <time>2011-05-01T10:19:53Z</time>
      </trkpt>
      <trkpt lat="45.73431" lon="6.04239">
        <ele>1308.0112305</ele>
        <time>2011-05-01T10:19:58Z</time>
      </trkpt>
      <trkpt lat="45.7344" lon="6.04245">
        <ele>1307.0495605</ele>
        <time>2011-05-01T10:20:00Z</time>
      </trkpt>
      <trkpt lat="45.73468" lon="6.04265">
        <ele>1302.2429199</ele>
        <time>2011-05-01T10:20:07Z</time>
      </trkpt>
      <trkpt lat="45.73482" lon="6.04275">
        <ele>1299.3591309</ele>
        <time>2011-05-01T10:20:10Z</time>
      </trkpt>
      <trkpt lat="45.73505" lon="6.04285">
        <ele>1294.5524902</ele>
        <time>2011-05-01T10:20:15Z</time>
      </trkpt>
      <trkpt lat="45.7352" lon="6.04298">
        <ele>1290.7070312</ele>
        <time>2011-05-01T10:20:21Z</time>
      </trkpt>
      <trkpt lat="45.73522" lon="6.04302">
        <ele>1289.7458496</ele>
        <time>2011-05-01T10:20:22Z</time>
      </trkpt>
      <trkpt lat="45.73538" lon="6.04323">
        <ele>1284.9394531</ele>
        <time>2011-05-01T10:20:28Z</time>
      </trkpt>
      <trkpt lat="45.73552" lon="6.04334">
        <ele>1281.574707</ele>
        <time>2011-05-01T10:20:32Z</time>
      </trkpt>
      <trkpt lat="45.73567" lon="6.04352">
        <ele>1280.1328125</ele>
        <time>2011-05-01T10:20:37Z</time>
      </trkpt>
      <trkpt lat="45.73577" lon="6.04367">
        <ele>1278.2102051</ele>
        <time>2011-05-01T10:20:42Z</time>
      </trkpt>
      <trkpt lat="45.73579" lon="6.04368">
        <ele>1279.6520996</ele>
        <time>2011-05-01T10:20:48Z</time>
      </trkpt>
      <trkpt lat="45.73582" lon="6.04374">
        <ele>1289.7458496</ele>
        <time>2011-05-01T10:21:10Z</time>
      </trkpt>
      <trkpt lat="45.73582" lon="6.04376">
        <ele>1289.7458496</ele>
        <time>2011-05-01T10:21:11Z</time>
      </trkpt>
      <trkpt lat="45.73587" lon="6.04396">
        <ele>1285.9006348</ele>
        <time>2011-05-01T10:21:18Z</time>
      </trkpt>
      <trkpt lat="45.73596" lon="6.04419">
        <ele>1279.6520996</ele>
        <time>2011-05-01T10:21:23Z</time>
      </trkpt>
      <trkpt lat="45.73606" lon="6.04442">
        <ele>1272.4421387</ele>
        <time>2011-05-01T10:21:28Z</time>
      </trkpt>
      <trkpt lat="45.73608" lon="6.04454">
        <ele>1270.5195312</ele>
        <time>2011-05-01T10:21:30Z</time>
      </trkpt>
      <trkpt lat="45.73601" lon="6.04475">
        <ele>1268.1162109</ele>
        <time>2011-05-01T10:21:36Z</time>
      </trkpt>
      <trkpt lat="45.73593" lon="6.04488">
        <ele>1266.1936035</ele>
        <time>2011-05-01T10:21:43Z</time>
      </trkpt>
      <trkpt lat="45.73593" lon="6.04489">
        <ele>1266.1936035</ele>
        <time>2011-05-01T10:21:51Z</time>
      </trkpt>
      <trkpt lat="45.73594" lon="6.04491">
        <ele>1265.7131348</ele>
        <time>2011-05-01T10:22:00Z</time>
      </trkpt>
      <trkpt lat="45.73592" lon="6.04493">
        <ele>1265.7131348</ele>
        <time>2011-05-01T10:22:07Z</time>
      </trkpt>
      <trkpt lat="45.7359" lon="6.04496">
        <ele>1266.1936035</ele>
        <time>2011-05-01T10:22:14Z</time>
      </trkpt>
      <trkpt lat="45.73587" lon="6.04502">
        <ele>1267.1550293</ele>
        <time>2011-05-01T10:22:22Z</time>
      </trkpt>
      <trkpt lat="45.73591" lon="6.04516">
        <ele>1267.635498</ele>
        <time>2011-05-01T10:22:28Z</time>
      </trkpt>
      <trkpt lat="45.73597" lon="6.04515">
        <ele>1269.0776367</ele>
        <time>2011-05-01T10:22:33Z</time>
      </trkpt>
      <trkpt lat="45.73602" lon="6.04513">
        <ele>1270.0388184</ele>
        <time>2011-05-01T10:22:37Z</time>
      </trkpt>
      <trkpt lat="45.73614" lon="6.04514">
        <ele>1273.8840332</ele>
        <time>2011-05-01T10:22:47Z</time>
      </trkpt>
      <trkpt lat="45.73624" lon="6.04521">
        <ele>1276.2875977</ele>
        <time>2011-05-01T10:22:56Z</time>
      </trkpt>
      <trkpt lat="45.73633" lon="6.0452">
        <ele>1274.845459</ele>
        <time>2011-05-01T10:23:05Z</time>
      </trkpt>
      <trkpt lat="45.73641" lon="6.04519">
        <ele>1273.4035645</ele>
        <time>2011-05-01T10:23:11Z</time>
      </trkpt>
      <trkpt lat="45.73652" lon="6.04523">
        <ele>1272.9228516</ele>
        <time>2011-05-01T10:23:18Z</time>
      </trkpt>
      <trkpt lat="45.73664" lon="6.0453">
        <ele>1271.9614258</ele>
        <time>2011-05-01T10:23:26Z</time>
      </trkpt>
      <trkpt lat="45.73673" lon="6.04542">
        <ele>1273.4035645</ele>
        <time>2011-05-01T10:23:34Z</time>
      </trkpt>
      <trkpt lat="45.7368" lon="6.04549">
        <ele>1273.8840332</ele>
        <time>2011-05-01T10:23:40Z</time>
      </trkpt>
      <trkpt lat="45.73688" lon="6.04553">
        <ele>1273.4035645</ele>
        <time>2011-05-01T10:23:46Z</time>
      </trkpt>
      <trkpt lat="45.73702" lon="6.0456">
        <ele>1273.4035645</ele>
        <time>2011-05-01T10:23:56Z</time>
      </trkpt>
      <trkpt lat="45.73713" lon="6.04564">
        <ele>1272.4421387</ele>
        <time>2011-05-01T10:24:03Z</time>
      </trkpt>
      <trkpt lat="45.73722" lon="6.0457">
        <ele>1271.4807129</ele>
        <time>2011-05-01T10:24:09Z</time>
      </trkpt>
      <trkpt lat="45.73733" lon="6.04575">
        <ele>1271.0002441</ele>
        <time>2011-05-01T10:24:15Z</time>
      </trkpt>
      <trkpt lat="45.73745" lon="6.04583">
        <ele>1270.5195312</ele>
        <time>2011-05-01T10:24:21Z</time>
      </trkpt>
      <trkpt lat="45.73754" lon="6.04587">
        <ele>1270.5195312</ele>
        <time>2011-05-01T10:24:26Z</time>
      </trkpt>
      <trkpt lat="45.73759" lon="6.04586">
        <ele>1270.0388184</ele>
        <time>2011-05-01T10:24:32Z</time>
      </trkpt>
      <trkpt lat="45.73763" lon="6.04588">
        <ele>1275.3259277</ele>
        <time>2011-05-01T10:24:58Z</time>
      </trkpt>
      <trkpt lat="45.73771" lon="6.04596">
        <ele>1275.3259277</ele>
        <time>2011-05-01T10:25:05Z</time>
      </trkpt>
      <trkpt lat="45.73775" lon="6.04599">
        <ele>1274.845459</ele>
        <time>2011-05-01T10:25:07Z</time>
      </trkpt>
      <trkpt lat="45.73794" lon="6.04605">
        <ele>1271.9614258</ele>
        <time>2011-05-01T10:25:14Z</time>
      </trkpt>
      <trkpt lat="45.73807" lon="6.04616">
        <ele>1270.0388184</ele>
        <time>2011-05-01T10:25:19Z</time>
      </trkpt>
      <trkpt lat="45.73817" lon="6.04629">
        <ele>1268.1162109</ele>
        <time>2011-05-01T10:25:24Z</time>
      </trkpt>
      <trkpt lat="45.73818" lon="6.04629">
        <ele>1267.1550293</ele>
        <time>2011-05-01T10:25:25Z</time>
      </trkpt>
      <trkpt lat="45.73827" lon="6.04635">
        <ele>1265.2324219</ele>
        <time>2011-05-01T10:25:30Z</time>
      </trkpt>
      <trkpt lat="45.73831" lon="6.04639">
        <ele>1263.7902832</ele>
        <time>2011-05-01T10:25:35Z</time>
      </trkpt>
      <trkpt lat="45.73842" lon="6.04641">
        <ele>1265.7131348</ele>
        <time>2011-05-01T10:25:52Z</time>
      </trkpt>
      <trkpt lat="45.7384" lon="6.04642">
        <ele>1269.0776367</ele>
        <time>2011-05-01T10:26:20Z</time>
      </trkpt>
      <trkpt lat="45.73839" lon="6.04644">
        <ele>1272.4421387</ele>
        <time>2011-05-01T10:26:36Z</time>
      </trkpt>
      <trkpt lat="45.73837" lon="6.04651">
        <ele>1272.9228516</ele>
        <time>2011-05-01T10:26:50Z</time>
      </trkpt>
      <trkpt lat="45.73837" lon="6.04657">
        <ele>1269.0776367</ele>
        <time>2011-05-01T10:27:00Z</time>
      </trkpt>
      <trkpt lat="45.73834" lon="6.04665">
        <ele>1265.2324219</ele>
        <time>2011-05-01T10:27:21Z</time>
      </trkpt>
      <trkpt lat="45.73832" lon="6.0467">
        <ele>1263.7902832</ele>
        <time>2011-05-01T10:27:48Z</time>
      </trkpt>
      <trkpt lat="45.73833" lon="6.04675">
        <ele>1261.8679199</ele>
        <time>2011-05-01T10:27:52Z</time>
      </trkpt>
      <trkpt lat="45.73836" lon="6.04677">
        <ele>1262.8291016</ele>
        <time>2011-05-01T10:28:04Z</time>
      </trkpt>
      <trkpt lat="45.73836" lon="6.04677">
        <ele>1261.387207</ele>
        <time>2011-05-01T10:28:11Z</time>
      </trkpt>
      <trkpt lat="45.73837" lon="6.04678">
        <ele>1264.751709</ele>
        <time>2011-05-01T10:28:46Z</time>
      </trkpt>
      <trkpt lat="45.73837" lon="6.04686">
        <ele>1261.8679199</ele>
        <time>2011-05-01T10:29:33Z</time>
      </trkpt>
      <trkpt lat="45.73837" lon="6.04696">
        <ele>1259.4643555</ele>
        <time>2011-05-01T10:29:38Z</time>
      </trkpt>
      <trkpt lat="45.7384" lon="6.04707">
        <ele>1254.6577148</ele>
        <time>2011-05-01T10:29:44Z</time>
      </trkpt>
      <trkpt lat="45.73851" lon="6.04714">
        <ele>1248.8898926</ele>
        <time>2011-05-01T10:29:53Z</time>
      </trkpt>
      <trkpt lat="45.73855" lon="6.04717">
        <ele>1246.9672852</ele>
        <time>2011-05-01T10:30:02Z</time>
      </trkpt>
      <trkpt lat="45.73856" lon="6.04718">
        <ele>1246.9672852</ele>
        <time>2011-05-01T10:30:04Z</time>
      </trkpt>
      <trkpt lat="45.73856" lon="6.04721">
        <ele>1248.4091797</ele>
        <time>2011-05-01T10:30:09Z</time>
      </trkpt>
      <trkpt lat="45.73859" lon="6.0472">
        <ele>1247.9287109</ele>
        <time>2011-05-01T10:30:14Z</time>
      </trkpt>
      <trkpt lat="45.73862" lon="6.04729">
        <ele>1245.0446777</ele>
        <time>2011-05-01T10:30:20Z</time>
      </trkpt>
      <trkpt lat="45.73865" lon="6.04731">
        <ele>1244.0834961</ele>
        <time>2011-05-01T10:30:23Z</time>
      </trkpt>
      <trkpt lat="45.73869" lon="6.04732">
        <ele>1243.1218262</ele>
        <time>2011-05-01T10:30:26Z</time>
      </trkpt>
      <trkpt lat="45.73871" lon="6.04736">
        <ele>1241.1992188</ele>
        <time>2011-05-01T10:30:29Z</time>
      </trkpt>
      <trkpt lat="45.73877" lon="6.04742">
        <ele>1239.2766113</ele>
        <time>2011-05-01T10:30:35Z</time>
      </trkpt>
      <trkpt lat="45.73881" lon="6.04743">
        <ele>1238.3154297</ele>
        <time>2011-05-01T10:30:38Z</time>
      </trkpt>
      <trkpt lat="45.73892" lon="6.04754">
        <ele>1234.9509277</ele>
        <time>2011-05-01T10:30:45Z</time>
      </trkpt>
      <trkpt lat="45.739" lon="6.04761">
        <ele>1233.5087891</ele>
        <time>2011-05-01T10:30:52Z</time>
      </trkpt>
      <trkpt lat="45.73908" lon="6.04763">
        <ele>1231.5861816</ele>
        <time>2011-05-01T10:31:22Z</time>
      </trkpt>
      <trkpt lat="45.73908" lon="6.04765">
        <ele>1230.625</ele>
        <time>2011-05-01T10:31:24Z</time>
      </trkpt>
      <trkpt lat="45.73905" lon="6.04785">
        <ele>1227.2602539</ele>
        <time>2011-05-01T10:31:30Z</time>
      </trkpt>
      <trkpt lat="45.73906" lon="6.04807">
        <ele>1225.3374023</ele>
        <time>2011-05-01T10:31:35Z</time>
      </trkpt>
      <trkpt lat="45.73908" lon="6.04821">
        <ele>1225.3374023</ele>
        <time>2011-05-01T10:31:39Z</time>
      </trkpt>
      <trkpt lat="45.7391" lon="6.04832">
        <ele>1224.8569336</ele>
        <time>2011-05-01T10:31:44Z</time>
      </trkpt>
      <trkpt lat="45.73911" lon="6.04835">
        <ele>1225.3374023</ele>
        <time>2011-05-01T10:31:46Z</time>
      </trkpt>
      <trkpt lat="45.73911" lon="6.04843">
        <ele>1226.2988281</ele>
        <time>2011-05-01T10:31:52Z</time>
      </trkpt>
      <trkpt lat="45.73909" lon="6.04845">
        <ele>1225.3374023</ele>
        <time>2011-05-01T10:31:56Z</time>
      </trkpt>
      <trkpt lat="45.73904" lon="6.04847">
        <ele>1221.0117188</ele>
        <time>2011-05-01T10:32:00Z</time>
      </trkpt>
      <trkpt lat="45.73885" lon="6.04851">
        <ele>1214.7631836</ele>
        <time>2011-05-01T10:32:08Z</time>
      </trkpt>
      <trkpt lat="45.73878" lon="6.04852">
        <ele>1214.2824707</ele>
        <time>2011-05-01T10:32:11Z</time>
      </trkpt>
      <trkpt lat="45.73871" lon="6.04864">
        <ele>1217.6469727</ele>
        <time>2011-05-01T10:32:17Z</time>
      </trkpt>
      <trkpt lat="45.73863" lon="6.04872">
        <ele>1220.050293</ele>
        <time>2011-05-01T10:32:23Z</time>
      </trkpt>
      <trkpt lat="45.73857" lon="6.04872">
        <ele>1219.5698242</ele>
        <time>2011-05-01T10:32:26Z</time>
      </trkpt>
      <trkpt lat="45.73837" lon="6.04865">
        <ele>1217.6469727</ele>
        <time>2011-05-01T10:32:33Z</time>
      </trkpt>
      <trkpt lat="45.73824" lon="6.04866">
        <ele>1218.1276855</ele>
        <time>2011-05-01T10:32:38Z</time>
      </trkpt>
      <trkpt lat="45.73813" lon="6.04868">
        <ele>1218.1276855</ele>
        <time>2011-05-01T10:32:42Z</time>
      </trkpt>
      <trkpt lat="45.73795" lon="6.04863">
        <ele>1217.6469727</ele>
        <time>2011-05-01T10:32:49Z</time>
      </trkpt>
      <trkpt lat="45.73783" lon="6.04857">
        <ele>1215.2438965</ele>
        <time>2011-05-01T10:32:54Z</time>
      </trkpt>
      <trkpt lat="45.73766" lon="6.04848">
        <ele>1210.4370117</ele>
        <time>2011-05-01T10:32:58Z</time>
      </trkpt>
      <trkpt lat="45.73757" lon="6.04844">
        <ele>1209.4758301</ele>
        <time>2011-05-01T10:33:00Z</time>
      </trkpt>
      <trkpt lat="45.73741" lon="6.04857">
        <ele>1210.4370117</ele>
        <time>2011-05-01T10:33:06Z</time>
      </trkpt>
      <trkpt lat="45.7374" lon="6.04858">
        <ele>1210.4370117</ele>
        <time>2011-05-01T10:33:07Z</time>
      </trkpt>
      <trkpt lat="45.73735" lon="6.04869">
        <ele>1209.9562988</ele>
        <time>2011-05-01T10:33:13Z</time>
      </trkpt>
      <trkpt lat="45.73734" lon="6.04883">
        <ele>1213.8017578</ele>
        <time>2011-05-01T10:33:23Z</time>
      </trkpt>
      <trkpt lat="45.73732" lon="6.04885">
        <ele>1210.4370117</ele>
        <time>2011-05-01T10:33:34Z</time>
      </trkpt>
      <trkpt lat="45.73729" lon="6.04885">
        <ele>1206.111084</ele>
        <time>2011-05-01T10:33:42Z</time>
      </trkpt>
      <trkpt lat="45.73724" lon="6.04888">
        <ele>1201.3046875</ele>
        <time>2011-05-01T10:33:50Z</time>
      </trkpt>
      <trkpt lat="45.73719" lon="6.04893">
        <ele>1200.3435059</ele>
        <time>2011-05-01T10:33:54Z</time>
      </trkpt>
      <trkpt lat="45.73714" lon="6.04896">
        <ele>1197.4594727</ele>
        <time>2011-05-01T10:33:58Z</time>
      </trkpt>
      <trkpt lat="45.7371" lon="6.049">
        <ele>1196.9787598</ele>
        <time>2011-05-01T10:34:03Z</time>
      </trkpt>
      <trkpt lat="45.73704" lon="6.04904">
        <ele>1196.498291</ele>
        <time>2011-05-01T10:34:11Z</time>
      </trkpt>
      <trkpt lat="45.73696" lon="6.04911">
        <ele>1196.498291</ele>
        <time>2011-05-01T10:34:27Z</time>
      </trkpt>
      <trkpt lat="45.73691" lon="6.04913">
        <ele>1193.6140137</ele>
        <time>2011-05-01T10:34:32Z</time>
      </trkpt>
      <trkpt lat="45.73682" lon="6.04912">
        <ele>1189.2880859</ele>
        <time>2011-05-01T10:34:38Z</time>
      </trkpt>
      <trkpt lat="45.73665" lon="6.04908">
        <ele>1184.0009766</ele>
        <time>2011-05-01T10:34:44Z</time>
      </trkpt>
      <trkpt lat="45.73662" lon="6.04909">
        <ele>1182.559082</ele>
        <time>2011-05-01T10:34:48Z</time>
      </trkpt>
      <trkpt lat="45.73655" lon="6.04915">
        <ele>1187.3654785</ele>
        <time>2011-05-01T10:35:21Z</time>
      </trkpt>
      <trkpt lat="45.73654" lon="6.04914">
        <ele>1189.7687988</ele>
        <time>2011-05-01T10:36:22Z</time>
      </trkpt>
      <trkpt lat="45.73644" lon="6.04912">
        <ele>1186.8847656</ele>
        <time>2011-05-01T10:36:27Z</time>
      </trkpt>
      <trkpt lat="45.73632" lon="6.04906">
        <ele>1182.559082</ele>
        <time>2011-05-01T10:36:33Z</time>
      </trkpt>
      <trkpt lat="45.73613" lon="6.04901">
        <ele>1178.2329102</ele>
        <time>2011-05-01T10:36:38Z</time>
      </trkpt>
      <trkpt lat="45.73603" lon="6.04904">
        <ele>1176.3103027</ele>
        <time>2011-05-01T10:36:42Z</time>
      </trkpt>
      <trkpt lat="45.73591" lon="6.04907">
        <ele>1171.984375</ele>
        <time>2011-05-01T10:36:47Z</time>
      </trkpt>
      <trkpt lat="45.73579" lon="6.04906">
        <ele>1168.619873</ele>
        <time>2011-05-01T10:36:52Z</time>
      </trkpt>
      <trkpt lat="45.73568" lon="6.04906">
        <ele>1165.2553711</ele>
        <time>2011-05-01T10:36:57Z</time>
      </trkpt>
      <trkpt lat="45.73556" lon="6.04905">
        <ele>1160.4484863</ele>
        <time>2011-05-01T10:37:04Z</time>
      </trkpt>
      <trkpt lat="45.73553" lon="6.04903">
        <ele>1158.5258789</ele>
        <time>2011-05-01T10:37:06Z</time>
      </trkpt>
      <trkpt lat="45.73547" lon="6.04903">
        <ele>1155.6420898</ele>
        <time>2011-05-01T10:37:10Z</time>
      </trkpt>
      <trkpt lat="45.73532" lon="6.04901">
        <ele>1150.3549805</ele>
        <time>2011-05-01T10:37:17Z</time>
      </trkpt>
      <trkpt lat="45.73519" lon="6.04898">
        <ele>1146.5095215</ele>
        <time>2011-05-01T10:37:22Z</time>
      </trkpt>
      <trkpt lat="45.73517" lon="6.04898">
        <ele>1146.9899902</ele>
        <time>2011-05-01T10:37:26Z</time>
      </trkpt>
      <trkpt lat="45.7351" lon="6.04896">
        <ele>1152.2773438</ele>
        <time>2011-05-01T10:37:53Z</time>
      </trkpt>
      <trkpt lat="45.73496" lon="6.04888">
        <ele>1147.951416</ele>
        <time>2011-05-01T10:37:59Z</time>
      </trkpt>
      <trkpt lat="45.7348" lon="6.04877">
        <ele>1142.1835938</ele>
        <time>2011-05-01T10:38:06Z</time>
      </trkpt>
      <trkpt lat="45.73471" lon="6.04871">
        <ele>1139.2995605</ele>
        <time>2011-05-01T10:38:10Z</time>
      </trkpt>
      <trkpt lat="45.73461" lon="6.04871">
        <ele>1135.4543457</ele>
        <time>2011-05-01T10:38:15Z</time>
      </trkpt>
      <trkpt lat="45.73458" lon="6.04875">
        <ele>1138.8190918</ele>
        <time>2011-05-01T10:38:19Z</time>
      </trkpt>
      <trkpt lat="45.73455" lon="6.04873">
        <ele>1138.8190918</ele>
        <time>2011-05-01T10:38:22Z</time>
      </trkpt>
      <trkpt lat="45.7345" lon="6.04873">
        <ele>1144.1062012</ele>
        <time>2011-05-01T10:38:32Z</time>
      </trkpt>
      <trkpt lat="45.73441" lon="6.04871">
        <ele>1140.2609863</ele>
        <time>2011-05-01T10:38:38Z</time>
      </trkpt>
      <trkpt lat="45.73429" lon="6.04871">
        <ele>1137.857666</ele>
        <time>2011-05-01T10:38:42Z</time>
      </trkpt>
      <trkpt lat="45.73421" lon="6.04869">
        <ele>1134.973877</ele>
        <time>2011-05-01T10:38:45Z</time>
      </trkpt>
      <trkpt lat="45.73406" lon="6.04866">
        <ele>1128.7250977</ele>
        <time>2011-05-01T10:38:52Z</time>
      </trkpt>
      <trkpt lat="45.73404" lon="6.04867">
        <ele>1128.2443848</ele>
        <time>2011-05-01T10:38:53Z</time>
      </trkpt>
      <trkpt lat="45.73394" lon="6.04864">
        <ele>1125.3603516</ele>
        <time>2011-05-01T10:38:58Z</time>
      </trkpt>
      <trkpt lat="45.73379" lon="6.0486">
        <ele>1119.5927734</ele>
        <time>2011-05-01T10:39:06Z</time>
      </trkpt>
      <trkpt lat="45.73371" lon="6.04862">
        <ele>1120.0732422</ele>
        <time>2011-05-01T10:39:12Z</time>
      </trkpt>
      <trkpt lat="45.73362" lon="6.04865">
        <ele>1118.6313477</ele>
        <time>2011-05-01T10:39:17Z</time>
      </trkpt>
      <trkpt lat="45.7334" lon="6.0486">
        <ele>1116.2280273</ele>
        <time>2011-05-01T10:39:23Z</time>
      </trkpt>
      <trkpt lat="45.7332" lon="6.04856">
        <ele>1115.2666016</ele>
        <time>2011-05-01T10:39:28Z</time>
      </trkpt>
      <trkpt lat="45.73299" lon="6.04852">
        <ele>1113.8244629</ele>
        <time>2011-05-01T10:39:32Z</time>
      </trkpt>
      <trkpt lat="45.73284" lon="6.04851">
        <ele>1112.3825684</ele>
        <time>2011-05-01T10:39:36Z</time>
      </trkpt>
      <trkpt lat="45.7327" lon="6.04849">
        <ele>1111.4213867</ele>
        <time>2011-05-01T10:39:42Z</time>
      </trkpt>
      <trkpt lat="45.73267" lon="6.04855">
        <ele>1111.9020996</ele>
        <time>2011-05-01T10:39:46Z</time>
      </trkpt>
      <trkpt lat="45.73267" lon="6.0486">
        <ele>1110.9406738</ele>
        <time>2011-05-01T10:39:53Z</time>
      </trkpt>
      <trkpt lat="45.73266" lon="6.04865">
        <ele>1111.9020996</ele>
        <time>2011-05-01T10:39:59Z</time>
      </trkpt>
      <trkpt lat="45.73265" lon="6.04869">
        <ele>1113.3439941</ele>
        <time>2011-05-01T10:40:03Z</time>
      </trkpt>
      <trkpt lat="45.7327" lon="6.0488">
        <ele>1112.8632812</ele>
        <time>2011-05-01T10:40:09Z</time>
      </trkpt>
      <trkpt lat="45.73272" lon="6.04886">
        <ele>1113.8244629</ele>
        <time>2011-05-01T10:40:12Z</time>
      </trkpt>
      <trkpt lat="45.73266" lon="6.04897">
        <ele>1114.7858887</ele>
        <time>2011-05-01T10:40:19Z</time>
      </trkpt>
      <trkpt lat="45.73255" lon="6.04902">
        <ele>1110.4599609</ele>
        <time>2011-05-01T10:40:25Z</time>
      </trkpt>
      <trkpt lat="45.7325" lon="6.04901">
        <ele>1108.0568848</ele>
        <time>2011-05-01T10:40:27Z</time>
      </trkpt>
      <trkpt lat="45.73246" lon="6.04902">
        <ele>1104.6921387</ele>
        <time>2011-05-01T10:40:35Z</time>
      </trkpt>
      <trkpt lat="45.73234" lon="6.04907">
        <ele>1104.2116699</ele>
        <time>2011-05-01T10:41:43Z</time>
      </trkpt>
      <trkpt lat="45.73226" lon="6.04904">
        <ele>1102.7695312</ele>
        <time>2011-05-01T10:41:47Z</time>
      </trkpt>
      <trkpt lat="45.7321" lon="6.0491">
        <ele>1098.9240723</ele>
        <time>2011-05-01T10:41:53Z</time>
      </trkpt>
      <trkpt lat="45.73204" lon="6.04914">
        <ele>1096.0402832</ele>
        <time>2011-05-01T10:41:56Z</time>
      </trkpt>
      <trkpt lat="45.73204" lon="6.04923">
        <ele>1096.0402832</ele>
        <time>2011-05-01T10:42:01Z</time>
      </trkpt>
      <trkpt lat="45.73204" lon="6.04926">
        <ele>1097.4821777</ele>
        <time>2011-05-01T10:42:02Z</time>
      </trkpt>
      <trkpt lat="45.73209" lon="6.04935">
        <ele>1097.9628906</ele>
        <time>2011-05-01T10:42:06Z</time>
      </trkpt>
      <trkpt lat="45.7321" lon="6.04938">
        <ele>1100.8469238</ele>
        <time>2011-05-01T10:42:12Z</time>
      </trkpt>
      <trkpt lat="45.73204" lon="6.04944">
        <ele>1102.7695312</ele>
        <time>2011-05-01T10:42:45Z</time>
      </trkpt>
      <trkpt lat="45.732" lon="6.04941">
        <ele>1100.8469238</ele>
        <time>2011-05-01T10:42:50Z</time>
      </trkpt>
      <trkpt lat="45.73188" lon="6.04935">
        <ele>1096.5209961</ele>
        <time>2011-05-01T10:42:57Z</time>
      </trkpt>
      <trkpt lat="45.73175" lon="6.04938">
        <ele>1093.6369629</ele>
        <time>2011-05-01T10:43:03Z</time>
      </trkpt>
      <trkpt lat="45.73166" lon="6.04943">
        <ele>1092.6757812</ele>
        <time>2011-05-01T10:43:08Z</time>
      </trkpt>
      <trkpt lat="45.73154" lon="6.0495">
        <ele>1091.7143555</ele>
        <time>2011-05-01T10:43:15Z</time>
      </trkpt>
      <trkpt lat="45.73153" lon="6.0495">
        <ele>1092.1950684</ele>
        <time>2011-05-01T10:43:16Z</time>
      </trkpt>
      <trkpt lat="45.73152" lon="6.04958">
        <ele>1086.9077148</ele>
        <time>2011-05-01T10:43:21Z</time>
      </trkpt>
      <trkpt lat="45.73152" lon="6.04972">
        <ele>1085.4658203</ele>
        <time>2011-05-01T10:43:25Z</time>
      </trkpt>
      <trkpt lat="45.73158" lon="6.04979">
        <ele>1084.0239258</ele>
        <time>2011-05-01T10:43:28Z</time>
      </trkpt>
      <trkpt lat="45.73165" lon="6.04991">
        <ele>1083.5429688</ele>
        <time>2011-05-01T10:43:32Z</time>
      </trkpt>
      <trkpt lat="45.73179" lon="6.05001">
        <ele>1084.5046387</ele>
        <time>2011-05-01T10:43:37Z</time>
      </trkpt>
      <trkpt lat="45.73193" lon="6.05014">
        <ele>1080.1784668</ele>
        <time>2011-05-01T10:43:43Z</time>
      </trkpt>
      <trkpt lat="45.73207" lon="6.05014">
        <ele>1084.0239258</ele>
        <time>2011-05-01T10:43:48Z</time>
      </trkpt>
      <trkpt lat="45.73212" lon="6.05013">
        <ele>1084.9853516</ele>
        <time>2011-05-01T10:43:51Z</time>
      </trkpt>
      <trkpt lat="45.73223" lon="6.05015">
        <ele>1090.7529297</ele>
        <time>2011-05-01T10:43:56Z</time>
      </trkpt>
      <trkpt lat="45.73226" lon="6.05015">
        <ele>1092.6757812</ele>
        <time>2011-05-01T10:43:58Z</time>
      </trkpt>
      <trkpt lat="45.73238" lon="6.05012">
        <ele>1093.6369629</ele>
        <time>2011-05-01T10:44:05Z</time>
      </trkpt>
      <trkpt lat="45.73251" lon="6.05014">
        <ele>1094.1176758</ele>
        <time>2011-05-01T10:44:12Z</time>
      </trkpt>
      <trkpt lat="45.73254" lon="6.05015">
        <ele>1095.0788574</ele>
        <time>2011-05-01T10:44:14Z</time>
      </trkpt>
      <trkpt lat="45.73267" lon="6.05017">
        <ele>1097.9628906</ele>
        <time>2011-05-01T10:44:19Z</time>
      </trkpt>
      <trkpt lat="45.73274" lon="6.0502">
        <ele>1101.3276367</ele>
        <time>2011-05-01T10:44:22Z</time>
      </trkpt>
      <trkpt lat="45.73292" lon="6.05025">
        <ele>1103.730957</ele>
        <time>2011-05-01T10:44:29Z</time>
      </trkpt>
      <trkpt lat="45.73311" lon="6.05025">
        <ele>1105.1728516</ele>
        <time>2011-05-01T10:44:37Z</time>
      </trkpt>
      <trkpt lat="45.73317" lon="6.05026">
        <ele>1105.1728516</ele>
        <time>2011-05-01T10:44:40Z</time>
      </trkpt>
      <trkpt lat="45.73333" lon="6.05035">
        <ele>1103.2502441</ele>
        <time>2011-05-01T10:44:48Z</time>
      </trkpt>
      <trkpt lat="45.73344" lon="6.05036">
        <ele>1099.885498</ele>
        <time>2011-05-01T10:44:54Z</time>
      </trkpt>
      <trkpt lat="45.73355" lon="6.05044">
        <ele>1094.1176758</ele>
        <time>2011-05-01T10:45:00Z</time>
      </trkpt>
      <trkpt lat="45.73366" lon="6.05045">
        <ele>1092.1950684</ele>
        <time>2011-05-01T10:45:05Z</time>
      </trkpt>
      <trkpt lat="45.73375" lon="6.0504">
        <ele>1092.1950684</ele>
        <time>2011-05-01T10:45:09Z</time>
      </trkpt>
      <trkpt lat="45.73389" lon="6.05035">
        <ele>1092.6757812</ele>
        <time>2011-05-01T10:45:15Z</time>
      </trkpt>
      <trkpt lat="45.73392" lon="6.05036">
        <ele>1095.0788574</ele>
        <time>2011-05-01T10:45:18Z</time>
      </trkpt>
      <trkpt lat="45.73394" lon="6.05036">
        <ele>1093.15625</ele>
        <time>2011-05-01T10:45:30Z</time>
      </trkpt>
      <trkpt lat="45.73399" lon="6.05034">
        <ele>1094.1176758</ele>
        <time>2011-05-01T10:45:37Z</time>
      </trkpt>
      <trkpt lat="45.73404" lon="6.05037">
        <ele>1096.0402832</ele>
        <time>2011-05-01T10:45:44Z</time>
      </trkpt>
      <trkpt lat="45.73404" lon="6.05038">
        <ele>1096.5209961</ele>
        <time>2011-05-01T10:45:45Z</time>
      </trkpt>
      <trkpt lat="45.7341" lon="6.05043">
        <ele>1099.4047852</ele>
        <time>2011-05-01T10:45:53Z</time>
      </trkpt>
      <trkpt lat="45.73415" lon="6.05044">
        <ele>1098.9240723</ele>
        <time>2011-05-01T10:45:59Z</time>
      </trkpt>
      <trkpt lat="45.7342" lon="6.05044">
        <ele>1098.9240723</ele>
        <time>2011-05-01T10:46:10Z</time>
      </trkpt>
      <trkpt lat="45.73421" lon="6.05044">
        <ele>1099.4047852</ele>
        <time>2011-05-01T10:46:12Z</time>
      </trkpt>
      <trkpt lat="45.73426" lon="6.05044">
        <ele>1097.9628906</ele>
        <time>2011-05-01T10:46:18Z</time>
      </trkpt>
      <trkpt lat="45.73434" lon="6.05043">
        <ele>1097.4821777</ele>
        <time>2011-05-01T10:46:25Z</time>
      </trkpt>
      <trkpt lat="45.73447" lon="6.05044">
        <ele>1099.4047852</ele>
        <time>2011-05-01T10:46:33Z</time>
      </trkpt>
      <trkpt lat="45.73448" lon="6.05044">
        <ele>1099.885498</ele>
        <time>2011-05-01T10:46:34Z</time>
      </trkpt>
      <trkpt lat="45.73458" lon="6.05049">
        <ele>1101.8083496</ele>
        <time>2011-05-01T10:46:42Z</time>
      </trkpt>
      <trkpt lat="45.73467" lon="6.05051">
        <ele>1102.7695312</ele>
        <time>2011-05-01T10:46:48Z</time>
      </trkpt>
      <trkpt lat="45.73478" lon="6.05053">
        <ele>1103.2502441</ele>
        <time>2011-05-01T10:46:57Z</time>
      </trkpt>
      <trkpt lat="45.73481" lon="6.05053">
        <ele>1103.730957</ele>
        <time>2011-05-01T10:46:59Z</time>
      </trkpt>
      <trkpt lat="45.73489" lon="6.05055">
        <ele>1105.6535645</ele>
        <time>2011-05-01T10:47:06Z</time>
      </trkpt>
      <trkpt lat="45.73495" lon="6.05058">
        <ele>1106.1340332</ele>
        <time>2011-05-01T10:47:11Z</time>
      </trkpt>
      <trkpt lat="45.73497" lon="6.0506">
        <ele>1105.1728516</ele>
        <time>2011-05-01T10:47:13Z</time>
      </trkpt>
      <trkpt lat="45.73509" lon="6.05065">
        <ele>1105.6535645</ele>
        <time>2011-05-01T10:47:21Z</time>
      </trkpt>
      <trkpt lat="45.73518" lon="6.05069">
        <ele>1106.1340332</ele>
        <time>2011-05-01T10:47:27Z</time>
      </trkpt>
      <trkpt lat="45.73522" lon="6.0507">
        <ele>1106.1340332</ele>
        <time>2011-05-01T10:47:30Z</time>
      </trkpt>
      <trkpt lat="45.73528" lon="6.05075">
        <ele>1101.8083496</ele>
        <time>2011-05-01T10:47:43Z</time>
      </trkpt>
      <trkpt lat="45.73532" lon="6.05078">
        <ele>1101.3276367</ele>
        <time>2011-05-01T10:47:49Z</time>
      </trkpt>
      <trkpt lat="45.73537" lon="6.05085">
        <ele>1100.3664551</ele>
        <time>2011-05-01T10:48:06Z</time>
      </trkpt>
      <trkpt lat="45.73541" lon="6.05089">
        <ele>1097.9628906</ele>
        <time>2011-05-01T10:48:15Z</time>
      </trkpt>
      <trkpt lat="45.73542" lon="6.05091">
        <ele>1096.5209961</ele>
        <time>2011-05-01T10:48:22Z</time>
      </trkpt>
      <trkpt lat="45.73546" lon="6.05099">
        <ele>1095.0788574</ele>
        <time>2011-05-01T10:48:34Z</time>
      </trkpt>
      <trkpt lat="45.73555" lon="6.05105">
        <ele>1095.5595703</ele>
        <time>2011-05-01T10:49:00Z</time>
      </trkpt>
      <trkpt lat="45.73558" lon="6.05107">
        <ele>1096.0402832</ele>
        <time>2011-05-01T10:49:07Z</time>
      </trkpt>
      <trkpt lat="45.7356" lon="6.05111">
        <ele>1095.0788574</ele>
        <time>2011-05-01T10:49:20Z</time>
      </trkpt>
      <trkpt lat="45.73562" lon="6.05113">
        <ele>1095.5595703</ele>
        <time>2011-05-01T10:49:28Z</time>
      </trkpt>
      <trkpt lat="45.73563" lon="6.05123">
        <ele>1083.5429688</ele>
        <time>2011-05-01T10:50:05Z</time>
      </trkpt>
      <trkpt lat="45.73567" lon="6.05131">
        <ele>1080.1784668</ele>
        <time>2011-05-01T10:50:32Z</time>
      </trkpt>
      <trkpt lat="45.73568" lon="6.05136">
        <ele>1078.7365723</ele>
        <time>2011-05-01T10:50:42Z</time>
      </trkpt>
      <trkpt lat="45.73571" lon="6.05152">
        <ele>1071.5266113</ele>
        <time>2011-05-01T10:51:37Z</time>
      </trkpt>
      <trkpt lat="45.73573" lon="6.05151">
        <ele>1070.5654297</ele>
        <time>2011-05-01T10:51:41Z</time>
      </trkpt>
      <trkpt lat="45.73574" lon="6.05154">
        <ele>1068.1621094</ele>
        <time>2011-05-01T10:51:52Z</time>
      </trkpt>
      <trkpt lat="45.7358" lon="6.05162">
        <ele>1070.5654297</ele>
        <time>2011-05-01T10:52:28Z</time>
      </trkpt>
      <trkpt lat="45.73581" lon="6.05167">
        <ele>1069.1235352</ele>
        <time>2011-05-01T10:52:34Z</time>
      </trkpt>
      <trkpt lat="45.73582" lon="6.05173">
        <ele>1065.7587891</ele>
        <time>2011-05-01T10:52:44Z</time>
      </trkpt>
      <trkpt lat="45.73582" lon="6.05174">
        <ele>1065.2780762</ele>
        <time>2011-05-01T10:52:46Z</time>
      </trkpt>
      <trkpt lat="45.73582" lon="6.05178">
        <ele>1064.7973633</ele>
        <time>2011-05-01T10:52:55Z</time>
      </trkpt>
      <trkpt lat="45.73589" lon="6.05186">
        <ele>1068.1621094</ele>
        <time>2011-05-01T10:53:11Z</time>
      </trkpt>
      <trkpt lat="45.73591" lon="6.05189">
        <ele>1065.7587891</ele>
        <time>2011-05-01T10:53:14Z</time>
      </trkpt>
      <trkpt lat="45.73594" lon="6.05196">
        <ele>1063.8359375</ele>
        <time>2011-05-01T10:53:21Z</time>
      </trkpt>
      <trkpt lat="45.73597" lon="6.05199">
        <ele>1063.3554688</ele>
        <time>2011-05-01T10:53:24Z</time>
      </trkpt>
      <trkpt lat="45.73607" lon="6.05205">
        <ele>1062.8747559</ele>
        <time>2011-05-01T10:53:30Z</time>
      </trkpt>
      <trkpt lat="45.73611" lon="6.05207">
        <ele>1062.8747559</ele>
        <time>2011-05-01T10:53:33Z</time>
      </trkpt>
      <trkpt lat="45.73617" lon="6.05211">
        <ele>1062.394043</ele>
        <time>2011-05-01T10:53:43Z</time>
      </trkpt>
      <trkpt lat="45.73621" lon="6.05219">
        <ele>1061.9135742</ele>
        <time>2011-05-01T10:53:56Z</time>
      </trkpt>
      <trkpt lat="45.73625" lon="6.05226">
        <ele>1063.8359375</ele>
        <time>2011-05-01T10:54:02Z</time>
      </trkpt>
      <trkpt lat="45.73627" lon="6.05235">
        <ele>1061.9135742</ele>
        <time>2011-05-01T10:54:08Z</time>
      </trkpt>
      <trkpt lat="45.73626" lon="6.05242">
        <ele>1057.5876465</ele>
        <time>2011-05-01T10:54:18Z</time>
      </trkpt>
      <trkpt lat="45.73624" lon="6.05243">
        <ele>1051.8195801</ele>
        <time>2011-05-01T10:54:25Z</time>
      </trkpt>
      <trkpt lat="45.73619" lon="6.05244">
        <ele>1043.6484375</ele>
        <time>2011-05-01T10:54:33Z</time>
      </trkpt>
      <trkpt lat="45.73617" lon="6.05249">
        <ele>1039.8032227</ele>
        <time>2011-05-01T10:54:50Z</time>
      </trkpt>
      <trkpt lat="45.73616" lon="6.05255">
        <ele>1039.8032227</ele>
        <time>2011-05-01T10:54:55Z</time>
      </trkpt>
      <trkpt lat="45.73618" lon="6.05265">
        <ele>1041.2451172</ele>
        <time>2011-05-01T10:55:02Z</time>
      </trkpt>
      <trkpt lat="45.73617" lon="6.05274">
        <ele>1043.6484375</ele>
        <time>2011-05-01T10:55:10Z</time>
      </trkpt>
      <trkpt lat="45.73613" lon="6.05273">
        <ele>1040.7644043</ele>
        <time>2011-05-01T10:55:24Z</time>
      </trkpt>
      <trkpt lat="45.73607" lon="6.05273">
        <ele>1035.9577637</ele>
        <time>2011-05-01T10:55:28Z</time>
      </trkpt>
      <trkpt lat="45.73598" lon="6.05276">
        <ele>1029.7092285</ele>
        <time>2011-05-01T10:55:34Z</time>
      </trkpt>
      <trkpt lat="45.73597" lon="6.05276">
        <ele>1028.7480469</ele>
        <time>2011-05-01T10:55:35Z</time>
      </trkpt>
      <trkpt lat="45.73591" lon="6.05281">
        <ele>1022.9802246</ele>
        <time>2011-05-01T10:55:42Z</time>
      </trkpt>
      <trkpt lat="45.73587" lon="6.0529">
        <ele>1023.4609375</ele>
        <time>2011-05-01T10:55:48Z</time>
      </trkpt>
      <trkpt lat="45.73576" lon="6.05305">
        <ele>1030.6706543</ele>
        <time>2011-05-01T10:56:05Z</time>
      </trkpt>
      <trkpt lat="45.73574" lon="6.05307">
        <ele>1033.0737305</ele>
        <time>2011-05-01T10:56:15Z</time>
      </trkpt>
      <trkpt lat="45.73575" lon="6.05308">
        <ele>1032.1125488</ele>
        <time>2011-05-01T10:56:29Z</time>
      </trkpt>
      <trkpt lat="45.73572" lon="6.05316">
        <ele>1028.7480469</ele>
        <time>2011-05-01T10:57:01Z</time>
      </trkpt>
      <trkpt lat="45.73577" lon="6.05319">
        <ele>1029.7092285</ele>
        <time>2011-05-01T10:57:10Z</time>
      </trkpt>
      <trkpt lat="45.73579" lon="6.05319">
        <ele>1029.7092285</ele>
        <time>2011-05-01T10:57:13Z</time>
      </trkpt>
      <trkpt lat="45.73581" lon="6.0532">
        <ele>1029.7092285</ele>
        <time>2011-05-01T10:57:15Z</time>
      </trkpt>
      <trkpt lat="45.73593" lon="6.05326">
        <ele>1030.6706543</ele>
        <time>2011-05-01T10:57:20Z</time>
      </trkpt>
      <trkpt lat="45.73599" lon="6.05329">
        <ele>1026.3447266</ele>
        <time>2011-05-01T10:57:26Z</time>
      </trkpt>
      <trkpt lat="45.73608" lon="6.05333">
        <ele>1023.9414062</ele>
        <time>2011-05-01T10:57:33Z</time>
      </trkpt>
      <trkpt lat="45.73612" lon="6.05334">
        <ele>1021.5380859</ele>
        <time>2011-05-01T10:57:37Z</time>
      </trkpt>
      <trkpt lat="45.73618" lon="6.05337">
        <ele>1020.0961914</ele>
        <time>2011-05-01T10:57:41Z</time>
      </trkpt>
      <trkpt lat="45.7363" lon="6.05338">
        <ele>1020.5769043</ele>
        <time>2011-05-01T10:57:48Z</time>
      </trkpt>
      <trkpt lat="45.73642" lon="6.05345">
        <ele>1022.0187988</ele>
        <time>2011-05-01T10:57:55Z</time>
      </trkpt>
      <trkpt lat="45.73646" lon="6.05347">
        <ele>1023.9414062</ele>
        <time>2011-05-01T10:57:59Z</time>
      </trkpt>
      <trkpt lat="45.7365" lon="6.05349">
        <ele>1023.9414062</ele>
        <time>2011-05-01T10:58:06Z</time>
      </trkpt>
      <trkpt lat="45.73658" lon="6.05357">
        <ele>1023.9414062</ele>
        <time>2011-05-01T10:58:13Z</time>
      </trkpt>
      <trkpt lat="45.73662" lon="6.05357">
        <ele>1024.4221191</ele>
        <time>2011-05-01T10:58:16Z</time>
      </trkpt>
      <trkpt lat="45.73668" lon="6.05368">
        <ele>1025.3833008</ele>
        <time>2011-05-01T10:58:24Z</time>
      </trkpt>
      <trkpt lat="45.73669" lon="6.05372">
        <ele>1024.902832</ele>
        <time>2011-05-01T10:58:27Z</time>
      </trkpt>
      <trkpt lat="45.73666" lon="6.05387">
        <ele>1020.5769043</ele>
        <time>2011-05-01T10:58:35Z</time>
      </trkpt>
      <trkpt lat="45.73664" lon="6.05402">
        <ele>1018.6540527</ele>
        <time>2011-05-01T10:58:42Z</time>
      </trkpt>
      <trkpt lat="45.73664" lon="6.0541">
        <ele>1018.1733398</ele>
        <time>2011-05-01T10:58:48Z</time>
      </trkpt>
      <trkpt lat="45.73664" lon="6.05412">
        <ele>1016.7314453</ele>
        <time>2011-05-01T10:59:24Z</time>
      </trkpt>
      <trkpt lat="45.73665" lon="6.05413">
        <ele>1016.7314453</ele>
        <time>2011-05-01T10:59:46Z</time>
      </trkpt>
      <trkpt lat="45.73665" lon="6.05414">
        <ele>1016.7314453</ele>
        <time>2011-05-01T10:59:56Z</time>
      </trkpt>
      <trkpt lat="45.73673" lon="6.05419">
        <ele>1016.7314453</ele>
        <time>2011-05-01T11:00:03Z</time>
      </trkpt>
      <trkpt lat="45.73676" lon="6.05421">
        <ele>1016.2507324</ele>
        <time>2011-05-01T11:00:05Z</time>
      </trkpt>
      <trkpt lat="45.73688" lon="6.05425">
        <ele>1015.2895508</ele>
        <time>2011-05-01T11:00:14Z</time>
      </trkpt>
      <trkpt lat="45.73703" lon="6.05427">
        <ele>1015.7702637</ele>
        <time>2011-05-01T11:00:22Z</time>
      </trkpt>
      <trkpt lat="45.73715" lon="6.05431">
        <ele>1014.328125</ele>
        <time>2011-05-01T11:00:30Z</time>
      </trkpt>
      <trkpt lat="45.73729" lon="6.05435">
        <ele>1013.3669434</ele>
        <time>2011-05-01T11:00:39Z</time>
      </trkpt>
      <trkpt lat="45.73748" lon="6.05442">
        <ele>1015.2895508</ele>
        <time>2011-05-01T11:00:48Z</time>
      </trkpt>
      <trkpt lat="45.73764" lon="6.05448">
        <ele>1015.2895508</ele>
        <time>2011-05-01T11:00:57Z</time>
      </trkpt>
      <trkpt lat="45.73778" lon="6.05456">
        <ele>1015.7702637</ele>
        <time>2011-05-01T11:01:06Z</time>
      </trkpt>
      <trkpt lat="45.73796" lon="6.05465">
        <ele>1018.1733398</ele>
        <time>2011-05-01T11:01:15Z</time>
      </trkpt>
      <trkpt lat="45.73805" lon="6.0547">
        <ele>1017.692627</ele>
        <time>2011-05-01T11:01:22Z</time>
      </trkpt>
      <trkpt lat="45.73817" lon="6.05476">
        <ele>1017.692627</ele>
        <time>2011-05-01T11:01:30Z</time>
      </trkpt>
      <trkpt lat="45.7383" lon="6.05481">
        <ele>1017.2121582</ele>
        <time>2011-05-01T11:01:38Z</time>
      </trkpt>
      <trkpt lat="45.73843" lon="6.05486">
        <ele>1015.7702637</ele>
        <time>2011-05-01T11:01:47Z</time>
      </trkpt>
      <trkpt lat="45.73855" lon="6.05492">
        <ele>1014.8088379</ele>
        <time>2011-05-01T11:01:55Z</time>
      </trkpt>
      <trkpt lat="45.73869" lon="6.05494">
        <ele>1017.2121582</ele>
        <time>2011-05-01T11:02:02Z</time>
      </trkpt>
      <trkpt lat="45.73881" lon="6.05495">
        <ele>1019.1347656</ele>
        <time>2011-05-01T11:02:09Z</time>
      </trkpt>
      <trkpt lat="45.73886" lon="6.05493">
        <ele>1019.1347656</ele>
        <time>2011-05-01T11:02:12Z</time>
      </trkpt>
      <trkpt lat="45.73892" lon="6.05486">
        <ele>1019.6154785</ele>
        <time>2011-05-01T11:02:17Z</time>
      </trkpt>
      <trkpt lat="45.73894" lon="6.05486">
        <ele>1019.6154785</ele>
        <time>2011-05-01T11:02:18Z</time>
      </trkpt>
      <trkpt lat="45.73906" lon="6.05482">
        <ele>1019.1347656</ele>
        <time>2011-05-01T11:02:25Z</time>
      </trkpt>
      <trkpt lat="45.73921" lon="6.0548">
        <ele>1022.0187988</ele>
        <time>2011-05-01T11:02:32Z</time>
      </trkpt>
      <trkpt lat="45.7393" lon="6.0548">
        <ele>1024.4221191</ele>
        <time>2011-05-01T11:02:36Z</time>
      </trkpt>
      <trkpt lat="45.73943" lon="6.05483">
        <ele>1023.9414062</ele>
        <time>2011-05-01T11:02:42Z</time>
      </trkpt>
      <trkpt lat="45.73951" lon="6.05484">
        <ele>1024.902832</ele>
        <time>2011-05-01T11:02:45Z</time>
      </trkpt>
      <trkpt lat="45.73966" lon="6.05489">
        <ele>1027.3061523</ele>
        <time>2011-05-01T11:02:50Z</time>
      </trkpt>
      <trkpt lat="45.73978" lon="6.05495">
        <ele>1030.1899414</ele>
        <time>2011-05-01T11:02:53Z</time>
      </trkpt>
      <trkpt lat="45.73999" lon="6.05495">
        <ele>1034.5158691</ele>
        <time>2011-05-01T11:02:59Z</time>
      </trkpt>
      <trkpt lat="45.74012" lon="6.05491">
        <ele>1037.3999023</ele>
        <time>2011-05-01T11:03:04Z</time>
      </trkpt>
      <trkpt lat="45.74013" lon="6.0549">
        <ele>1037.8806152</ele>
        <time>2011-05-01T11:03:05Z</time>
      </trkpt>
      <trkpt lat="45.74018" lon="6.05487">
        <ele>1038.842041</ele>
        <time>2011-05-01T11:03:09Z</time>
      </trkpt>
      <trkpt lat="45.74023" lon="6.05482">
        <ele>1035.9577637</ele>
        <time>2011-05-01T11:03:15Z</time>
      </trkpt>
      <trkpt lat="45.7403" lon="6.0548">
        <ele>1034.5158691</ele>
        <time>2011-05-01T11:03:21Z</time>
      </trkpt>
      <trkpt lat="45.74033" lon="6.0548">
        <ele>1034.0351562</ele>
        <time>2011-05-01T11:03:23Z</time>
      </trkpt>
      <trkpt lat="45.74042" lon="6.0548">
        <ele>1032.5932617</ele>
        <time>2011-05-01T11:03:27Z</time>
      </trkpt>
      <trkpt lat="45.74067" lon="6.05483">
        <ele>1034.5158691</ele>
        <time>2011-05-01T11:03:35Z</time>
      </trkpt>
      <trkpt lat="45.74079" lon="6.05487">
        <ele>1034.5158691</ele>
        <time>2011-05-01T11:03:40Z</time>
      </trkpt>
      <trkpt lat="45.74094" lon="6.05488">
        <ele>1031.6318359</ele>
        <time>2011-05-01T11:03:46Z</time>
      </trkpt>
      <trkpt lat="45.74111" lon="6.05494">
        <ele>1034.0351562</ele>
        <time>2011-05-01T11:03:51Z</time>
      </trkpt>
      <trkpt lat="45.74125" lon="6.05496">
        <ele>1033.5544434</ele>
        <time>2011-05-01T11:03:56Z</time>
      </trkpt>
      <trkpt lat="45.74128" lon="6.05496">
        <ele>1033.5544434</ele>
        <time>2011-05-01T11:03:57Z</time>
      </trkpt>
      <trkpt lat="45.74145" lon="6.05509">
        <ele>1032.5932617</ele>
        <time>2011-05-01T11:04:03Z</time>
      </trkpt>
      <trkpt lat="45.74148" lon="6.05511">
        <ele>1033.5544434</ele>
        <time>2011-05-01T11:04:04Z</time>
      </trkpt>
      <trkpt lat="45.7416" lon="6.05518">
        <ele>1039.3225098</ele>
        <time>2011-05-01T11:04:10Z</time>
      </trkpt>
      <trkpt lat="45.7416" lon="6.05528">
        <ele>1044.6096191</ele>
        <time>2011-05-01T11:04:22Z</time>
      </trkpt>
      <trkpt lat="45.74168" lon="6.05533">
        <ele>1046.5324707</ele>
        <time>2011-05-01T11:04:30Z</time>
      </trkpt>
      <trkpt lat="45.74172" lon="6.05534">
        <ele>1047.0129395</ele>
        <time>2011-05-01T11:04:34Z</time>
      </trkpt>
      <trkpt lat="45.74178" lon="6.05534">
        <ele>1044.6096191</ele>
        <time>2011-05-01T11:04:40Z</time>
      </trkpt>
      <trkpt lat="45.7418" lon="6.05532">
        <ele>1043.1677246</ele>
        <time>2011-05-01T11:04:42Z</time>
      </trkpt>
      <trkpt lat="45.74185" lon="6.05534">
        <ele>1039.3225098</ele>
        <time>2011-05-01T11:04:48Z</time>
      </trkpt>
      <trkpt lat="45.7419" lon="6.05535">
        <ele>1037.8806152</ele>
        <time>2011-05-01T11:04:52Z</time>
      </trkpt>
      <trkpt lat="45.74195" lon="6.05537">
        <ele>1036.4387207</ele>
        <time>2011-05-01T11:04:58Z</time>
      </trkpt>
      <trkpt lat="45.74203" lon="6.05541">
        <ele>1041.2451172</ele>
        <time>2011-05-01T11:05:05Z</time>
      </trkpt>
      <trkpt lat="45.7421" lon="6.0554">
        <ele>1039.8032227</ele>
        <time>2011-05-01T11:05:10Z</time>
      </trkpt>
      <trkpt lat="45.74215" lon="6.0554">
        <ele>1039.8032227</ele>
        <time>2011-05-01T11:05:14Z</time>
      </trkpt>
      <trkpt lat="45.74225" lon="6.05543">
        <ele>1040.2839355</ele>
        <time>2011-05-01T11:05:20Z</time>
      </trkpt>
      <trkpt lat="45.74236" lon="6.05547">
        <ele>1042.6872559</ele>
        <time>2011-05-01T11:05:27Z</time>
      </trkpt>
      <trkpt lat="45.74247" lon="6.05552">
        <ele>1045.5710449</ele>
        <time>2011-05-01T11:05:32Z</time>
      </trkpt>
      <trkpt lat="45.74265" lon="6.05557">
        <ele>1051.3388672</ele>
        <time>2011-05-01T11:05:39Z</time>
      </trkpt>
      <trkpt lat="45.74271" lon="6.05558">
        <ele>1049.8969727</ele>
        <time>2011-05-01T11:05:44Z</time>
      </trkpt>
      <trkpt lat="45.74284" lon="6.0556">
        <ele>1051.3388672</ele>
        <time>2011-05-01T11:05:52Z</time>
      </trkpt>
      <trkpt lat="45.74297" lon="6.05563">
        <ele>1051.3388672</ele>
        <time>2011-05-01T11:05:59Z</time>
      </trkpt>
      <trkpt lat="45.74308" lon="6.05567">
        <ele>1051.8195801</ele>
        <time>2011-05-01T11:06:05Z</time>
      </trkpt>
      <trkpt lat="45.74323" lon="6.05567">
        <ele>1054.2231445</ele>
        <time>2011-05-01T11:06:12Z</time>
      </trkpt>
      <trkpt lat="45.74331" lon="6.05567">
        <ele>1055.1843262</ele>
        <time>2011-05-01T11:06:16Z</time>
      </trkpt>
      <trkpt lat="45.7434" lon="6.05569">
        <ele>1057.5876465</ele>
        <time>2011-05-01T11:06:21Z</time>
      </trkpt>
      <trkpt lat="45.74357" lon="6.05579">
        <ele>1060.4714355</ele>
        <time>2011-05-01T11:06:27Z</time>
      </trkpt>
      <trkpt lat="45.74367" lon="6.05588">
        <ele>1062.8747559</ele>
        <time>2011-05-01T11:06:31Z</time>
      </trkpt>
      <trkpt lat="45.74371" lon="6.05591">
        <ele>1065.2780762</ele>
        <time>2011-05-01T11:06:32Z</time>
      </trkpt>
      <trkpt lat="45.7439" lon="6.05598">
        <ele>1069.1235352</ele>
        <time>2011-05-01T11:06:37Z</time>
      </trkpt>
      <trkpt lat="45.74405" lon="6.05605">
        <ele>1072.0073242</ele>
        <time>2011-05-01T11:06:42Z</time>
      </trkpt>
      <trkpt lat="45.74409" lon="6.05608">
        <ele>1071.5266113</ele>
        <time>2011-05-01T11:06:44Z</time>
      </trkpt>
      <trkpt lat="45.74419" lon="6.05605">
        <ele>1063.8359375</ele>
        <time>2011-05-01T11:06:50Z</time>
      </trkpt>
      <trkpt lat="45.74441" lon="6.05612">
        <ele>1063.3554688</ele>
        <time>2011-05-01T11:06:56Z</time>
      </trkpt>
      <trkpt lat="45.74457" lon="6.05619">
        <ele>1062.394043</ele>
        <time>2011-05-01T11:07:00Z</time>
      </trkpt>
      <trkpt lat="45.74466" lon="6.05624">
        <ele>1062.394043</ele>
        <time>2011-05-01T11:07:03Z</time>
      </trkpt>
      <trkpt lat="45.74473" lon="6.05632">
        <ele>1060.9521484</ele>
        <time>2011-05-01T11:07:07Z</time>
      </trkpt>
      <trkpt lat="45.74487" lon="6.05643">
        <ele>1059.9907227</ele>
        <time>2011-05-01T11:07:12Z</time>
      </trkpt>
      <trkpt lat="45.7451" lon="6.05648">
        <ele>1060.4714355</ele>
        <time>2011-05-01T11:07:17Z</time>
      </trkpt>
      <trkpt lat="45.74531" lon="6.05651">
        <ele>1063.3554688</ele>
        <time>2011-05-01T11:07:21Z</time>
      </trkpt>
      <trkpt lat="45.74544" lon="6.05651">
        <ele>1061.4328613</ele>
        <time>2011-05-01T11:07:24Z</time>
      </trkpt>
      <trkpt lat="45.74556" lon="6.05656">
        <ele>1061.9135742</ele>
        <time>2011-05-01T11:07:27Z</time>
      </trkpt>
      <trkpt lat="45.7457" lon="6.05659">
        <ele>1063.3554688</ele>
        <time>2011-05-01T11:07:31Z</time>
      </trkpt>
      <trkpt lat="45.74583" lon="6.05659">
        <ele>1061.4328613</ele>
        <time>2011-05-01T11:07:35Z</time>
      </trkpt>
      <trkpt lat="45.7461" lon="6.05653">
        <ele>1062.394043</ele>
        <time>2011-05-01T11:07:42Z</time>
      </trkpt>
      <trkpt lat="45.74621" lon="6.05649">
        <ele>1062.394043</ele>
        <time>2011-05-01T11:07:46Z</time>
      </trkpt>
      <trkpt lat="45.74637" lon="6.0565">
        <ele>1059.9907227</ele>
        <time>2011-05-01T11:07:51Z</time>
      </trkpt>
      <trkpt lat="45.74648" lon="6.05652">
        <ele>1059.5102539</ele>
        <time>2011-05-01T11:07:55Z</time>
      </trkpt>
      <trkpt lat="45.74662" lon="6.05655">
        <ele>1063.3554688</ele>
        <time>2011-05-01T11:08:00Z</time>
      </trkpt>
      <trkpt lat="45.74675" lon="6.05657">
        <ele>1065.7587891</ele>
        <time>2011-05-01T11:08:04Z</time>
      </trkpt>
      <trkpt lat="45.74691" lon="6.05657">
        <ele>1067.2006836</ele>
        <time>2011-05-01T11:08:09Z</time>
      </trkpt>
      <trkpt lat="45.74704" lon="6.05659">
        <ele>1067.6811523</ele>
        <time>2011-05-01T11:08:14Z</time>
      </trkpt>
      <trkpt lat="45.74722" lon="6.05663">
        <ele>1069.1235352</ele>
        <time>2011-05-01T11:08:20Z</time>
      </trkpt>
      <trkpt lat="45.7473" lon="6.05666">
        <ele>1072.4880371</ele>
        <time>2011-05-01T11:08:25Z</time>
      </trkpt>
      <trkpt lat="45.74739" lon="6.05675">
        <ele>1072.96875</ele>
        <time>2011-05-01T11:08:33Z</time>
      </trkpt>
      <trkpt lat="45.74747" lon="6.05673">
        <ele>1071.5266113</ele>
        <time>2011-05-01T11:08:40Z</time>
      </trkpt>
      <trkpt lat="45.74752" lon="6.05675">
        <ele>1073.9299316</ele>
        <time>2011-05-01T11:08:43Z</time>
      </trkpt>
      <trkpt lat="45.74762" lon="6.05677">
        <ele>1072.96875</ele>
        <time>2011-05-01T11:08:51Z</time>
      </trkpt>
      <trkpt lat="45.74765" lon="6.05677">
        <ele>1071.5266113</ele>
        <time>2011-05-01T11:08:58Z</time>
      </trkpt>
      <trkpt lat="45.74765" lon="6.05675">
        <ele>1072.96875</ele>
        <time>2011-05-01T11:09:00Z</time>
      </trkpt>
      <trkpt lat="45.74765" lon="6.05679">
        <ele>1072.0073242</ele>
        <time>2011-05-01T11:09:03Z</time>
      </trkpt>
      <trkpt lat="45.74767" lon="6.05678">
        <ele>1069.1235352</ele>
        <time>2011-05-01T11:09:08Z</time>
      </trkpt>
      <trkpt lat="45.74769" lon="6.05676">
        <ele>1067.6811523</ele>
        <time>2011-05-01T11:09:10Z</time>
      </trkpt>
      <trkpt lat="45.74773" lon="6.05673">
        <ele>1062.394043</ele>
        <time>2011-05-01T11:09:16Z</time>
      </trkpt>
      <trkpt lat="45.74778" lon="6.05673">
        <ele>1060.9521484</ele>
        <time>2011-05-01T11:09:22Z</time>
      </trkpt>
      <trkpt lat="45.74782" lon="6.05673">
        <ele>1063.3554688</ele>
        <time>2011-05-01T11:09:31Z</time>
      </trkpt>
      <trkpt lat="45.74785" lon="6.05672">
        <ele>1065.7587891</ele>
        <time>2011-05-01T11:09:37Z</time>
      </trkpt>
      <trkpt lat="45.74788" lon="6.05675">
        <ele>1074.8913574</ele>
        <time>2011-05-01T11:09:57Z</time>
      </trkpt>
      <trkpt lat="45.74791" lon="6.05674">
        <ele>1075.3718262</ele>
        <time>2011-05-01T11:10:04Z</time>
      </trkpt>
      <trkpt lat="45.74796" lon="6.05675">
        <ele>1074.8913574</ele>
        <time>2011-05-01T11:10:12Z</time>
      </trkpt>
      <trkpt lat="45.748" lon="6.05676">
        <ele>1077.2946777</ele>
        <time>2011-05-01T11:10:16Z</time>
      </trkpt>
      <trkpt lat="45.7481" lon="6.05678">
        <ele>1077.2946777</ele>
        <time>2011-05-01T11:10:23Z</time>
      </trkpt>
      <trkpt lat="45.74819" lon="6.05673">
        <ele>1079.6977539</ele>
        <time>2011-05-01T11:10:29Z</time>
      </trkpt>
      <trkpt lat="45.74826" lon="6.05671">
        <ele>1073.4494629</ele>
        <time>2011-05-01T11:10:36Z</time>
      </trkpt>
      <trkpt lat="45.74831" lon="6.05671">
        <ele>1071.0461426</ele>
        <time>2011-05-01T11:10:39Z</time>
      </trkpt>
      <trkpt lat="45.74842" lon="6.05667">
        <ele>1068.1621094</ele>
        <time>2011-05-01T11:10:47Z</time>
      </trkpt>
      <trkpt lat="45.74844" lon="6.05667">
        <ele>1069.604248</ele>
        <time>2011-05-01T11:10:49Z</time>
      </trkpt>
      <trkpt lat="45.74849" lon="6.05669">
        <ele>1070.5654297</ele>
        <time>2011-05-01T11:10:54Z</time>
      </trkpt>
      <trkpt lat="45.74856" lon="6.05666">
        <ele>1074.4106445</ele>
        <time>2011-05-01T11:11:01Z</time>
      </trkpt>
      <trkpt lat="45.74866" lon="6.05663">
        <ele>1076.8139648</ele>
        <time>2011-05-01T11:11:07Z</time>
      </trkpt>
      <trkpt lat="45.74871" lon="6.0566">
        <ele>1078.7365723</ele>
        <time>2011-05-01T11:11:10Z</time>
      </trkpt>
      <trkpt lat="45.74879" lon="6.05656">
        <ele>1080.6591797</ele>
        <time>2011-05-01T11:11:16Z</time>
      </trkpt>
      <trkpt lat="45.74885" lon="6.05656">
        <ele>1080.6591797</ele>
        <time>2011-05-01T11:11:22Z</time>
      </trkpt>
      <trkpt lat="45.74888" lon="6.05656">
        <ele>1081.1398926</ele>
        <time>2011-05-01T11:11:24Z</time>
      </trkpt>
      <trkpt lat="45.74894" lon="6.05653">
        <ele>1082.5817871</ele>
        <time>2011-05-01T11:11:29Z</time>
      </trkpt>
      <trkpt lat="45.74901" lon="6.05644">
        <ele>1083.0622559</ele>
        <time>2011-05-01T11:11:36Z</time>
      </trkpt>
      <trkpt lat="45.74904" lon="6.05646">
        <ele>1082.5817871</ele>
        <time>2011-05-01T11:11:40Z</time>
      </trkpt>
      <trkpt lat="45.74913" lon="6.05645">
        <ele>1082.1010742</ele>
        <time>2011-05-01T11:11:47Z</time>
      </trkpt>
      <trkpt lat="45.74926" lon="6.05645">
        <ele>1082.5817871</ele>
        <time>2011-05-01T11:11:55Z</time>
      </trkpt>
      <trkpt lat="45.74932" lon="6.05645">
        <ele>1082.5817871</ele>
        <time>2011-05-01T11:12:00Z</time>
      </trkpt>
      <trkpt lat="45.74941" lon="6.05641">
        <ele>1084.5046387</ele>
        <time>2011-05-01T11:12:06Z</time>
      </trkpt>
      <trkpt lat="45.74946" lon="6.05638">
        <ele>1084.5046387</ele>
        <time>2011-05-01T11:12:10Z</time>
      </trkpt>
      <trkpt lat="45.74956" lon="6.0564">
        <ele>1085.9465332</ele>
        <time>2011-05-01T11:12:17Z</time>
      </trkpt>
      <trkpt lat="45.74957" lon="6.0564">
        <ele>1086.4272461</ele>
        <time>2011-05-01T11:12:18Z</time>
      </trkpt>
      <trkpt lat="45.74968" lon="6.05643">
        <ele>1088.8305664</ele>
        <time>2011-05-01T11:12:26Z</time>
      </trkpt>
      <trkpt lat="45.7498" lon="6.05647">
        <ele>1089.791748</ele>
        <time>2011-05-01T11:12:32Z</time>
      </trkpt>
      <trkpt lat="45.74991" lon="6.05654">
        <ele>1091.2336426</ele>
        <time>2011-05-01T11:12:37Z</time>
      </trkpt>
      <trkpt lat="45.75004" lon="6.05661">
        <ele>1094.1176758</ele>
        <time>2011-05-01T11:12:43Z</time>
      </trkpt>
      <trkpt lat="45.75015" lon="6.05666">
        <ele>1097.4821777</ele>
        <time>2011-05-01T11:12:49Z</time>
      </trkpt>
      <trkpt lat="45.75022" lon="6.05669">
        <ele>1098.9240723</ele>
        <time>2011-05-01T11:12:54Z</time>
      </trkpt>
      <trkpt lat="45.75027" lon="6.05673">
        <ele>1099.4047852</ele>
        <time>2011-05-01T11:13:02Z</time>
      </trkpt>
      <trkpt lat="45.74625" lon="6.0565">
        <ele>1061.9135742</ele>
        <time>2011-05-01T11:20:36Z</time>
      </trkpt>
      <trkpt lat="45.74615" lon="6.05647">
        <ele>1061.4328613</ele>
        <time>2011-05-01T11:20:40Z</time>
      </trkpt>
      <trkpt lat="45.74599" lon="6.0566">
        <ele>1055.6650391</ele>
        <time>2011-05-01T11:20:45Z</time>
      </trkpt>
      <trkpt lat="45.74581" lon="6.05654">
        <ele>1048.9355469</ele>
        <time>2011-05-01T11:20:50Z</time>
      </trkpt>
      <trkpt lat="45.74569" lon="6.05651">
        <ele>1047.0129395</ele>
        <time>2011-05-01T11:20:53Z</time>
      </trkpt>
      <trkpt lat="45.74552" lon="6.0565">
        <ele>1043.6484375</ele>
        <time>2011-05-01T11:20:56Z</time>
      </trkpt>
      <trkpt lat="45.74533" lon="6.05646">
        <ele>1044.1291504</ele>
        <time>2011-05-01T11:21:00Z</time>
      </trkpt>
      <trkpt lat="45.74517" lon="6.05641">
        <ele>1043.1677246</ele>
        <time>2011-05-01T11:21:04Z</time>
      </trkpt>
      <trkpt lat="45.74499" lon="6.05631">
        <ele>1045.090332</ele>
        <time>2011-05-01T11:21:08Z</time>
      </trkpt>
      <trkpt lat="45.74491" lon="6.05625">
        <ele>1047.0129395</ele>
        <time>2011-05-01T11:21:10Z</time>
      </trkpt>
      <trkpt lat="45.74468" lon="6.05616">
        <ele>1051.8195801</ele>
        <time>2011-05-01T11:21:15Z</time>
      </trkpt>
      <trkpt lat="45.74453" lon="6.05606">
        <ele>1056.1455078</ele>
        <time>2011-05-01T11:21:19Z</time>
      </trkpt>
      <trkpt lat="45.74427" lon="6.05602">
        <ele>1058.0683594</ele>
        <time>2011-05-01T11:21:25Z</time>
      </trkpt>
      <trkpt lat="45.7441" lon="6.05597">
        <ele>1061.9135742</ele>
        <time>2011-05-01T11:21:30Z</time>
      </trkpt>
      <trkpt lat="45.74408" lon="6.05599">
        <ele>1061.9135742</ele>
        <time>2011-05-01T11:21:31Z</time>
      </trkpt>
      <trkpt lat="45.74395" lon="6.05601">
        <ele>1061.9135742</ele>
        <time>2011-05-01T11:21:37Z</time>
      </trkpt>
      <trkpt lat="45.74392" lon="6.056">
        <ele>1061.4328613</ele>
        <time>2011-05-01T11:21:39Z</time>
      </trkpt>
      <trkpt lat="45.74379" lon="6.05599">
        <ele>1059.029541</ele>
        <time>2011-05-01T11:21:45Z</time>
      </trkpt>
      <trkpt lat="45.74375" lon="6.05597">
        <ele>1057.1069336</ele>
        <time>2011-05-01T11:21:47Z</time>
      </trkpt>
      <trkpt lat="45.7437" lon="6.05598">
        <ele>1055.6650391</ele>
        <time>2011-05-01T11:21:49Z</time>
      </trkpt>
      <trkpt lat="45.74364" lon="6.05596">
        <ele>1053.2617188</ele>
        <time>2011-05-01T11:21:52Z</time>
      </trkpt>
      <trkpt lat="45.74351" lon="6.05594">
        <ele>1047.4936523</ele>
        <time>2011-05-01T11:21:57Z</time>
      </trkpt>
      <trkpt lat="45.74347" lon="6.05594">
        <ele>1046.5324707</ele>
        <time>2011-05-01T11:21:58Z</time>
      </trkpt>
      <trkpt lat="45.74316" lon="6.05595">
        <ele>1040.2839355</ele>
        <time>2011-05-01T11:22:04Z</time>
      </trkpt>
      <trkpt lat="45.74289" lon="6.05604">
        <ele>1035.9577637</ele>
        <time>2011-05-01T11:22:09Z</time>
      </trkpt>
      <trkpt lat="45.74271" lon="6.05611">
        <ele>1033.0737305</ele>
        <time>2011-05-01T11:22:12Z</time>
      </trkpt>
      <trkpt lat="45.74255" lon="6.05608">
        <ele>1028.267334</ele>
        <time>2011-05-01T11:22:15Z</time>
      </trkpt>
      <trkpt lat="45.74227" lon="6.05612">
        <ele>1027.3061523</ele>
        <time>2011-05-01T11:22:19Z</time>
      </trkpt>
      <trkpt lat="45.74194" lon="6.05615">
        <ele>1023.9414062</ele>
        <time>2011-05-01T11:22:25Z</time>
      </trkpt>
      <trkpt lat="45.74167" lon="6.05625">
        <ele>1023.4609375</ele>
        <time>2011-05-01T11:22:29Z</time>
      </trkpt>
      <trkpt lat="45.74147" lon="6.05619">
        <ele>1020.5769043</ele>
        <time>2011-05-01T11:22:33Z</time>
      </trkpt>
      <trkpt lat="45.74121" lon="6.0561">
        <ele>1016.2507324</ele>
        <time>2011-05-01T11:22:38Z</time>
      </trkpt>
      <trkpt lat="45.7409" lon="6.05621">
        <ele>1010.4829102</ele>
        <time>2011-05-01T11:22:43Z</time>
      </trkpt>
      <trkpt lat="45.74064" lon="6.05646">
        <ele>1007.5991211</ele>
        <time>2011-05-01T11:22:48Z</time>
      </trkpt>
      <trkpt lat="45.74054" lon="6.05675">
        <ele>1003.2729492</ele>
        <time>2011-05-01T11:22:53Z</time>
      </trkpt>
      <trkpt lat="45.74053" lon="6.05695">
        <ele>1000.8696289</ele>
        <time>2011-05-01T11:22:55Z</time>
      </trkpt>
      <trkpt lat="45.74052" lon="6.05748">
        <ele>997.505127</ele>
        <time>2011-05-01T11:23:01Z</time>
      </trkpt>
      <trkpt lat="45.74052" lon="6.05759">
        <ele>997.0244141</ele>
        <time>2011-05-01T11:23:03Z</time>
      </trkpt>
      <trkpt lat="45.74052" lon="6.0577">
        <ele>997.0244141</ele>
        <time>2011-05-01T11:23:06Z</time>
      </trkpt>
      <trkpt lat="45.74051" lon="6.05781">
        <ele>997.0244141</ele>
        <time>2011-05-01T11:23:10Z</time>
      </trkpt>
      <trkpt lat="45.7405" lon="6.05811">
        <ele>993.6599121</ele>
        <time>2011-05-01T11:23:18Z</time>
      </trkpt>
      <trkpt lat="45.74046" lon="6.05842">
        <ele>990.2954102</ele>
        <time>2011-05-01T11:23:24Z</time>
      </trkpt>
      <trkpt lat="45.74047" lon="6.05871">
        <ele>986.9304199</ele>
        <time>2011-05-01T11:23:30Z</time>
      </trkpt>
      <trkpt lat="45.74046" lon="6.05876">
        <ele>987.8918457</ele>
        <time>2011-05-01T11:23:35Z</time>
      </trkpt>
      <trkpt lat="45.74046" lon="6.05875">
        <ele>988.3728027</ele>
        <time>2011-05-01T11:23:41Z</time>
      </trkpt>
      <trkpt lat="45.74049" lon="6.05869">
        <ele>986.9304199</ele>
        <time>2011-05-01T11:23:47Z</time>
      </trkpt>
      <trkpt lat="45.7405" lon="6.05869">
        <ele>986.9304199</ele>
        <time>2011-05-01T11:23:48Z</time>
      </trkpt>
      <trkpt lat="45.74054" lon="6.05865">
        <ele>988.3728027</ele>
        <time>2011-05-01T11:23:57Z</time>
      </trkpt>
      <trkpt lat="45.74061" lon="6.05865">
        <ele>989.3339844</ele>
        <time>2011-05-01T11:24:03Z</time>
      </trkpt>
      <trkpt lat="45.74067" lon="6.05862">
        <ele>988.8535156</ele>
        <time>2011-05-01T11:24:09Z</time>
      </trkpt>
      <trkpt lat="45.74074" lon="6.05854">
        <ele>989.3339844</ele>
        <time>2011-05-01T11:24:16Z</time>
      </trkpt>
      <trkpt lat="45.74079" lon="6.05848">
        <ele>992.2180176</ele>
        <time>2011-05-01T11:24:23Z</time>
      </trkpt>
      <trkpt lat="45.74083" lon="6.05846">
        <ele>993.1791992</ele>
        <time>2011-05-01T11:24:29Z</time>
      </trkpt>
      <trkpt lat="45.7409" lon="6.05858">
        <ele>993.6599121</ele>
        <time>2011-05-01T11:24:36Z</time>
      </trkpt>
      <trkpt lat="45.74093" lon="6.05861">
        <ele>993.6599121</ele>
        <time>2011-05-01T11:24:39Z</time>
      </trkpt>
      <trkpt lat="45.74098" lon="6.05871">
        <ele>993.6599121</ele>
        <time>2011-05-01T11:24:45Z</time>
      </trkpt>
      <trkpt lat="45.741" lon="6.05877">
        <ele>994.140625</ele>
        <time>2011-05-01T11:24:49Z</time>
      </trkpt>
      <trkpt lat="45.741" lon="6.05882">
        <ele>994.140625</ele>
        <time>2011-05-01T11:24:52Z</time>
      </trkpt>
      <trkpt lat="45.74104" lon="6.05889">
        <ele>995.1018066</ele>
        <time>2011-05-01T11:24:57Z</time>
      </trkpt>
      <trkpt lat="45.74103" lon="6.05904">
        <ele>996.0632324</ele>
        <time>2011-05-01T11:25:07Z</time>
      </trkpt>
      <trkpt lat="45.74103" lon="6.05907">
        <ele>996.0632324</ele>
        <time>2011-05-01T11:25:09Z</time>
      </trkpt>
      <trkpt lat="45.74098" lon="6.0591">
        <ele>997.0244141</ele>
        <time>2011-05-01T11:25:16Z</time>
      </trkpt>
      <trkpt lat="45.74094" lon="6.05913">
        <ele>997.0244141</ele>
        <time>2011-05-01T11:25:21Z</time>
      </trkpt>
      <trkpt lat="45.74088" lon="6.05917">
        <ele>997.9858398</ele>
        <time>2011-05-01T11:25:27Z</time>
      </trkpt>
      <trkpt lat="45.74086" lon="6.05919">
        <ele>1000.3891602</ele>
        <time>2011-05-01T11:25:29Z</time>
      </trkpt>
      <trkpt lat="45.7408" lon="6.05928">
        <ele>1000.8696289</ele>
        <time>2011-05-01T11:25:34Z</time>
      </trkpt>
      <trkpt lat="45.74072" lon="6.0594">
        <ele>1000.8696289</ele>
        <time>2011-05-01T11:25:38Z</time>
      </trkpt>
      <trkpt lat="45.74064" lon="6.05951">
        <ele>1000.3891602</ele>
        <time>2011-05-01T11:25:45Z</time>
      </trkpt>
      <trkpt lat="45.74062" lon="6.05951">
        <ele>1000.8696289</ele>
        <time>2011-05-01T11:25:46Z</time>
      </trkpt>
      <trkpt lat="45.74054" lon="6.05952">
        <ele>1005.1958008</ele>
        <time>2011-05-01T11:25:51Z</time>
      </trkpt>
      <trkpt lat="45.74047" lon="6.05951">
        <ele>1009.0410156</ele>
        <time>2011-05-01T11:25:56Z</time>
      </trkpt>
      <trkpt lat="45.74039" lon="6.05955">
        <ele>1008.5603027</ele>
        <time>2011-05-01T11:27:05Z</time>
      </trkpt>
      <trkpt lat="45.74038" lon="6.05959">
        <ele>996.0632324</ele>
        <time>2011-05-01T11:27:57Z</time>
      </trkpt>
      <trkpt lat="45.74032" lon="6.05962">
        <ele>996.5439453</ele>
        <time>2011-05-01T11:28:01Z</time>
      </trkpt>
      <trkpt lat="45.74018" lon="6.05966">
        <ele>996.5439453</ele>
        <time>2011-05-01T11:28:07Z</time>
      </trkpt>
      <trkpt lat="45.74003" lon="6.05961">
        <ele>993.1791992</ele>
        <time>2011-05-01T11:28:12Z</time>
      </trkpt>
      <trkpt lat="45.73994" lon="6.05956">
        <ele>989.8146973</ele>
        <time>2011-05-01T11:28:15Z</time>
      </trkpt>
      <trkpt lat="45.7398" lon="6.0597">
        <ele>988.3728027</ele>
        <time>2011-05-01T11:28:20Z</time>
      </trkpt>
      <trkpt lat="45.73963" lon="6.05987">
        <ele>984.5273438</ele>
        <time>2011-05-01T11:28:25Z</time>
      </trkpt>
      <trkpt lat="45.73956" lon="6.05993">
        <ele>983.565918</ele>
        <time>2011-05-01T11:28:28Z</time>
      </trkpt>
      <trkpt lat="45.73941" lon="6.05999">
        <ele>979.2399902</ele>
        <time>2011-05-01T11:28:34Z</time>
      </trkpt>
      <trkpt lat="45.7393" lon="6.06007">
        <ele>976.8369141</ele>
        <time>2011-05-01T11:28:37Z</time>
      </trkpt>
      <trkpt lat="45.73909" lon="6.06021">
        <ele>975.8754883</ele>
        <time>2011-05-01T11:28:41Z</time>
      </trkpt>
      <trkpt lat="45.73892" lon="6.06026">
        <ele>974.4335938</ele>
        <time>2011-05-01T11:28:44Z</time>
      </trkpt>
      <trkpt lat="45.73876" lon="6.06033">
        <ele>972.5109863</ele>
        <time>2011-05-01T11:28:48Z</time>
      </trkpt>
      <trkpt lat="45.73869" lon="6.06032">
        <ele>970.5881348</ele>
        <time>2011-05-01T11:28:52Z</time>
      </trkpt>
      <trkpt lat="45.73854" lon="6.06028">
        <ele>969.1462402</ele>
        <time>2011-05-01T11:28:58Z</time>
      </trkpt>
      <trkpt lat="45.73845" lon="6.06026">
        <ele>968.6655273</ele>
        <time>2011-05-01T11:29:02Z</time>
      </trkpt>
      <trkpt lat="45.73833" lon="6.06022">
        <ele>972.5109863</ele>
        <time>2011-05-01T11:29:06Z</time>
      </trkpt>
      <trkpt lat="45.73823" lon="6.06025">
        <ele>973.4724121</ele>
        <time>2011-05-01T11:29:11Z</time>
      </trkpt>
      <trkpt lat="45.73819" lon="6.06026">
        <ele>973.4724121</ele>
        <time>2011-05-01T11:29:13Z</time>
      </trkpt>
      <trkpt lat="45.73812" lon="6.06028">
        <ele>973.9528809</ele>
        <time>2011-05-01T11:29:19Z</time>
      </trkpt>
      <trkpt lat="45.73803" lon="6.0602">
        <ele>970.5881348</ele>
        <time>2011-05-01T11:29:25Z</time>
      </trkpt>
      <trkpt lat="45.73799" lon="6.06017">
        <ele>969.1462402</ele>
        <time>2011-05-01T11:29:27Z</time>
      </trkpt>
      <trkpt lat="45.73786" lon="6.06009">
        <ele>968.1848145</ele>
        <time>2011-05-01T11:29:34Z</time>
      </trkpt>
      <trkpt lat="45.73785" lon="6.06009">
        <ele>968.6655273</ele>
        <time>2011-05-01T11:29:38Z</time>
      </trkpt>
      <trkpt lat="45.73775" lon="6.06005">
        <ele>978.7595215</ele>
        <time>2011-05-01T11:29:54Z</time>
      </trkpt>
      <trkpt lat="45.73765" lon="6.06002">
        <ele>979.7207031</ele>
        <time>2011-05-01T11:30:01Z</time>
      </trkpt>
      <trkpt lat="45.73753" lon="6.05999">
        <ele>979.7207031</ele>
        <time>2011-05-01T11:30:08Z</time>
      </trkpt>
      <trkpt lat="45.73739" lon="6.05994">
        <ele>978.2788086</ele>
        <time>2011-05-01T11:30:16Z</time>
      </trkpt>
      <trkpt lat="45.7373" lon="6.05993">
        <ele>978.2788086</ele>
        <time>2011-05-01T11:30:22Z</time>
      </trkpt>
      <trkpt lat="45.73727" lon="6.05992">
        <ele>977.7980957</ele>
        <time>2011-05-01T11:30:26Z</time>
      </trkpt>
      <trkpt lat="45.73726" lon="6.05992">
        <ele>977.7980957</ele>
        <time>2011-05-01T11:30:29Z</time>
      </trkpt>
      <trkpt lat="45.73712" lon="6.0598">
        <ele>978.2788086</ele>
        <time>2011-05-01T11:30:43Z</time>
      </trkpt>
      <trkpt lat="45.73699" lon="6.05973">
        <ele>977.7980957</ele>
        <time>2011-05-01T11:30:49Z</time>
      </trkpt>
      <trkpt lat="45.73686" lon="6.05967">
        <ele>977.317627</ele>
        <time>2011-05-01T11:30:55Z</time>
      </trkpt>
      <trkpt lat="45.73684" lon="6.05966">
        <ele>977.317627</ele>
        <time>2011-05-01T11:30:56Z</time>
      </trkpt>
      <trkpt lat="45.73669" lon="6.05966">
        <ele>974.4335938</ele>
        <time>2011-05-01T11:31:02Z</time>
      </trkpt>
      <trkpt lat="45.73653" lon="6.05965">
        <ele>973.9528809</ele>
        <time>2011-05-01T11:31:06Z</time>
      </trkpt>
      <trkpt lat="45.73639" lon="6.05965">
        <ele>974.4335938</ele>
        <time>2011-05-01T11:31:10Z</time>
      </trkpt>
      <trkpt lat="45.73621" lon="6.05962">
        <ele>974.9143066</ele>
        <time>2011-05-01T11:31:15Z</time>
      </trkpt>
      <trkpt lat="45.73603" lon="6.05958">
        <ele>974.9143066</ele>
        <time>2011-05-01T11:31:20Z</time>
      </trkpt>
      <trkpt lat="45.73586" lon="6.05953">
        <ele>975.3947754</ele>
        <time>2011-05-01T11:31:25Z</time>
      </trkpt>
      <trkpt lat="45.73582" lon="6.05953">
        <ele>975.8754883</ele>
        <time>2011-05-01T11:31:26Z</time>
      </trkpt>
      <trkpt lat="45.73575" lon="6.05958">
        <ele>975.8754883</ele>
        <time>2011-05-01T11:31:30Z</time>
      </trkpt>
      <trkpt lat="45.73572" lon="6.05961">
        <ele>976.3562012</ele>
        <time>2011-05-01T11:31:35Z</time>
      </trkpt>
      <trkpt lat="45.73563" lon="6.05966">
        <ele>975.8754883</ele>
        <time>2011-05-01T11:31:45Z</time>
      </trkpt>
      <trkpt lat="45.73558" lon="6.05967">
        <ele>975.8754883</ele>
        <time>2011-05-01T11:31:51Z</time>
      </trkpt>
      <trkpt lat="45.73554" lon="6.0597">
        <ele>976.8369141</ele>
        <time>2011-05-01T11:31:58Z</time>
      </trkpt>
      <trkpt lat="45.73549" lon="6.05972">
        <ele>977.317627</ele>
        <time>2011-05-01T11:32:04Z</time>
      </trkpt>
      <trkpt lat="45.73534" lon="6.05976">
        <ele>977.7980957</ele>
        <time>2011-05-01T11:32:09Z</time>
      </trkpt>
      <trkpt lat="45.73514" lon="6.05977">
        <ele>978.2788086</ele>
        <time>2011-05-01T11:32:15Z</time>
      </trkpt>
      <trkpt lat="45.73504" lon="6.05974">
        <ele>977.7980957</ele>
        <time>2011-05-01T11:32:18Z</time>
      </trkpt>
      <trkpt lat="45.73491" lon="6.05986">
        <ele>978.2788086</ele>
        <time>2011-05-01T11:32:22Z</time>
      </trkpt>
      <trkpt lat="45.73475" lon="6.05993">
        <ele>977.7980957</ele>
        <time>2011-05-01T11:32:27Z</time>
      </trkpt>
      <trkpt lat="45.73458" lon="6.05996">
        <ele>976.8369141</ele>
        <time>2011-05-01T11:32:32Z</time>
      </trkpt>
      <trkpt lat="45.73437" lon="6.06">
        <ele>976.3562012</ele>
        <time>2011-05-01T11:32:37Z</time>
      </trkpt>
      <trkpt lat="45.73419" lon="6.06006">
        <ele>975.8754883</ele>
        <time>2011-05-01T11:32:43Z</time>
      </trkpt>
      <trkpt lat="45.73409" lon="6.06008">
        <ele>977.7980957</ele>
        <time>2011-05-01T11:32:50Z</time>
      </trkpt>
      <trkpt lat="45.73394" lon="6.06009">
        <ele>982.6047363</ele>
        <time>2011-05-01T11:32:57Z</time>
      </trkpt>
      <trkpt lat="45.73393" lon="6.06009">
        <ele>982.6047363</ele>
        <time>2011-05-01T11:33:00Z</time>
      </trkpt>
      <trkpt lat="45.73375" lon="6.0601">
        <ele>982.1240234</ele>
        <time>2011-05-01T11:33:10Z</time>
      </trkpt>
      <trkpt lat="45.73364" lon="6.06012">
        <ele>982.6047363</ele>
        <time>2011-05-01T11:33:15Z</time>
      </trkpt>
      <trkpt lat="45.73351" lon="6.06012">
        <ele>982.6047363</ele>
        <time>2011-05-01T11:33:21Z</time>
      </trkpt>
      <trkpt lat="45.73341" lon="6.06014">
        <ele>985.9692383</ele>
        <time>2011-05-01T11:33:26Z</time>
      </trkpt>
      <trkpt lat="45.73333" lon="6.06012">
        <ele>990.2954102</ele>
        <time>2011-05-01T11:33:32Z</time>
      </trkpt>
      <trkpt lat="45.73331" lon="6.06013">
        <ele>990.2954102</ele>
        <time>2011-05-01T11:33:34Z</time>
      </trkpt>
      <trkpt lat="45.73329" lon="6.06011">
        <ele>994.140625</ele>
        <time>2011-05-01T11:33:37Z</time>
      </trkpt>
      <trkpt lat="45.73327" lon="6.06012">
        <ele>993.1791992</ele>
        <time>2011-05-01T11:33:42Z</time>
      </trkpt>
      <trkpt lat="45.73313" lon="6.06009">
        <ele>985.0080566</ele>
        <time>2011-05-01T11:34:02Z</time>
      </trkpt>
      <trkpt lat="45.73302" lon="6.06006">
        <ele>982.6047363</ele>
        <time>2011-05-01T11:34:08Z</time>
      </trkpt>
      <trkpt lat="45.73282" lon="6.06003">
        <ele>981.1628418</ele>
        <time>2011-05-01T11:34:15Z</time>
      </trkpt>
      <trkpt lat="45.73259" lon="6.06">
        <ele>978.7595215</ele>
        <time>2011-05-01T11:34:22Z</time>
      </trkpt>
      <trkpt lat="45.73245" lon="6.05993">
        <ele>978.2788086</ele>
        <time>2011-05-01T11:34:27Z</time>
      </trkpt>
      <trkpt lat="45.73223" lon="6.0599">
        <ele>978.2788086</ele>
        <time>2011-05-01T11:34:34Z</time>
      </trkpt>
      <trkpt lat="45.73203" lon="6.0598">
        <ele>979.7207031</ele>
        <time>2011-05-01T11:34:41Z</time>
      </trkpt>
      <trkpt lat="45.73177" lon="6.05969">
        <ele>980.201416</ele>
        <time>2011-05-01T11:34:50Z</time>
      </trkpt>
      <trkpt lat="45.73161" lon="6.05955">
        <ele>979.7207031</ele>
        <time>2011-05-01T11:34:58Z</time>
      </trkpt>
      <trkpt lat="45.73143" lon="6.05933">
        <ele>978.2788086</ele>
        <time>2011-05-01T11:35:07Z</time>
      </trkpt>
      <trkpt lat="45.73132" lon="6.05917">
        <ele>977.7980957</ele>
        <time>2011-05-01T11:35:14Z</time>
      </trkpt>
      <trkpt lat="45.73118" lon="6.05914">
        <ele>980.201416</ele>
        <time>2011-05-01T11:35:19Z</time>
      </trkpt>
      <trkpt lat="45.73107" lon="6.0591">
        <ele>979.7207031</ele>
        <time>2011-05-01T11:35:23Z</time>
      </trkpt>
      <trkpt lat="45.73095" lon="6.05905">
        <ele>979.7207031</ele>
        <time>2011-05-01T11:35:29Z</time>
      </trkpt>
      <trkpt lat="45.73084" lon="6.05905">
        <ele>981.6433105</ele>
        <time>2011-05-01T11:35:35Z</time>
      </trkpt>
      <trkpt lat="45.73081" lon="6.05907">
        <ele>984.0466309</ele>
        <time>2011-05-01T11:35:37Z</time>
      </trkpt>
      <trkpt lat="45.73072" lon="6.05919">
        <ele>984.5273438</ele>
        <time>2011-05-01T11:35:43Z</time>
      </trkpt>
      <trkpt lat="45.73071" lon="6.05923">
        <ele>985.0080566</ele>
        <time>2011-05-01T11:35:45Z</time>
      </trkpt>
      <trkpt lat="45.7306" lon="6.05927">
        <ele>986.4499512</ele>
        <time>2011-05-01T11:35:51Z</time>
      </trkpt>
      <trkpt lat="45.7305" lon="6.05929">
        <ele>989.8146973</ele>
        <time>2011-05-01T11:35:57Z</time>
      </trkpt>
      <trkpt lat="45.73044" lon="6.0593">
        <ele>995.5825195</ele>
        <time>2011-05-01T11:36:03Z</time>
      </trkpt>
      <trkpt lat="45.73043" lon="6.05931">
        <ele>997.505127</ele>
        <time>2011-05-01T11:36:04Z</time>
      </trkpt>
      <trkpt lat="45.73036" lon="6.05939">
        <ele>1001.8310547</ele>
        <time>2011-05-01T11:36:12Z</time>
      </trkpt>
      <trkpt lat="45.73037" lon="6.05945">
        <ele>1005.1958008</ele>
        <time>2011-05-01T11:36:16Z</time>
      </trkpt>
      <trkpt lat="45.73032" lon="6.05952">
        <ele>1012.4055176</ele>
        <time>2011-05-01T11:36:25Z</time>
      </trkpt>
      <trkpt lat="45.73033" lon="6.05952">
        <ele>1012.8862305</ele>
        <time>2011-05-01T11:36:27Z</time>
      </trkpt>
      <trkpt lat="45.73042" lon="6.05939">
        <ele>1018.6540527</ele>
        <time>2011-05-01T11:36:38Z</time>
      </trkpt>
      <trkpt lat="45.73045" lon="6.05953">
        <ele>1014.328125</ele>
        <time>2011-05-01T11:36:43Z</time>
      </trkpt>
      <trkpt lat="45.73045" lon="6.05967">
        <ele>1013.3669434</ele>
        <time>2011-05-01T11:36:48Z</time>
      </trkpt>
      <trkpt lat="45.7304" lon="6.05983">
        <ele>1012.8862305</ele>
        <time>2011-05-01T11:36:53Z</time>
      </trkpt>
      <trkpt lat="45.73038" lon="6.05996">
        <ele>1014.328125</ele>
        <time>2011-05-01T11:36:58Z</time>
      </trkpt>
      <trkpt lat="45.73035" lon="6.06005">
        <ele>1009.5217285</ele>
        <time>2011-05-01T11:37:00Z</time>
      </trkpt>
      <trkpt lat="45.73033" lon="6.06013">
        <ele>1006.1569824</ele>
        <time>2011-05-01T11:37:02Z</time>
      </trkpt>
      <trkpt lat="45.73019" lon="6.0603">
        <ele>996.5439453</ele>
        <time>2011-05-01T11:37:09Z</time>
      </trkpt>
      <trkpt lat="45.73005" lon="6.06042">
        <ele>996.5439453</ele>
        <time>2011-05-01T11:37:16Z</time>
      </trkpt>
      <trkpt lat="45.72994" lon="6.06052">
        <ele>998.4663086</ele>
        <time>2011-05-01T11:37:22Z</time>
      </trkpt>
      <trkpt lat="45.72988" lon="6.06058">
        <ele>999.4277344</ele>
        <time>2011-05-01T11:37:26Z</time>
      </trkpt>
      <trkpt lat="45.72976" lon="6.06068">
        <ele>999.9084473</ele>
        <time>2011-05-01T11:37:33Z</time>
      </trkpt>
      <trkpt lat="45.72967" lon="6.06076">
        <ele>999.4277344</ele>
        <time>2011-05-01T11:37:37Z</time>
      </trkpt>
      <trkpt lat="45.72954" lon="6.06088">
        <ele>1000.8696289</ele>
        <time>2011-05-01T11:37:43Z</time>
      </trkpt>
      <trkpt lat="45.72941" lon="6.06103">
        <ele>1002.7922363</ele>
        <time>2011-05-01T11:37:49Z</time>
      </trkpt>
      <trkpt lat="45.72938" lon="6.06105">
        <ele>1002.7922363</ele>
        <time>2011-05-01T11:37:51Z</time>
      </trkpt>
      <trkpt lat="45.72933" lon="6.06122">
        <ele>1002.3115234</ele>
        <time>2011-05-01T11:37:57Z</time>
      </trkpt>
      <trkpt lat="45.72924" lon="6.06131">
        <ele>1004.2346191</ele>
        <time>2011-05-01T11:38:00Z</time>
      </trkpt>
      <trkpt lat="45.72917" lon="6.06136">
        <ele>1004.2346191</ele>
        <time>2011-05-01T11:38:02Z</time>
      </trkpt>
      <trkpt lat="45.729" lon="6.06146">
        <ele>1004.2346191</ele>
        <time>2011-05-01T11:38:07Z</time>
      </trkpt>
      <trkpt lat="45.72895" lon="6.06148">
        <ele>1004.2346191</ele>
        <time>2011-05-01T11:38:08Z</time>
      </trkpt>
      <trkpt lat="45.72866" lon="6.06156">
        <ele>1000.3891602</ele>
        <time>2011-05-01T11:38:15Z</time>
      </trkpt>
      <trkpt lat="45.72858" lon="6.06157">
        <ele>999.9084473</ele>
        <time>2011-05-01T11:38:17Z</time>
      </trkpt>
      <trkpt lat="45.72851" lon="6.06158">
        <ele>998.4663086</ele>
        <time>2011-05-01T11:38:19Z</time>
      </trkpt>
      <trkpt lat="45.72835" lon="6.06162">
        <ele>998.4663086</ele>
        <time>2011-05-01T11:38:23Z</time>
      </trkpt>
      <trkpt lat="45.72816" lon="6.06167">
        <ele>997.0244141</ele>
        <time>2011-05-01T11:38:28Z</time>
      </trkpt>
      <trkpt lat="45.72807" lon="6.06166">
        <ele>994.140625</ele>
        <time>2011-05-01T11:38:30Z</time>
      </trkpt>
      <trkpt lat="45.72789" lon="6.06165">
        <ele>993.1791992</ele>
        <time>2011-05-01T11:38:35Z</time>
      </trkpt>
      <trkpt lat="45.72776" lon="6.06155">
        <ele>992.6987305</ele>
        <time>2011-05-01T11:38:39Z</time>
      </trkpt>
      <trkpt lat="45.72754" lon="6.06145">
        <ele>994.6210938</ele>
        <time>2011-05-01T11:38:45Z</time>
      </trkpt>
      <trkpt lat="45.72739" lon="6.06138">
        <ele>998.4663086</ele>
        <time>2011-05-01T11:38:51Z</time>
      </trkpt>
      <trkpt lat="45.72728" lon="6.06134">
        <ele>997.9858398</ele>
        <time>2011-05-01T11:38:57Z</time>
      </trkpt>
      <trkpt lat="45.72712" lon="6.0613">
        <ele>997.0244141</ele>
        <time>2011-05-01T11:39:02Z</time>
      </trkpt>
      <trkpt lat="45.72696" lon="6.06126">
        <ele>1001.3503418</ele>
        <time>2011-05-01T11:39:07Z</time>
      </trkpt>
      <trkpt lat="45.72681" lon="6.0613">
        <ele>1003.7536621</ele>
        <time>2011-05-01T11:39:11Z</time>
      </trkpt>
      <trkpt lat="45.72663" lon="6.06138">
        <ele>1002.3115234</ele>
        <time>2011-05-01T11:39:16Z</time>
      </trkpt>
      <trkpt lat="45.72639" lon="6.06143">
        <ele>1001.3503418</ele>
        <time>2011-05-01T11:39:22Z</time>
      </trkpt>
      <trkpt lat="45.72628" lon="6.06147">
        <ele>1001.3503418</ele>
        <time>2011-05-01T11:39:25Z</time>
      </trkpt>
      <trkpt lat="45.72618" lon="6.06144">
        <ele>1000.8696289</ele>
        <time>2011-05-01T11:39:27Z</time>
      </trkpt>
      <trkpt lat="45.72605" lon="6.0614">
        <ele>998.4663086</ele>
        <time>2011-05-01T11:39:30Z</time>
      </trkpt>
      <trkpt lat="45.72587" lon="6.06147">
        <ele>997.505127</ele>
        <time>2011-05-01T11:39:35Z</time>
      </trkpt>
      <trkpt lat="45.7258" lon="6.06151">
        <ele>997.0244141</ele>
        <time>2011-05-01T11:39:37Z</time>
      </trkpt>
      <trkpt lat="45.72564" lon="6.06169">
        <ele>993.6599121</ele>
        <time>2011-05-01T11:39:43Z</time>
      </trkpt>
      <trkpt lat="45.72549" lon="6.06188">
        <ele>992.2180176</ele>
        <time>2011-05-01T11:39:48Z</time>
      </trkpt>
      <trkpt lat="45.72527" lon="6.06196">
        <ele>991.7373047</ele>
        <time>2011-05-01T11:39:52Z</time>
      </trkpt>
      <trkpt lat="45.72522" lon="6.06197">
        <ele>991.2565918</ele>
        <time>2011-05-01T11:39:53Z</time>
      </trkpt>
      <trkpt lat="45.72507" lon="6.06205">
        <ele>992.2180176</ele>
        <time>2011-05-01T11:39:57Z</time>
      </trkpt>
      <trkpt lat="45.72487" lon="6.06226">
        <ele>993.1791992</ele>
        <time>2011-05-01T11:40:03Z</time>
      </trkpt>
      <trkpt lat="45.72479" lon="6.06241">
        <ele>993.6599121</ele>
        <time>2011-05-01T11:40:05Z</time>
      </trkpt>
      <trkpt lat="45.72464" lon="6.0624">
        <ele>991.7373047</ele>
        <time>2011-05-01T11:40:09Z</time>
      </trkpt>
      <trkpt lat="45.72435" lon="6.06237">
        <ele>991.7373047</ele>
        <time>2011-05-01T11:40:15Z</time>
      </trkpt>
      <trkpt lat="45.72416" lon="6.06243">
        <ele>993.6599121</ele>
        <time>2011-05-01T11:40:19Z</time>
      </trkpt>
      <trkpt lat="45.72409" lon="6.06241">
        <ele>1000.3891602</ele>
        <time>2011-05-01T11:40:25Z</time>
      </trkpt>
      <trkpt lat="45.72401" lon="6.06256">
        <ele>997.505127</ele>
        <time>2011-05-01T11:40:34Z</time>
      </trkpt>
      <trkpt lat="45.72394" lon="6.06266">
        <ele>994.6210938</ele>
        <time>2011-05-01T11:40:38Z</time>
      </trkpt>
      <trkpt lat="45.7238" lon="6.06281">
        <ele>992.2180176</ele>
        <time>2011-05-01T11:40:42Z</time>
      </trkpt>
      <trkpt lat="45.72368" lon="6.06287">
        <ele>989.3339844</ele>
        <time>2011-05-01T11:40:45Z</time>
      </trkpt>
      <trkpt lat="45.72357" lon="6.06293">
        <ele>986.4499512</ele>
        <time>2011-05-01T11:40:48Z</time>
      </trkpt>
      <trkpt lat="45.72343" lon="6.06305">
        <ele>984.0466309</ele>
        <time>2011-05-01T11:40:52Z</time>
      </trkpt>
      <trkpt lat="45.72311" lon="6.06323">
        <ele>978.2788086</ele>
        <time>2011-05-01T11:40:59Z</time>
      </trkpt>
      <trkpt lat="45.72307" lon="6.06325">
        <ele>977.7980957</ele>
        <time>2011-05-01T11:41:00Z</time>
      </trkpt>
      <trkpt lat="45.72288" lon="6.06335">
        <ele>977.317627</ele>
        <time>2011-05-01T11:41:04Z</time>
      </trkpt>
      <trkpt lat="45.72256" lon="6.06353">
        <ele>974.9143066</ele>
        <time>2011-05-01T11:41:10Z</time>
      </trkpt>
      <trkpt lat="45.72239" lon="6.06366">
        <ele>973.9528809</ele>
        <time>2011-05-01T11:41:14Z</time>
      </trkpt>
      <trkpt lat="45.72222" lon="6.06387">
        <ele>971.5493164</ele>
        <time>2011-05-01T11:41:18Z</time>
      </trkpt>
      <trkpt lat="45.72193" lon="6.06407">
        <ele>970.1074219</ele>
        <time>2011-05-01T11:41:24Z</time>
      </trkpt>
      <trkpt lat="45.7216" lon="6.06418">
        <ele>970.1074219</ele>
        <time>2011-05-01T11:41:30Z</time>
      </trkpt>
      <trkpt lat="45.72147" lon="6.0642">
        <ele>968.6655273</ele>
        <time>2011-05-01T11:41:32Z</time>
      </trkpt>
      <trkpt lat="45.72132" lon="6.06405">
        <ele>964.8203125</ele>
        <time>2011-05-01T11:41:36Z</time>
      </trkpt>
      <trkpt lat="45.72117" lon="6.06374">
        <ele>960.0136719</ele>
        <time>2011-05-01T11:41:42Z</time>
      </trkpt>
      <trkpt lat="45.72107" lon="6.0636">
        <ele>959.0524902</ele>
        <time>2011-05-01T11:41:45Z</time>
      </trkpt>
      <trkpt lat="45.72094" lon="6.06352">
        <ele>959.5332031</ele>
        <time>2011-05-01T11:41:50Z</time>
      </trkpt>
      <trkpt lat="45.72092" lon="6.06342">
        <ele>959.0524902</ele>
        <time>2011-05-01T11:41:54Z</time>
      </trkpt>
      <trkpt lat="45.72088" lon="6.06332">
        <ele>959.5332031</ele>
        <time>2011-05-01T11:41:59Z</time>
      </trkpt>
      <trkpt lat="45.72088" lon="6.06329">
        <ele>959.5332031</ele>
        <time>2011-05-01T11:42:00Z</time>
      </trkpt>
      <trkpt lat="45.72082" lon="6.06311">
        <ele>959.0524902</ele>
        <time>2011-05-01T11:42:08Z</time>
      </trkpt>
      <trkpt lat="45.72074" lon="6.06286">
        <ele>964.3395996</ele>
        <time>2011-05-01T11:42:18Z</time>
      </trkpt>
      <trkpt lat="45.72069" lon="6.0627">
        <ele>966.262207</ele>
        <time>2011-05-01T11:42:24Z</time>
      </trkpt>
      <trkpt lat="45.72062" lon="6.0625">
        <ele>967.7041016</ele>
        <time>2011-05-01T11:42:32Z</time>
      </trkpt>
      <trkpt lat="45.72056" lon="6.06232">
        <ele>969.6269531</ele>
        <time>2011-05-01T11:42:39Z</time>
      </trkpt>
      <trkpt lat="45.72047" lon="6.06205">
        <ele>972.5109863</ele>
        <time>2011-05-01T11:42:49Z</time>
      </trkpt>
      <trkpt lat="45.72039" lon="6.06193">
        <ele>977.7980957</ele>
        <time>2011-05-01T11:42:56Z</time>
      </trkpt>
      <trkpt lat="45.72026" lon="6.0618">
        <ele>986.9304199</ele>
        <time>2011-05-01T11:43:04Z</time>
      </trkpt>
      <trkpt lat="45.7202" lon="6.06177">
        <ele>989.8146973</ele>
        <time>2011-05-01T11:43:09Z</time>
      </trkpt>
      <trkpt lat="45.72012" lon="6.06172">
        <ele>988.3728027</ele>
        <time>2011-05-01T11:43:15Z</time>
      </trkpt>
      <trkpt lat="45.72004" lon="6.06162">
        <ele>984.5273438</ele>
        <time>2011-05-01T11:43:21Z</time>
      </trkpt>
      <trkpt lat="45.71994" lon="6.06156">
        <ele>984.0466309</ele>
        <time>2011-05-01T11:43:28Z</time>
      </trkpt>
      <trkpt lat="45.71981" lon="6.06146">
        <ele>985.4885254</ele>
        <time>2011-05-01T11:43:36Z</time>
      </trkpt>
      <trkpt lat="45.71966" lon="6.06133">
        <ele>989.3339844</ele>
        <time>2011-05-01T11:43:45Z</time>
      </trkpt>
      <trkpt lat="45.71953" lon="6.06119">
        <ele>988.8535156</ele>
        <time>2011-05-01T11:43:52Z</time>
      </trkpt>
      <trkpt lat="45.71942" lon="6.061">
        <ele>989.3339844</ele>
        <time>2011-05-01T11:44:00Z</time>
      </trkpt>
      <trkpt lat="45.71935" lon="6.06086">
        <ele>988.3728027</ele>
        <time>2011-05-01T11:44:06Z</time>
      </trkpt>
      <trkpt lat="45.71924" lon="6.06062">
        <ele>986.9304199</ele>
        <time>2011-05-01T11:44:16Z</time>
      </trkpt>
      <trkpt lat="45.71907" lon="6.06041">
        <ele>983.565918</ele>
        <time>2011-05-01T11:44:28Z</time>
      </trkpt>
      <trkpt lat="45.71899" lon="6.06027">
        <ele>984.5273438</ele>
        <time>2011-05-01T11:44:35Z</time>
      </trkpt>
      <trkpt lat="45.7189" lon="6.06009">
        <ele>985.0080566</ele>
        <time>2011-05-01T11:44:44Z</time>
      </trkpt>
      <trkpt lat="45.71882" lon="6.05997">
        <ele>983.565918</ele>
        <time>2011-05-01T11:44:51Z</time>
      </trkpt>
      <trkpt lat="45.71877" lon="6.05986">
        <ele>987.8918457</ele>
        <time>2011-05-01T11:44:56Z</time>
      </trkpt>
      <trkpt lat="45.71873" lon="6.05976">
        <ele>989.8146973</ele>
        <time>2011-05-01T11:45:01Z</time>
      </trkpt>
      <trkpt lat="45.71867" lon="6.0596">
        <ele>993.1791992</ele>
        <time>2011-05-01T11:45:07Z</time>
      </trkpt>
      <trkpt lat="45.71857" lon="6.05932">
        <ele>1001.3503418</ele>
        <time>2011-05-01T11:45:16Z</time>
      </trkpt>
      <trkpt lat="45.7185" lon="6.05918">
        <ele>1002.3115234</ele>
        <time>2011-05-01T11:45:23Z</time>
      </trkpt>
      <trkpt lat="45.71842" lon="6.05896">
        <ele>1007.5991211</ele>
        <time>2011-05-01T11:45:32Z</time>
      </trkpt>
      <trkpt lat="45.71836" lon="6.05882">
        <ele>1006.6376953</ele>
        <time>2011-05-01T11:45:40Z</time>
      </trkpt>
      <trkpt lat="45.71829" lon="6.0587">
        <ele>1008.5603027</ele>
        <time>2011-05-01T11:45:46Z</time>
      </trkpt>
      <trkpt lat="45.7182" lon="6.05855">
        <ele>1008.5603027</ele>
        <time>2011-05-01T11:45:54Z</time>
      </trkpt>
      <trkpt lat="45.71813" lon="6.05839">
        <ele>1006.6376953</ele>
        <time>2011-05-01T11:46:02Z</time>
      </trkpt>
      <trkpt lat="45.71806" lon="6.05823">
        <ele>1008.5603027</ele>
        <time>2011-05-01T11:46:09Z</time>
      </trkpt>
      <trkpt lat="45.71801" lon="6.05807">
        <ele>1008.079834</ele>
        <time>2011-05-01T11:46:16Z</time>
      </trkpt>
      <trkpt lat="45.71789" lon="6.05788">
        <ele>1014.8088379</ele>
        <time>2011-05-01T11:46:24Z</time>
      </trkpt>
      <trkpt lat="45.71781" lon="6.05775">
        <ele>1015.7702637</ele>
        <time>2011-05-01T11:46:32Z</time>
      </trkpt>
      <trkpt lat="45.71772" lon="6.05763">
        <ele>1013.8474121</ele>
        <time>2011-05-01T11:46:40Z</time>
      </trkpt>
      <trkpt lat="45.71763" lon="6.05747">
        <ele>1016.2507324</ele>
        <time>2011-05-01T11:46:49Z</time>
      </trkpt>
      <trkpt lat="45.71759" lon="6.05733">
        <ele>1022.4995117</ele>
        <time>2011-05-01T11:46:56Z</time>
      </trkpt>
      <trkpt lat="45.71755" lon="6.0572">
        <ele>1021.5380859</ele>
        <time>2011-05-01T11:47:02Z</time>
      </trkpt>
      <trkpt lat="45.71749" lon="6.05706">
        <ele>1022.0187988</ele>
        <time>2011-05-01T11:47:08Z</time>
      </trkpt>
      <trkpt lat="45.71742" lon="6.05692">
        <ele>1021.0576172</ele>
        <time>2011-05-01T11:47:16Z</time>
      </trkpt>
      <trkpt lat="45.71734" lon="6.05682">
        <ele>1022.0187988</ele>
        <time>2011-05-01T11:47:22Z</time>
      </trkpt>
      <trkpt lat="45.71725" lon="6.05672">
        <ele>1019.6154785</ele>
        <time>2011-05-01T11:47:29Z</time>
      </trkpt>
      <trkpt lat="45.71718" lon="6.05655">
        <ele>1033.5544434</ele>
        <time>2011-05-01T11:47:36Z</time>
      </trkpt>
      <trkpt lat="45.71714" lon="6.05648">
        <ele>1040.2839355</ele>
        <time>2011-05-01T11:47:39Z</time>
      </trkpt>
      <trkpt lat="45.71705" lon="6.05641">
        <ele>1046.5324707</ele>
        <time>2011-05-01T11:47:46Z</time>
      </trkpt>
      <trkpt lat="45.71701" lon="6.05639">
        <ele>1047.4936523</ele>
        <time>2011-05-01T11:47:49Z</time>
      </trkpt>
      <trkpt lat="45.71695" lon="6.05639">
        <ele>1047.9743652</ele>
        <time>2011-05-01T11:47:53Z</time>
      </trkpt>
      <trkpt lat="45.71681" lon="6.05644">
        <ele>1045.090332</ele>
        <time>2011-05-01T11:48:00Z</time>
      </trkpt>
      <trkpt lat="45.71671" lon="6.05659">
        <ele>1040.7644043</ele>
        <time>2011-05-01T11:48:08Z</time>
      </trkpt>
      <trkpt lat="45.71658" lon="6.05669">
        <ele>1038.842041</ele>
        <time>2011-05-01T11:48:16Z</time>
      </trkpt>
      <trkpt lat="45.71638" lon="6.05678">
        <ele>1039.8032227</ele>
        <time>2011-05-01T11:48:26Z</time>
      </trkpt>
      <trkpt lat="45.71622" lon="6.05688">
        <ele>1040.7644043</ele>
        <time>2011-05-01T11:48:35Z</time>
      </trkpt>
      <trkpt lat="45.71608" lon="6.05692">
        <ele>1040.7644043</ele>
        <time>2011-05-01T11:48:43Z</time>
      </trkpt>
      <trkpt lat="45.71586" lon="6.05688">
        <ele>1041.7258301</ele>
        <time>2011-05-01T11:48:54Z</time>
      </trkpt>
      <trkpt lat="45.71567" lon="6.05677">
        <ele>1043.1677246</ele>
        <time>2011-05-01T11:49:04Z</time>
      </trkpt>
      <trkpt lat="45.71555" lon="6.05661">
        <ele>1042.6872559</ele>
        <time>2011-05-01T11:49:13Z</time>
      </trkpt>
      <trkpt lat="45.71549" lon="6.0564">
        <ele>1042.6872559</ele>
        <time>2011-05-01T11:49:22Z</time>
      </trkpt>
      <trkpt lat="45.71544" lon="6.05617">
        <ele>1046.0517578</ele>
        <time>2011-05-01T11:49:31Z</time>
      </trkpt>
      <trkpt lat="45.71535" lon="6.05606">
        <ele>1052.7810059</ele>
        <time>2011-05-01T11:49:38Z</time>
      </trkpt>
      <trkpt lat="45.71522" lon="6.05604">
        <ele>1056.1455078</ele>
        <time>2011-05-01T11:49:45Z</time>
      </trkpt>
      <trkpt lat="45.7151" lon="6.0561">
        <ele>1057.5876465</ele>
        <time>2011-05-01T11:49:52Z</time>
      </trkpt>
      <trkpt lat="45.71502" lon="6.05621">
        <ele>1059.029541</ele>
        <time>2011-05-01T11:49:58Z</time>
      </trkpt>
      <trkpt lat="45.71497" lon="6.05643">
        <ele>1058.0683594</ele>
        <time>2011-05-01T11:50:07Z</time>
      </trkpt>
      <trkpt lat="45.71489" lon="6.05659">
        <ele>1059.5102539</ele>
        <time>2011-05-01T11:50:15Z</time>
      </trkpt>
      <trkpt lat="45.71477" lon="6.05667">
        <ele>1059.9907227</ele>
        <time>2011-05-01T11:50:22Z</time>
      </trkpt>
      <trkpt lat="45.71463" lon="6.05662">
        <ele>1060.4714355</ele>
        <time>2011-05-01T11:50:29Z</time>
      </trkpt>
      <trkpt lat="45.71449" lon="6.05655">
        <ele>1060.9521484</ele>
        <time>2011-05-01T11:50:37Z</time>
      </trkpt>
      <trkpt lat="45.71443" lon="6.05649">
        <ele>1060.9521484</ele>
        <time>2011-05-01T11:50:45Z</time>
      </trkpt>
      <trkpt lat="45.71439" lon="6.05645">
        <ele>1060.9521484</ele>
        <time>2011-05-01T11:50:51Z</time>
      </trkpt>
      <trkpt lat="45.71438" lon="6.05644">
        <ele>1060.4714355</ele>
        <time>2011-05-01T11:50:55Z</time>
      </trkpt>
      <trkpt lat="45.7143" lon="6.05621">
        <ele>1062.8747559</ele>
        <time>2011-05-01T11:52:07Z</time>
      </trkpt>
      <trkpt lat="45.71422" lon="6.05617">
        <ele>1064.7973633</ele>
        <time>2011-05-01T11:52:13Z</time>
      </trkpt>
      <trkpt lat="45.71409" lon="6.05613">
        <ele>1071.0461426</ele>
        <time>2011-05-01T11:52:19Z</time>
      </trkpt>
      <trkpt lat="45.71393" lon="6.05615">
        <ele>1074.4106445</ele>
        <time>2011-05-01T11:52:27Z</time>
      </trkpt>
      <trkpt lat="45.71376" lon="6.05613">
        <ele>1075.8525391</ele>
        <time>2011-05-01T11:52:36Z</time>
      </trkpt>
      <trkpt lat="45.71363" lon="6.05611">
        <ele>1076.8139648</ele>
        <time>2011-05-01T11:52:43Z</time>
      </trkpt>
      <trkpt lat="45.71353" lon="6.05618">
        <ele>1078.2558594</ele>
        <time>2011-05-01T11:52:50Z</time>
      </trkpt>
      <trkpt lat="45.71339" lon="6.05626">
        <ele>1079.217041</ele>
        <time>2011-05-01T11:52:59Z</time>
      </trkpt>
      <trkpt lat="45.71324" lon="6.05629">
        <ele>1080.6591797</ele>
        <time>2011-05-01T11:53:08Z</time>
      </trkpt>
      <trkpt lat="45.71307" lon="6.05634">
        <ele>1082.1010742</ele>
        <time>2011-05-01T11:53:18Z</time>
      </trkpt>
      <trkpt lat="45.7129" lon="6.05643">
        <ele>1083.5429688</ele>
        <time>2011-05-01T11:53:28Z</time>
      </trkpt>
      <trkpt lat="45.71275" lon="6.05645">
        <ele>1084.9853516</ele>
        <time>2011-05-01T11:53:36Z</time>
      </trkpt>
      <trkpt lat="45.71255" lon="6.05639">
        <ele>1087.3884277</ele>
        <time>2011-05-01T11:53:47Z</time>
      </trkpt>
      <trkpt lat="45.7124" lon="6.05629">
        <ele>1086.9077148</ele>
        <time>2011-05-01T11:53:56Z</time>
      </trkpt>
      <trkpt lat="45.71227" lon="6.05624">
        <ele>1088.3498535</ele>
        <time>2011-05-01T11:54:05Z</time>
      </trkpt>
      <trkpt lat="45.71212" lon="6.05625">
        <ele>1091.2336426</ele>
        <time>2011-05-01T11:54:14Z</time>
      </trkpt>
      <trkpt lat="45.71198" lon="6.05634">
        <ele>1094.1176758</ele>
        <time>2011-05-01T11:54:23Z</time>
      </trkpt>
      <trkpt lat="45.71185" lon="6.05639">
        <ele>1096.0402832</ele>
        <time>2011-05-01T11:54:31Z</time>
      </trkpt>
      <trkpt lat="45.71166" lon="6.05643">
        <ele>1097.9628906</ele>
        <time>2011-05-01T11:54:42Z</time>
      </trkpt>
      <trkpt lat="45.71151" lon="6.05648">
        <ele>1100.3664551</ele>
        <time>2011-05-01T11:54:51Z</time>
      </trkpt>
      <trkpt lat="45.71136" lon="6.05652">
        <ele>1101.8083496</ele>
        <time>2011-05-01T11:54:59Z</time>
      </trkpt>
      <trkpt lat="45.7112" lon="6.05658">
        <ele>1102.2888184</ele>
        <time>2011-05-01T11:55:08Z</time>
      </trkpt>
      <trkpt lat="45.71106" lon="6.05664">
        <ele>1103.2502441</ele>
        <time>2011-05-01T11:55:16Z</time>
      </trkpt>
      <trkpt lat="45.71089" lon="6.0567">
        <ele>1106.6147461</ele>
        <time>2011-05-01T11:55:26Z</time>
      </trkpt>
      <trkpt lat="45.71076" lon="6.05674">
        <ele>1109.0180664</ele>
        <time>2011-05-01T11:55:34Z</time>
      </trkpt>
      <trkpt lat="45.71067" lon="6.05676">
        <ele>1110.4599609</ele>
        <time>2011-05-01T11:55:40Z</time>
      </trkpt>
      <trkpt lat="45.71053" lon="6.0568">
        <ele>1113.3439941</ele>
        <time>2011-05-01T11:55:50Z</time>
      </trkpt>
      <trkpt lat="45.71039" lon="6.0568">
        <ele>1115.7473145</ele>
        <time>2011-05-01T11:56:00Z</time>
      </trkpt>
      <trkpt lat="45.71029" lon="6.05676">
        <ele>1117.6699219</ele>
        <time>2011-05-01T11:56:08Z</time>
      </trkpt>
      <trkpt lat="45.7102" lon="6.05674">
        <ele>1119.1120605</ele>
        <time>2011-05-01T11:56:15Z</time>
      </trkpt>
      <trkpt lat="45.71005" lon="6.05666">
        <ele>1120.5539551</ele>
        <time>2011-05-01T11:56:25Z</time>
      </trkpt>
      <trkpt lat="45.70998" lon="6.05664">
        <ele>1121.5151367</ele>
        <time>2011-05-01T11:56:30Z</time>
      </trkpt>
      <trkpt lat="45.70986" lon="6.05655">
        <ele>1121.9958496</ele>
        <time>2011-05-01T11:56:39Z</time>
      </trkpt>
      <trkpt lat="45.70978" lon="6.05647">
        <ele>1121.9958496</ele>
        <time>2011-05-01T11:56:46Z</time>
      </trkpt>
      <trkpt lat="45.70971" lon="6.05639">
        <ele>1121.9958496</ele>
        <time>2011-05-01T11:56:53Z</time>
      </trkpt>
      <trkpt lat="45.70962" lon="6.05629">
        <ele>1123.918457</ele>
        <time>2011-05-01T11:57:01Z</time>
      </trkpt>
      <trkpt lat="45.70957" lon="6.05624">
        <ele>1124.3991699</ele>
        <time>2011-05-01T11:57:05Z</time>
      </trkpt>
      <trkpt lat="45.70945" lon="6.05619">
        <ele>1126.3217773</ele>
        <time>2011-05-01T11:57:13Z</time>
      </trkpt>
      <trkpt lat="45.70933" lon="6.05618">
        <ele>1128.7250977</ele>
        <time>2011-05-01T11:57:21Z</time>
      </trkpt>
      <trkpt lat="45.7092" lon="6.0562">
        <ele>1129.6862793</ele>
        <time>2011-05-01T11:57:30Z</time>
      </trkpt>
      <trkpt lat="45.70904" lon="6.05617">
        <ele>1132.0898438</ele>
        <time>2011-05-01T11:57:40Z</time>
      </trkpt>
      <trkpt lat="45.70889" lon="6.05612">
        <ele>1133.5317383</ele>
        <time>2011-05-01T11:57:49Z</time>
      </trkpt>
      <trkpt lat="45.70879" lon="6.05604">
        <ele>1133.0510254</ele>
        <time>2011-05-01T11:57:55Z</time>
      </trkpt>
      <trkpt lat="45.70866" lon="6.05594">
        <ele>1133.5317383</ele>
        <time>2011-05-01T11:58:01Z</time>
      </trkpt>
      <trkpt lat="45.7085" lon="6.05592">
        <ele>1134.4931641</ele>
        <time>2011-05-01T11:58:08Z</time>
      </trkpt>
      <trkpt lat="45.70835" lon="6.05597">
        <ele>1135.9350586</ele>
        <time>2011-05-01T11:58:15Z</time>
      </trkpt>
      <trkpt lat="45.70819" lon="6.05602">
        <ele>1136.4157715</ele>
        <time>2011-05-01T11:58:22Z</time>
      </trkpt>
      <trkpt lat="45.70794" lon="6.05603">
        <ele>1139.2995605</ele>
        <time>2011-05-01T11:58:31Z</time>
      </trkpt>
      <trkpt lat="45.70774" lon="6.05606">
        <ele>1140.2609863</ele>
        <time>2011-05-01T11:58:39Z</time>
      </trkpt>
      <trkpt lat="45.70749" lon="6.05608">
        <ele>1141.222168</ele>
        <time>2011-05-01T11:58:49Z</time>
      </trkpt>
      <trkpt lat="45.70726" lon="6.0561">
        <ele>1142.6643066</ele>
        <time>2011-05-01T11:58:58Z</time>
      </trkpt>
      <trkpt lat="45.70703" lon="6.05613">
        <ele>1146.0288086</ele>
        <time>2011-05-01T11:59:07Z</time>
      </trkpt>
      <trkpt lat="45.70685" lon="6.0561">
        <ele>1147.4707031</ele>
        <time>2011-05-01T11:59:14Z</time>
      </trkpt>
      <trkpt lat="45.70667" lon="6.05609">
        <ele>1147.951416</ele>
        <time>2011-05-01T11:59:21Z</time>
      </trkpt>
      <trkpt lat="45.70645" lon="6.05613">
        <ele>1148.9128418</ele>
        <time>2011-05-01T11:59:28Z</time>
      </trkpt>
      <trkpt lat="45.7063" lon="6.05617">
        <ele>1148.9128418</ele>
        <time>2011-05-01T11:59:33Z</time>
      </trkpt>
      <trkpt lat="45.7061" lon="6.05625">
        <ele>1147.951416</ele>
        <time>2011-05-01T11:59:39Z</time>
      </trkpt>
      <trkpt lat="45.7059" lon="6.05635">
        <ele>1146.9899902</ele>
        <time>2011-05-01T11:59:45Z</time>
      </trkpt>
      <trkpt lat="45.70566" lon="6.05639">
        <ele>1146.5095215</ele>
        <time>2011-05-01T11:59:52Z</time>
      </trkpt>
      <trkpt lat="45.7055" lon="6.0565">
        <ele>1147.951416</ele>
        <time>2011-05-01T11:59:57Z</time>
      </trkpt>
      <trkpt lat="45.70537" lon="6.05661">
        <ele>1149.3935547</ele>
        <time>2011-05-01T12:00:03Z</time>
      </trkpt>
      <trkpt lat="45.70522" lon="6.05663">
        <ele>1151.796875</ele>
        <time>2011-05-01T12:00:11Z</time>
      </trkpt>
      <trkpt lat="45.70507" lon="6.05657">
        <ele>1154.2001953</ele>
        <time>2011-05-01T12:00:19Z</time>
      </trkpt>
      <trkpt lat="45.70494" lon="6.05646">
        <ele>1156.1225586</ele>
        <time>2011-05-01T12:00:27Z</time>
      </trkpt>
      <trkpt lat="45.70486" lon="6.05641">
        <ele>1159.0065918</ele>
        <time>2011-05-01T12:00:32Z</time>
      </trkpt>
      <trkpt lat="45.70476" lon="6.05631">
        <ele>1159.9677734</ele>
        <time>2011-05-01T12:00:40Z</time>
      </trkpt>
      <trkpt lat="45.70465" lon="6.0562">
        <ele>1162.8518066</ele>
        <time>2011-05-01T12:00:48Z</time>
      </trkpt>
      <trkpt lat="45.70455" lon="6.05613">
        <ele>1165.736084</ele>
        <time>2011-05-01T12:00:56Z</time>
      </trkpt>
      <trkpt lat="45.70454" lon="6.05613">
        <ele>1166.2165527</ele>
        <time>2011-05-01T12:00:59Z</time>
      </trkpt>
      <trkpt lat="45.70463" lon="6.0561">
        <ele>1163.8129883</ele>
        <time>2011-05-01T12:01:21Z</time>
      </trkpt>
      <trkpt lat="45.70461" lon="6.05605">
        <ele>1165.2553711</ele>
        <time>2011-05-01T12:01:41Z</time>
      </trkpt>
      <trkpt lat="45.70459" lon="6.05603">
        <ele>1162.8518066</ele>
        <time>2011-05-01T12:01:48Z</time>
      </trkpt>
      <trkpt lat="45.70447" lon="6.05608">
        <ele>1165.736084</ele>
        <time>2011-05-01T12:02:22Z</time>
      </trkpt>
      <trkpt lat="45.70437" lon="6.05604">
        <ele>1162.8518066</ele>
        <time>2011-05-01T12:02:28Z</time>
      </trkpt>
      <trkpt lat="45.70422" lon="6.05598">
        <ele>1160.4484863</ele>
        <time>2011-05-01T12:02:37Z</time>
      </trkpt>
      <trkpt lat="45.7041" lon="6.05597">
        <ele>1160.9291992</ele>
        <time>2011-05-01T12:02:45Z</time>
      </trkpt>
      <trkpt lat="45.70394" lon="6.05604">
        <ele>1161.890625</ele>
        <time>2011-05-01T12:02:55Z</time>
      </trkpt>
      <trkpt lat="45.7038" lon="6.05607">
        <ele>1163.3325195</ele>
        <time>2011-05-01T12:03:04Z</time>
      </trkpt>
      <trkpt lat="45.70367" lon="6.05607">
        <ele>1166.6972656</ele>
        <time>2011-05-01T12:03:12Z</time>
      </trkpt>
      <trkpt lat="45.70357" lon="6.0561">
        <ele>1168.619873</ele>
        <time>2011-05-01T12:03:19Z</time>
      </trkpt>
      <trkpt lat="45.70348" lon="6.05613">
        <ele>1167.6584473</ele>
        <time>2011-05-01T12:03:26Z</time>
      </trkpt>
      <trkpt lat="45.70337" lon="6.05618">
        <ele>1167.6584473</ele>
        <time>2011-05-01T12:03:33Z</time>
      </trkpt>
      <trkpt lat="45.70323" lon="6.05625">
        <ele>1166.6972656</ele>
        <time>2011-05-01T12:03:42Z</time>
      </trkpt>
      <trkpt lat="45.70307" lon="6.05629">
        <ele>1167.6584473</ele>
        <time>2011-05-01T12:03:52Z</time>
      </trkpt>
      <trkpt lat="45.70295" lon="6.0563">
        <ele>1169.5812988</ele>
        <time>2011-05-01T12:03:59Z</time>
      </trkpt>
      <trkpt lat="45.70278" lon="6.05634">
        <ele>1173.4265137</ele>
        <time>2011-05-01T12:04:08Z</time>
      </trkpt>
      <trkpt lat="45.70266" lon="6.0564">
        <ele>1173.4265137</ele>
        <time>2011-05-01T12:04:16Z</time>
      </trkpt>
      <trkpt lat="45.70252" lon="6.05644">
        <ele>1176.7910156</ele>
        <time>2011-05-01T12:04:25Z</time>
      </trkpt>
      <trkpt lat="45.70238" lon="6.05643">
        <ele>1179.6748047</ele>
        <time>2011-05-01T12:04:34Z</time>
      </trkpt>
      <trkpt lat="45.70226" lon="6.05644">
        <ele>1184.4816895</ele>
        <time>2011-05-01T12:04:41Z</time>
      </trkpt>
      <trkpt lat="45.70213" lon="6.05645">
        <ele>1187.8461914</ele>
        <time>2011-05-01T12:04:49Z</time>
      </trkpt>
      <trkpt lat="45.70204" lon="6.05647">
        <ele>1191.2106934</ele>
        <time>2011-05-01T12:04:55Z</time>
      </trkpt>
      <trkpt lat="45.70188" lon="6.05648">
        <ele>1195.5366211</ele>
        <time>2011-05-01T12:05:05Z</time>
      </trkpt>
      <trkpt lat="45.70176" lon="6.05646">
        <ele>1197.9401855</ele>
        <time>2011-05-01T12:05:13Z</time>
      </trkpt>
      <trkpt lat="45.70165" lon="6.05641">
        <ele>1199.3820801</ele>
        <time>2011-05-01T12:05:20Z</time>
      </trkpt>
      <trkpt lat="45.70152" lon="6.0563">
        <ele>1199.3820801</ele>
        <time>2011-05-01T12:05:29Z</time>
      </trkpt>
      <trkpt lat="45.70141" lon="6.05613">
        <ele>1199.862793</ele>
        <time>2011-05-01T12:05:38Z</time>
      </trkpt>
      <trkpt lat="45.70129" lon="6.05592">
        <ele>1203.7080078</ele>
        <time>2011-05-01T12:05:48Z</time>
      </trkpt>
      <trkpt lat="45.70128" lon="6.0558">
        <ele>1206.111084</ele>
        <time>2011-05-01T12:05:54Z</time>
      </trkpt>
      <trkpt lat="45.70138" lon="6.05582">
        <ele>1205.6306152</ele>
        <time>2011-05-01T12:06:01Z</time>
      </trkpt>
      <trkpt lat="45.70142" lon="6.0559">
        <ele>1205.1499023</ele>
        <time>2011-05-01T12:06:05Z</time>
      </trkpt>
      <trkpt lat="45.70155" lon="6.05605">
        <ele>1204.6691895</ele>
        <time>2011-05-01T12:06:13Z</time>
      </trkpt>
      <trkpt lat="45.70168" lon="6.05609">
        <ele>1204.6691895</ele>
        <time>2011-05-01T12:06:19Z</time>
      </trkpt>
      <trkpt lat="45.70185" lon="6.05607">
        <ele>1205.6306152</ele>
        <time>2011-05-01T12:06:26Z</time>
      </trkpt>
      <trkpt lat="45.702" lon="6.05603">
        <ele>1205.6306152</ele>
        <time>2011-05-01T12:06:33Z</time>
      </trkpt>
      <trkpt lat="45.70212" lon="6.05594">
        <ele>1205.6306152</ele>
        <time>2011-05-01T12:06:39Z</time>
      </trkpt>
      <trkpt lat="45.70224" lon="6.05584">
        <ele>1206.111084</ele>
        <time>2011-05-01T12:06:46Z</time>
      </trkpt>
      <trkpt lat="45.70228" lon="6.05569">
        <ele>1205.1499023</ele>
        <time>2011-05-01T12:06:52Z</time>
      </trkpt>
      <trkpt lat="45.70232" lon="6.05548">
        <ele>1203.7080078</ele>
        <time>2011-05-01T12:07:00Z</time>
      </trkpt>
      <trkpt lat="45.70239" lon="6.05534">
        <ele>1205.6306152</ele>
        <time>2011-05-01T12:07:07Z</time>
      </trkpt>
      <trkpt lat="45.70249" lon="6.05532">
        <ele>1210.9177246</ele>
        <time>2011-05-01T12:07:14Z</time>
      </trkpt>
      <trkpt lat="45.70258" lon="6.05533">
        <ele>1212.8405762</ele>
        <time>2011-05-01T12:07:20Z</time>
      </trkpt>
      <trkpt lat="45.70267" lon="6.0553">
        <ele>1213.8017578</ele>
        <time>2011-05-01T12:07:26Z</time>
      </trkpt>
      <trkpt lat="45.70279" lon="6.05524">
        <ele>1213.8017578</ele>
        <time>2011-05-01T12:07:34Z</time>
      </trkpt>
      <trkpt lat="45.70289" lon="6.05514">
        <ele>1215.2438965</ele>
        <time>2011-05-01T12:07:42Z</time>
      </trkpt>
      <trkpt lat="45.70299" lon="6.05501">
        <ele>1218.6083984</ele>
        <time>2011-05-01T12:07:51Z</time>
      </trkpt>
      <trkpt lat="45.70304" lon="6.05493">
        <ele>1219.0891113</ele>
        <time>2011-05-01T12:07:57Z</time>
      </trkpt>
      <trkpt lat="45.70307" lon="6.05488">
        <ele>1220.050293</ele>
        <time>2011-05-01T12:08:04Z</time>
      </trkpt>
      <trkpt lat="45.70308" lon="6.05486">
        <ele>1226.779541</ele>
        <time>2011-05-01T12:08:09Z</time>
      </trkpt>
      <trkpt lat="45.70303" lon="6.05465">
        <ele>1244.5639648</ele>
        <time>2011-05-01T12:10:35Z</time>
      </trkpt>
      <trkpt lat="45.70311" lon="6.05463">
        <ele>1243.6025391</ele>
        <time>2011-05-01T12:10:41Z</time>
      </trkpt>
      <trkpt lat="45.70325" lon="6.05463">
        <ele>1240.7185059</ele>
        <time>2011-05-01T12:10:48Z</time>
      </trkpt>
      <trkpt lat="45.70339" lon="6.0546">
        <ele>1237.8347168</ele>
        <time>2011-05-01T12:10:56Z</time>
      </trkpt>
      <trkpt lat="45.70351" lon="6.05454">
        <ele>1234.9509277</ele>
        <time>2011-05-01T12:11:04Z</time>
      </trkpt>
      <trkpt lat="45.70359" lon="6.05445">
        <ele>1233.989502</ele>
        <time>2011-05-01T12:11:12Z</time>
      </trkpt>
      <trkpt lat="45.70368" lon="6.05436">
        <ele>1234.4702148</ele>
        <time>2011-05-01T12:11:19Z</time>
      </trkpt>
      <trkpt lat="45.70371" lon="6.05432">
        <ele>1234.9509277</ele>
        <time>2011-05-01T12:11:22Z</time>
      </trkpt>
      <trkpt lat="45.70381" lon="6.05425">
        <ele>1235.4313965</ele>
        <time>2011-05-01T12:11:28Z</time>
      </trkpt>
      <trkpt lat="45.70395" lon="6.05413">
        <ele>1239.2766113</ele>
        <time>2011-05-01T12:11:36Z</time>
      </trkpt>
      <trkpt lat="45.70405" lon="6.05402">
        <ele>1239.7573242</ele>
        <time>2011-05-01T12:11:41Z</time>
      </trkpt>
      <trkpt lat="45.70409" lon="6.05395">
        <ele>1238.7961426</ele>
        <time>2011-05-01T12:11:44Z</time>
      </trkpt>
      <trkpt lat="45.70418" lon="6.05377">
        <ele>1237.8347168</ele>
        <time>2011-05-01T12:11:51Z</time>
      </trkpt>
      <trkpt lat="45.70429" lon="6.05365">
        <ele>1237.3540039</ele>
        <time>2011-05-01T12:11:57Z</time>
      </trkpt>
      <trkpt lat="45.70445" lon="6.05353">
        <ele>1242.1606445</ele>
        <time>2011-05-01T12:12:05Z</time>
      </trkpt>
      <trkpt lat="45.70458" lon="6.05344">
        <ele>1244.5639648</ele>
        <time>2011-05-01T12:12:12Z</time>
      </trkpt>
      <trkpt lat="45.70466" lon="6.05335">
        <ele>1246.4868164</ele>
        <time>2011-05-01T12:12:17Z</time>
      </trkpt>
      <trkpt lat="45.70474" lon="6.05323">
        <ele>1246.0061035</ele>
        <time>2011-05-01T12:12:23Z</time>
      </trkpt>
      <trkpt lat="45.70481" lon="6.05308">
        <ele>1244.5639648</ele>
        <time>2011-05-01T12:12:29Z</time>
      </trkpt>
      <trkpt lat="45.70488" lon="6.05293">
        <ele>1243.6025391</ele>
        <time>2011-05-01T12:12:35Z</time>
      </trkpt>
      <trkpt lat="45.70495" lon="6.0528">
        <ele>1244.0834961</ele>
        <time>2011-05-01T12:12:41Z</time>
      </trkpt>
      <trkpt lat="45.70502" lon="6.05267">
        <ele>1244.0834961</ele>
        <time>2011-05-01T12:12:48Z</time>
      </trkpt>
      <trkpt lat="45.70508" lon="6.05256">
        <ele>1245.0446777</ele>
        <time>2011-05-01T12:12:55Z</time>
      </trkpt>
      <trkpt lat="45.70515" lon="6.05243">
        <ele>1245.5253906</ele>
        <time>2011-05-01T12:13:02Z</time>
      </trkpt>
      <trkpt lat="45.70524" lon="6.05228">
        <ele>1246.9672852</ele>
        <time>2011-05-01T12:13:08Z</time>
      </trkpt>
      <trkpt lat="45.70535" lon="6.05211">
        <ele>1246.4868164</ele>
        <time>2011-05-01T12:13:15Z</time>
      </trkpt>
      <trkpt lat="45.70544" lon="6.052">
        <ele>1247.447998</ele>
        <time>2011-05-01T12:13:20Z</time>
      </trkpt>
      <trkpt lat="45.70547" lon="6.05191">
        <ele>1250.8125</ele>
        <time>2011-05-01T12:13:25Z</time>
      </trkpt>
      <trkpt lat="45.70548" lon="6.05173">
        <ele>1252.7351074</ele>
        <time>2011-05-01T12:13:33Z</time>
      </trkpt>
      <trkpt lat="45.70551" lon="6.0515">
        <ele>1256.0996094</ele>
        <time>2011-05-01T12:13:42Z</time>
      </trkpt>
      <trkpt lat="45.70558" lon="6.05138">
        <ele>1259.9448242</ele>
        <time>2011-05-01T12:13:49Z</time>
      </trkpt>
      <trkpt lat="45.70568" lon="6.05131">
        <ele>1261.387207</ele>
        <time>2011-05-01T12:13:56Z</time>
      </trkpt>
      <trkpt lat="45.70576" lon="6.05128">
        <ele>1262.8291016</ele>
        <time>2011-05-01T12:14:03Z</time>
      </trkpt>
      <trkpt lat="45.70579" lon="6.05127">
        <ele>1263.3098145</ele>
        <time>2011-05-01T12:14:05Z</time>
      </trkpt>
      <trkpt lat="45.70586" lon="6.05119">
        <ele>1265.7131348</ele>
        <time>2011-05-01T12:14:13Z</time>
      </trkpt>
      <trkpt lat="45.70594" lon="6.05109">
        <ele>1267.1550293</ele>
        <time>2011-05-01T12:14:20Z</time>
      </trkpt>
      <trkpt lat="45.70604" lon="6.05101">
        <ele>1268.5969238</ele>
        <time>2011-05-01T12:14:25Z</time>
      </trkpt>
      <trkpt lat="45.70616" lon="6.05087">
        <ele>1266.1936035</ele>
        <time>2011-05-01T12:14:30Z</time>
      </trkpt>
      <trkpt lat="45.70627" lon="6.05066">
        <ele>1263.3098145</ele>
        <time>2011-05-01T12:14:34Z</time>
      </trkpt>
      <trkpt lat="45.70635" lon="6.05046">
        <ele>1261.387207</ele>
        <time>2011-05-01T12:14:39Z</time>
      </trkpt>
      <trkpt lat="45.70649" lon="6.05029">
        <ele>1263.3098145</ele>
        <time>2011-05-01T12:14:45Z</time>
      </trkpt>
      <trkpt lat="45.70655" lon="6.05021">
        <ele>1265.7131348</ele>
        <time>2011-05-01T12:14:50Z</time>
      </trkpt>
      <trkpt lat="45.70666" lon="6.05014">
        <ele>1268.5969238</ele>
        <time>2011-05-01T12:14:56Z</time>
      </trkpt>
      <trkpt lat="45.70676" lon="6.0501">
        <ele>1269.0776367</ele>
        <time>2011-05-01T12:15:02Z</time>
      </trkpt>
      <trkpt lat="45.70683" lon="6.0501">
        <ele>1270.5195312</ele>
        <time>2011-05-01T12:15:08Z</time>
      </trkpt>
      <trkpt lat="45.70692" lon="6.05008">
        <ele>1271.0002441</ele>
        <time>2011-05-01T12:15:14Z</time>
      </trkpt>
      <trkpt lat="45.70697" lon="6.05003">
        <ele>1270.5195312</ele>
        <time>2011-05-01T12:15:19Z</time>
      </trkpt>
      <trkpt lat="45.70701" lon="6.04999">
        <ele>1270.5195312</ele>
        <time>2011-05-01T12:15:23Z</time>
      </trkpt>
      <trkpt lat="45.70708" lon="6.04989">
        <ele>1272.4421387</ele>
        <time>2011-05-01T12:15:31Z</time>
      </trkpt>
      <trkpt lat="45.70715" lon="6.04976">
        <ele>1273.8840332</ele>
        <time>2011-05-01T12:15:40Z</time>
      </trkpt>
      <trkpt lat="45.70719" lon="6.04965">
        <ele>1273.4035645</ele>
        <time>2011-05-01T12:15:46Z</time>
      </trkpt>
      <trkpt lat="45.70719" lon="6.0496">
        <ele>1275.3259277</ele>
        <time>2011-05-01T12:15:48Z</time>
      </trkpt>
      <trkpt lat="45.70724" lon="6.04947">
        <ele>1274.3647461</ele>
        <time>2011-05-01T12:15:54Z</time>
      </trkpt>
      <trkpt lat="45.70733" lon="6.04931">
        <ele>1272.9228516</ele>
        <time>2011-05-01T12:16:01Z</time>
      </trkpt>
      <trkpt lat="45.70738" lon="6.04914">
        <ele>1274.3647461</ele>
        <time>2011-05-01T12:16:06Z</time>
      </trkpt>
      <trkpt lat="45.7074" lon="6.04899">
        <ele>1275.8066406</ele>
        <time>2011-05-01T12:16:11Z</time>
      </trkpt>
      <trkpt lat="45.70749" lon="6.04883">
        <ele>1276.2875977</ele>
        <time>2011-05-01T12:16:18Z</time>
      </trkpt>
      <trkpt lat="45.70754" lon="6.04875">
        <ele>1276.2875977</ele>
        <time>2011-05-01T12:16:22Z</time>
      </trkpt>
      <trkpt lat="45.70758" lon="6.0485">
        <ele>1277.7294922</ele>
        <time>2011-05-01T12:16:31Z</time>
      </trkpt>
      <trkpt lat="45.70754" lon="6.04827">
        <ele>1280.1328125</ele>
        <time>2011-05-01T12:16:38Z</time>
      </trkpt>
      <trkpt lat="45.70759" lon="6.04809">
        <ele>1279.6520996</ele>
        <time>2011-05-01T12:16:45Z</time>
      </trkpt>
      <trkpt lat="45.70764" lon="6.04798">
        <ele>1279.6520996</ele>
        <time>2011-05-01T12:16:51Z</time>
      </trkpt>
      <trkpt lat="45.70771" lon="6.04784">
        <ele>1280.6135254</ele>
        <time>2011-05-01T12:16:59Z</time>
      </trkpt>
      <trkpt lat="45.70772" lon="6.04782">
        <ele>1280.6135254</ele>
        <time>2011-05-01T12:17:00Z</time>
      </trkpt>
      <trkpt lat="45.70777" lon="6.04775">
        <ele>1283.0166016</ele>
        <time>2011-05-01T12:17:05Z</time>
      </trkpt>
      <trkpt lat="45.70779" lon="6.04773">
        <ele>1283.4973145</ele>
        <time>2011-05-01T12:17:08Z</time>
      </trkpt>
      <trkpt lat="45.70793" lon="6.0477">
        <ele>1283.9780273</ele>
        <time>2011-05-01T12:17:16Z</time>
      </trkpt>
      <trkpt lat="45.70806" lon="6.04763">
        <ele>1285.4199219</ele>
        <time>2011-05-01T12:17:22Z</time>
      </trkpt>
      <trkpt lat="45.70816" lon="6.04751">
        <ele>1287.3425293</ele>
        <time>2011-05-01T12:17:28Z</time>
      </trkpt>
      <trkpt lat="45.70828" lon="6.0474">
        <ele>1291.668457</ele>
        <time>2011-05-01T12:17:34Z</time>
      </trkpt>
      <trkpt lat="45.70833" lon="6.04728">
        <ele>1289.7458496</ele>
        <time>2011-05-01T12:17:40Z</time>
      </trkpt>
      <trkpt lat="45.70838" lon="6.04708">
        <ele>1289.7458496</ele>
        <time>2011-05-01T12:17:49Z</time>
      </trkpt>
      <trkpt lat="45.7084" lon="6.04694">
        <ele>1291.1877441</ele>
        <time>2011-05-01T12:17:56Z</time>
      </trkpt>
      <trkpt lat="45.7084" lon="6.04684">
        <ele>1292.1494141</ele>
        <time>2011-05-01T12:18:02Z</time>
      </trkpt>
      <trkpt lat="45.70843" lon="6.04672">
        <ele>1294.5524902</ele>
        <time>2011-05-01T12:18:08Z</time>
      </trkpt>
      <trkpt lat="45.70847" lon="6.04659">
        <ele>1296.9558105</ele>
        <time>2011-05-01T12:18:15Z</time>
      </trkpt>
      <trkpt lat="45.70847" lon="6.04658">
        <ele>1296.4753418</ele>
        <time>2011-05-01T12:18:16Z</time>
      </trkpt>
      <trkpt lat="45.70854" lon="6.04646">
        <ele>1295.9946289</ele>
        <time>2011-05-01T12:18:22Z</time>
      </trkpt>
      <trkpt lat="45.70862" lon="6.04637">
        <ele>1296.4753418</ele>
        <time>2011-05-01T12:18:27Z</time>
      </trkpt>
      <trkpt lat="45.70869" lon="6.04626">
        <ele>1295.0332031</ele>
        <time>2011-05-01T12:18:32Z</time>
      </trkpt>
      <trkpt lat="45.70876" lon="6.04616">
        <ele>1295.0332031</ele>
        <time>2011-05-01T12:18:36Z</time>
      </trkpt>
      <trkpt lat="45.70885" lon="6.046">
        <ele>1294.5524902</ele>
        <time>2011-05-01T12:18:43Z</time>
      </trkpt>
      <trkpt lat="45.70896" lon="6.04587">
        <ele>1293.1105957</ele>
        <time>2011-05-01T12:18:49Z</time>
      </trkpt>
      <trkpt lat="45.70903" lon="6.04573">
        <ele>1292.630127</ele>
        <time>2011-05-01T12:18:55Z</time>
      </trkpt>
      <trkpt lat="45.70911" lon="6.0456">
        <ele>1293.5913086</ele>
        <time>2011-05-01T12:19:01Z</time>
      </trkpt>
      <trkpt lat="45.70919" lon="6.04549">
        <ele>1294.0720215</ele>
        <time>2011-05-01T12:19:07Z</time>
      </trkpt>
      <trkpt lat="45.70921" lon="6.04539">
        <ele>1294.5524902</ele>
        <time>2011-05-01T12:19:12Z</time>
      </trkpt>
      <trkpt lat="45.70925" lon="6.04522">
        <ele>1300.3205566</ele>
        <time>2011-05-01T12:19:18Z</time>
      </trkpt>
      <trkpt lat="45.70926" lon="6.04516">
        <ele>1301.2817383</ele>
        <time>2011-05-01T12:19:20Z</time>
      </trkpt>
      <trkpt lat="45.7093" lon="6.04506">
        <ele>1301.7624512</ele>
        <time>2011-05-01T12:19:24Z</time>
      </trkpt>
      <trkpt lat="45.70933" lon="6.04501">
        <ele>1303.6850586</ele>
        <time>2011-05-01T12:19:27Z</time>
      </trkpt>
      <trkpt lat="45.70938" lon="6.04496">
        <ele>1304.1657715</ele>
        <time>2011-05-01T12:19:30Z</time>
      </trkpt>
      <trkpt lat="45.70954" lon="6.04487">
        <ele>1313.7788086</ele>
        <time>2011-05-01T12:19:38Z</time>
      </trkpt>
      <trkpt lat="45.70959" lon="6.04483">
        <ele>1314.2595215</ele>
        <time>2011-05-01T12:19:42Z</time>
      </trkpt>
      <trkpt lat="45.70969" lon="6.0447">
        <ele>1314.2595215</ele>
        <time>2011-05-01T12:19:50Z</time>
      </trkpt>
      <trkpt lat="45.70974" lon="6.04461">
        <ele>1312.817627</ele>
        <time>2011-05-01T12:19:55Z</time>
      </trkpt>
      <trkpt lat="45.70979" lon="6.04452">
        <ele>1313.7788086</ele>
        <time>2011-05-01T12:20:00Z</time>
      </trkpt>
      <trkpt lat="45.70984" lon="6.04439">
        <ele>1314.7402344</ele>
        <time>2011-05-01T12:20:06Z</time>
      </trkpt>
      <trkpt lat="45.70987" lon="6.04431">
        <ele>1312.3369141</ele>
        <time>2011-05-01T12:20:10Z</time>
      </trkpt>
      <trkpt lat="45.70997" lon="6.04424">
        <ele>1309.9335938</ele>
        <time>2011-05-01T12:20:17Z</time>
      </trkpt>
      <trkpt lat="45.71009" lon="6.04418">
        <ele>1313.2983398</ele>
        <time>2011-05-01T12:20:23Z</time>
      </trkpt>
      <trkpt lat="45.71019" lon="6.04407">
        <ele>1314.2595215</ele>
        <time>2011-05-01T12:20:30Z</time>
      </trkpt>
      <trkpt lat="45.71027" lon="6.04397">
        <ele>1313.7788086</ele>
        <time>2011-05-01T12:20:35Z</time>
      </trkpt>
      <trkpt lat="45.71033" lon="6.04387">
        <ele>1312.3369141</ele>
        <time>2011-05-01T12:20:41Z</time>
      </trkpt>
      <trkpt lat="45.71035" lon="6.04384">
        <ele>1312.3369141</ele>
        <time>2011-05-01T12:20:43Z</time>
      </trkpt>
      <trkpt lat="45.71039" lon="6.04376">
        <ele>1314.2595215</ele>
        <time>2011-05-01T12:20:50Z</time>
      </trkpt>
      <trkpt lat="45.71046" lon="6.04364">
        <ele>1315.7016602</ele>
        <time>2011-05-01T12:20:57Z</time>
      </trkpt>
      <trkpt lat="45.71051" lon="6.04355">
        <ele>1316.6628418</ele>
        <time>2011-05-01T12:21:02Z</time>
      </trkpt>
      <trkpt lat="45.71057" lon="6.04339">
        <ele>1317.6240234</ele>
        <time>2011-05-01T12:21:10Z</time>
      </trkpt>
      <trkpt lat="45.71059" lon="6.04329">
        <ele>1319.546875</ele>
        <time>2011-05-01T12:21:15Z</time>
      </trkpt>
      <trkpt lat="45.71051" lon="6.04324">
        <ele>1324.8342285</ele>
        <time>2011-05-01T12:21:22Z</time>
      </trkpt>
      <trkpt lat="45.7105" lon="6.04324">
        <ele>1325.3146973</ele>
        <time>2011-05-01T12:21:23Z</time>
      </trkpt>
      <trkpt lat="45.71042" lon="6.04335">
        <ele>1327.2375488</ele>
        <time>2011-05-01T12:21:31Z</time>
      </trkpt>
      <trkpt lat="45.71031" lon="6.04346">
        <ele>1327.7180176</ele>
        <time>2011-05-01T12:21:39Z</time>
      </trkpt>
      <trkpt lat="45.71017" lon="6.04358">
        <ele>1330.1213379</ele>
        <time>2011-05-01T12:21:47Z</time>
      </trkpt>
      <trkpt lat="45.71003" lon="6.04364">
        <ele>1333.9665527</ele>
        <time>2011-05-01T12:21:54Z</time>
      </trkpt>
      <trkpt lat="45.70997" lon="6.04359">
        <ele>1333.9665527</ele>
        <time>2011-05-01T12:21:58Z</time>
      </trkpt>
      <trkpt lat="45.70992" lon="6.0434">
        <ele>1332.0439453</ele>
        <time>2011-05-01T12:22:05Z</time>
      </trkpt>
      <trkpt lat="45.70999" lon="6.04328">
        <ele>1330.1213379</ele>
        <time>2011-05-01T12:22:11Z</time>
      </trkpt>
      <trkpt lat="45.71001" lon="6.04326">
        <ele>1329.640625</ele>
        <time>2011-05-01T12:22:12Z</time>
      </trkpt>
      <trkpt lat="45.71009" lon="6.04319">
        <ele>1328.1987305</ele>
        <time>2011-05-01T12:22:17Z</time>
      </trkpt>
      <trkpt lat="45.71013" lon="6.04313">
        <ele>1328.6794434</ele>
        <time>2011-05-01T12:22:21Z</time>
      </trkpt>
      <trkpt lat="45.71016" lon="6.04305">
        <ele>1328.1987305</ele>
        <time>2011-05-01T12:22:25Z</time>
      </trkpt>
      <trkpt lat="45.71024" lon="6.04291">
        <ele>1327.7180176</ele>
        <time>2011-05-01T12:22:33Z</time>
      </trkpt>
      <trkpt lat="45.71028" lon="6.04276">
        <ele>1330.6020508</ele>
        <time>2011-05-01T12:22:40Z</time>
      </trkpt>
      <trkpt lat="45.71021" lon="6.04263">
        <ele>1336.369873</ele>
        <time>2011-05-01T12:22:47Z</time>
      </trkpt>
      <trkpt lat="45.71009" lon="6.04261">
        <ele>1340.215332</ele>
        <time>2011-05-01T12:22:55Z</time>
      </trkpt>
      <trkpt lat="45.70996" lon="6.04257">
        <ele>1342.1379395</ele>
        <time>2011-05-01T12:23:03Z</time>
      </trkpt>
      <trkpt lat="45.70984" lon="6.04256">
        <ele>1349.8283691</ele>
        <time>2011-05-01T12:23:11Z</time>
      </trkpt>
      <trkpt lat="45.70975" lon="6.04253">
        <ele>1351.7509766</ele>
        <time>2011-05-01T12:23:19Z</time>
      </trkpt>
      <trkpt lat="45.70967" lon="6.04252">
        <ele>1351.2702637</ele>
        <time>2011-05-01T12:23:26Z</time>
      </trkpt>
      <trkpt lat="45.70958" lon="6.04249">
        <ele>1352.2314453</ele>
        <time>2011-05-01T12:23:32Z</time>
      </trkpt>
      <trkpt lat="45.70955" lon="6.04249">
        <ele>1352.2314453</ele>
        <time>2011-05-01T12:23:34Z</time>
      </trkpt>
      <trkpt lat="45.70946" lon="6.04236">
        <ele>1354.6347656</ele>
        <time>2011-05-01T12:23:42Z</time>
      </trkpt>
      <trkpt lat="45.70948" lon="6.04223">
        <ele>1354.6347656</ele>
        <time>2011-05-01T12:23:47Z</time>
      </trkpt>
      <trkpt lat="45.70947" lon="6.04204">
        <ele>1355.5961914</ele>
        <time>2011-05-01T12:23:53Z</time>
      </trkpt>
      <trkpt lat="45.70941" lon="6.04186">
        <ele>1356.0769043</ele>
        <time>2011-05-01T12:23:58Z</time>
      </trkpt>
      <trkpt lat="45.70934" lon="6.04167">
        <ele>1357.0383301</ele>
        <time>2011-05-01T12:24:05Z</time>
      </trkpt>
      <trkpt lat="45.70934" lon="6.04163">
        <ele>1357.9997559</ele>
        <time>2011-05-01T12:24:07Z</time>
      </trkpt>
      <trkpt lat="45.70938" lon="6.04153">
        <ele>1356.0769043</ele>
        <time>2011-05-01T12:24:13Z</time>
      </trkpt>
      <trkpt lat="45.70944" lon="6.04145">
        <ele>1353.673584</ele>
        <time>2011-05-01T12:24:19Z</time>
      </trkpt>
      <trkpt lat="45.70946" lon="6.04141">
        <ele>1353.1928711</ele>
        <time>2011-05-01T12:24:21Z</time>
      </trkpt>
      <trkpt lat="45.7095" lon="6.04126">
        <ele>1354.1542969</ele>
        <time>2011-05-01T12:24:28Z</time>
      </trkpt>
      <trkpt lat="45.70949" lon="6.0411">
        <ele>1354.6347656</ele>
        <time>2011-05-01T12:24:35Z</time>
      </trkpt>
      <trkpt lat="45.70942" lon="6.04097">
        <ele>1357.0383301</ele>
        <time>2011-05-01T12:24:42Z</time>
      </trkpt>
      <trkpt lat="45.70937" lon="6.04083">
        <ele>1358.4802246</ele>
        <time>2011-05-01T12:24:49Z</time>
      </trkpt>
      <trkpt lat="45.70937" lon="6.04068">
        <ele>1359.9221191</ele>
        <time>2011-05-01T12:24:54Z</time>
      </trkpt>
      <trkpt lat="45.70936" lon="6.0405">
        <ele>1361.3642578</ele>
        <time>2011-05-01T12:25:00Z</time>
      </trkpt>
      <trkpt lat="45.70937" lon="6.04035">
        <ele>1361.3642578</ele>
        <time>2011-05-01T12:25:06Z</time>
      </trkpt>
      <trkpt lat="45.7094" lon="6.04019">
        <ele>1359.4416504</ele>
        <time>2011-05-01T12:25:13Z</time>
      </trkpt>
      <trkpt lat="45.70942" lon="6.04013">
        <ele>1360.402832</ele>
        <time>2011-05-01T12:25:15Z</time>
      </trkpt>
      <trkpt lat="45.70941" lon="6.04009">
        <ele>1360.402832</ele>
        <time>2011-05-01T12:25:17Z</time>
      </trkpt>
      <trkpt lat="45.70945" lon="6.0399">
        <ele>1360.8835449</ele>
        <time>2011-05-01T12:25:24Z</time>
      </trkpt>
      <trkpt lat="45.70947" lon="6.03982">
        <ele>1361.8449707</ele>
        <time>2011-05-01T12:25:27Z</time>
      </trkpt>
      <trkpt lat="45.7095" lon="6.03972">
        <ele>1361.3642578</ele>
        <time>2011-05-01T12:25:31Z</time>
      </trkpt>
      <trkpt lat="45.70951" lon="6.03947">
        <ele>1368.0932617</ele>
        <time>2011-05-01T12:25:38Z</time>
      </trkpt>
      <trkpt lat="45.70953" lon="6.03918">
        <ele>1368.5739746</ele>
        <time>2011-05-01T12:25:44Z</time>
      </trkpt>
      <trkpt lat="45.70957" lon="6.03909">
        <ele>1368.0932617</ele>
        <time>2011-05-01T12:25:49Z</time>
      </trkpt>
      <trkpt lat="45.70957" lon="6.03908">
        <ele>1369.0546875</ele>
        <time>2011-05-01T12:25:56Z</time>
      </trkpt>
      <trkpt lat="45.70953" lon="6.03886">
        <ele>1364.7287598</ele>
        <time>2011-05-01T12:26:17Z</time>
      </trkpt>
      <trkpt lat="45.70943" lon="6.0388">
        <ele>1365.6901855</ele>
        <time>2011-05-01T12:26:22Z</time>
      </trkpt>
      <trkpt lat="45.70934" lon="6.03877">
        <ele>1367.6125488</ele>
        <time>2011-05-01T12:26:29Z</time>
      </trkpt>
      <trkpt lat="45.70922" lon="6.03877">
        <ele>1368.0932617</ele>
        <time>2011-05-01T12:26:38Z</time>
      </trkpt>
      <trkpt lat="45.70914" lon="6.03879">
        <ele>1368.5739746</ele>
        <time>2011-05-01T12:26:45Z</time>
      </trkpt>
      <trkpt lat="45.70905" lon="6.03883">
        <ele>1370.496582</ele>
        <time>2011-05-01T12:26:53Z</time>
      </trkpt>
      <trkpt lat="45.70902" lon="6.03887">
        <ele>1372.4194336</ele>
        <time>2011-05-01T12:26:56Z</time>
      </trkpt>
      <trkpt lat="45.70892" lon="6.03893">
        <ele>1370.0158691</ele>
        <time>2011-05-01T12:27:02Z</time>
      </trkpt>
      <trkpt lat="45.70881" lon="6.03906">
        <ele>1368.5739746</ele>
        <time>2011-05-01T12:27:08Z</time>
      </trkpt>
      <trkpt lat="45.70868" lon="6.03923">
        <ele>1365.6901855</ele>
        <time>2011-05-01T12:27:13Z</time>
      </trkpt>
      <trkpt lat="45.70853" lon="6.03937">
        <ele>1362.3254395</ele>
        <time>2011-05-01T12:27:18Z</time>
      </trkpt>
      <trkpt lat="45.70839" lon="6.03936">
        <ele>1361.3642578</ele>
        <time>2011-05-01T12:27:22Z</time>
      </trkpt>
      <trkpt lat="45.70829" lon="6.03931">
        <ele>1361.3642578</ele>
        <time>2011-05-01T12:27:28Z</time>
      </trkpt>
      <trkpt lat="45.70818" lon="6.03926">
        <ele>1361.8449707</ele>
        <time>2011-05-01T12:27:34Z</time>
      </trkpt>
      <trkpt lat="45.70807" lon="6.03919">
        <ele>1361.3642578</ele>
        <time>2011-05-01T12:27:39Z</time>
      </trkpt>
      <trkpt lat="45.70799" lon="6.039">
        <ele>1359.9221191</ele>
        <time>2011-05-01T12:27:43Z</time>
      </trkpt>
      <trkpt lat="45.70796" lon="6.03873">
        <ele>1358.9609375</ele>
        <time>2011-05-01T12:27:47Z</time>
      </trkpt>
      <trkpt lat="45.70791" lon="6.03853">
        <ele>1358.9609375</ele>
        <time>2011-05-01T12:27:51Z</time>
      </trkpt>
      <trkpt lat="45.70784" lon="6.03833">
        <ele>1359.4416504</ele>
        <time>2011-05-01T12:27:57Z</time>
      </trkpt>
      <trkpt lat="45.70777" lon="6.03819">
        <ele>1361.8449707</ele>
        <time>2011-05-01T12:28:04Z</time>
      </trkpt>
      <trkpt lat="45.70767" lon="6.03809">
        <ele>1364.2480469</ele>
        <time>2011-05-01T12:28:12Z</time>
      </trkpt>
      <trkpt lat="45.70755" lon="6.03799">
        <ele>1367.6125488</ele>
        <time>2011-05-01T12:28:21Z</time>
      </trkpt>
      <trkpt lat="45.70744" lon="6.03789">
        <ele>1370.0158691</ele>
        <time>2011-05-01T12:28:29Z</time>
      </trkpt>
      <trkpt lat="45.70733" lon="6.03782">
        <ele>1370.9772949</ele>
        <time>2011-05-01T12:28:38Z</time>
      </trkpt>
      <trkpt lat="45.70719" lon="6.03778">
        <ele>1371.9384766</ele>
        <time>2011-05-01T12:28:46Z</time>
      </trkpt>
      <trkpt lat="45.70701" lon="6.03777">
        <ele>1370.9772949</ele>
        <time>2011-05-01T12:28:54Z</time>
      </trkpt>
      <trkpt lat="45.70682" lon="6.03774">
        <ele>1370.9772949</ele>
        <time>2011-05-01T12:29:03Z</time>
      </trkpt>
      <trkpt lat="45.70669" lon="6.03775">
        <ele>1370.496582</ele>
        <time>2011-05-01T12:29:10Z</time>
      </trkpt>
      <trkpt lat="45.70668" lon="6.03775">
        <ele>1370.0158691</ele>
        <time>2011-05-01T12:29:13Z</time>
      </trkpt>
      <trkpt lat="45.70663" lon="6.03784">
        <ele>1370.9772949</ele>
        <time>2011-05-01T12:34:52Z</time>
      </trkpt>
      <trkpt lat="45.70648" lon="6.03786">
        <ele>1370.496582</ele>
        <time>2011-05-01T12:34:59Z</time>
      </trkpt>
      <trkpt lat="45.70631" lon="6.03795">
        <ele>1368.5739746</ele>
        <time>2011-05-01T12:35:06Z</time>
      </trkpt>
      <trkpt lat="45.70612" lon="6.03813">
        <ele>1366.1706543</ele>
        <time>2011-05-01T12:35:11Z</time>
      </trkpt>
      <trkpt lat="45.70584" lon="6.03836">
        <ele>1362.8061523</ele>
        <time>2011-05-01T12:35:18Z</time>
      </trkpt>
      <trkpt lat="45.70552" lon="6.03863">
        <ele>1358.9609375</ele>
        <time>2011-05-01T12:35:25Z</time>
      </trkpt>
      <trkpt lat="45.70522" lon="6.03884">
        <ele>1355.5961914</ele>
        <time>2011-05-01T12:35:30Z</time>
      </trkpt>
      <trkpt lat="45.705" lon="6.039">
        <ele>1353.673584</ele>
        <time>2011-05-01T12:35:34Z</time>
      </trkpt>
      <trkpt lat="45.70472" lon="6.03904">
        <ele>1353.1928711</ele>
        <time>2011-05-01T12:35:40Z</time>
      </trkpt>
      <trkpt lat="45.7046" lon="6.03895">
        <ele>1353.673584</ele>
        <time>2011-05-01T12:35:43Z</time>
      </trkpt>
      <trkpt lat="45.70453" lon="6.03886">
        <ele>1353.673584</ele>
        <time>2011-05-01T12:35:45Z</time>
      </trkpt>
      <trkpt lat="45.70442" lon="6.03875">
        <ele>1353.673584</ele>
        <time>2011-05-01T12:35:48Z</time>
      </trkpt>
      <trkpt lat="45.70428" lon="6.03874">
        <ele>1353.673584</ele>
        <time>2011-05-01T12:35:51Z</time>
      </trkpt>
      <trkpt lat="45.70415" lon="6.03872">
        <ele>1353.1928711</ele>
        <time>2011-05-01T12:35:54Z</time>
      </trkpt>
      <trkpt lat="45.70402" lon="6.03861">
        <ele>1353.1928711</ele>
        <time>2011-05-01T12:35:58Z</time>
      </trkpt>
      <trkpt lat="45.70399" lon="6.03839">
        <ele>1354.6347656</ele>
        <time>2011-05-01T12:36:03Z</time>
      </trkpt>
      <trkpt lat="45.70398" lon="6.03827">
        <ele>1356.0769043</ele>
        <time>2011-05-01T12:36:09Z</time>
      </trkpt>
      <trkpt lat="45.70403" lon="6.03816">
        <ele>1356.5576172</ele>
        <time>2011-05-01T12:36:16Z</time>
      </trkpt>
      <trkpt lat="45.70406" lon="6.03801">
        <ele>1357.519043</ele>
        <time>2011-05-01T12:36:25Z</time>
      </trkpt>
      <trkpt lat="45.70407" lon="6.03784">
        <ele>1358.4802246</ele>
        <time>2011-05-01T12:36:33Z</time>
      </trkpt>
      <trkpt lat="45.70405" lon="6.03774">
        <ele>1359.4416504</ele>
        <time>2011-05-01T12:36:38Z</time>
      </trkpt>
      <trkpt lat="45.70404" lon="6.03772">
        <ele>1359.4416504</ele>
        <time>2011-05-01T12:36:41Z</time>
      </trkpt>
      <trkpt lat="45.70399" lon="6.03741">
        <ele>1359.4416504</ele>
        <time>2011-05-01T12:36:56Z</time>
      </trkpt>
      <trkpt lat="45.70399" lon="6.03723">
        <ele>1359.9221191</ele>
        <time>2011-05-01T12:37:04Z</time>
      </trkpt>
      <trkpt lat="45.70398" lon="6.03707">
        <ele>1360.8835449</ele>
        <time>2011-05-01T12:37:11Z</time>
      </trkpt>
      <trkpt lat="45.70398" lon="6.03695">
        <ele>1360.8835449</ele>
        <time>2011-05-01T12:37:17Z</time>
      </trkpt>
      <trkpt lat="45.70396" lon="6.03677">
        <ele>1362.3254395</ele>
        <time>2011-05-01T12:37:25Z</time>
      </trkpt>
      <trkpt lat="45.70393" lon="6.03663">
        <ele>1363.2868652</ele>
        <time>2011-05-01T12:37:32Z</time>
      </trkpt>
      <trkpt lat="45.70392" lon="6.0365">
        <ele>1363.2868652</ele>
        <time>2011-05-01T12:37:39Z</time>
      </trkpt>
      <trkpt lat="45.70389" lon="6.03635">
        <ele>1363.767334</ele>
        <time>2011-05-01T12:37:46Z</time>
      </trkpt>
      <trkpt lat="45.70386" lon="6.03621">
        <ele>1363.767334</ele>
        <time>2011-05-01T12:37:53Z</time>
      </trkpt>
      <trkpt lat="45.70382" lon="6.0361">
        <ele>1362.8061523</ele>
        <time>2011-05-01T12:37:59Z</time>
      </trkpt>
      <trkpt lat="45.70374" lon="6.0359">
        <ele>1360.8835449</ele>
        <time>2011-05-01T12:38:06Z</time>
      </trkpt>
      <trkpt lat="45.70364" lon="6.03569">
        <ele>1358.4802246</ele>
        <time>2011-05-01T12:38:12Z</time>
      </trkpt>
      <trkpt lat="45.70352" lon="6.03556">
        <ele>1357.0383301</ele>
        <time>2011-05-01T12:38:16Z</time>
      </trkpt>
      <trkpt lat="45.70339" lon="6.03543">
        <ele>1355.5961914</ele>
        <time>2011-05-01T12:38:22Z</time>
      </trkpt>
      <trkpt lat="45.70325" lon="6.03528">
        <ele>1355.5961914</ele>
        <time>2011-05-01T12:38:28Z</time>
      </trkpt>
      <trkpt lat="45.70313" lon="6.03528">
        <ele>1353.1928711</ele>
        <time>2011-05-01T12:38:34Z</time>
      </trkpt>
      <trkpt lat="45.70294" lon="6.03539">
        <ele>1349.8283691</ele>
        <time>2011-05-01T12:38:39Z</time>
      </trkpt>
      <trkpt lat="45.70273" lon="6.03554">
        <ele>1347.9057617</ele>
        <time>2011-05-01T12:38:44Z</time>
      </trkpt>
      <trkpt lat="45.70269" lon="6.03557">
        <ele>1347.4250488</ele>
        <time>2011-05-01T12:38:45Z</time>
      </trkpt>
      <trkpt lat="45.70252" lon="6.03582">
        <ele>1345.9831543</ele>
        <time>2011-05-01T12:38:51Z</time>
      </trkpt>
      <trkpt lat="45.70235" lon="6.03605">
        <ele>1344.0605469</ele>
        <time>2011-05-01T12:38:57Z</time>
      </trkpt>
      <trkpt lat="45.70217" lon="6.03623">
        <ele>1343.0991211</ele>
        <time>2011-05-01T12:39:02Z</time>
      </trkpt>
      <trkpt lat="45.702" lon="6.03639">
        <ele>1342.1379395</ele>
        <time>2011-05-01T12:39:08Z</time>
      </trkpt>
      <trkpt lat="45.70189" lon="6.03648">
        <ele>1341.6572266</ele>
        <time>2011-05-01T12:39:13Z</time>
      </trkpt>
      <trkpt lat="45.70168" lon="6.03662">
        <ele>1341.1765137</ele>
        <time>2011-05-01T12:39:21Z</time>
      </trkpt>
      <trkpt lat="45.70154" lon="6.0367">
        <ele>1340.6958008</ele>
        <time>2011-05-01T12:39:27Z</time>
      </trkpt>
      <trkpt lat="45.70142" lon="6.03682">
        <ele>1341.1765137</ele>
        <time>2011-05-01T12:39:33Z</time>
      </trkpt>
      <trkpt lat="45.70127" lon="6.03698">
        <ele>1341.6572266</ele>
        <time>2011-05-01T12:39:40Z</time>
      </trkpt>
      <trkpt lat="45.70114" lon="6.03716">
        <ele>1342.1379395</ele>
        <time>2011-05-01T12:39:46Z</time>
      </trkpt>
      <trkpt lat="45.70097" lon="6.03743">
        <ele>1340.6958008</ele>
        <time>2011-05-01T12:39:52Z</time>
      </trkpt>
      <trkpt lat="45.70082" lon="6.03775">
        <ele>1338.2924805</ele>
        <time>2011-05-01T12:39:57Z</time>
      </trkpt>
      <trkpt lat="45.70067" lon="6.03811">
        <ele>1336.369873</ele>
        <time>2011-05-01T12:40:02Z</time>
      </trkpt>
      <trkpt lat="45.70053" lon="6.03852">
        <ele>1333.005127</ele>
        <time>2011-05-01T12:40:07Z</time>
      </trkpt>
      <trkpt lat="45.70051" lon="6.03871">
        <ele>1331.0827637</ele>
        <time>2011-05-01T12:40:09Z</time>
      </trkpt>
      <trkpt lat="45.7005" lon="6.03896">
        <ele>1328.6794434</ele>
        <time>2011-05-01T12:40:12Z</time>
      </trkpt>
      <trkpt lat="45.70041" lon="6.03933">
        <ele>1325.3146973</ele>
        <time>2011-05-01T12:40:17Z</time>
      </trkpt>
      <trkpt lat="45.70024" lon="6.0398">
        <ele>1321.9499512</ele>
        <time>2011-05-01T12:40:23Z</time>
      </trkpt>
      <trkpt lat="45.70011" lon="6.04024">
        <ele>1317.6240234</ele>
        <time>2011-05-01T12:40:29Z</time>
      </trkpt>
      <trkpt lat="45.70002" lon="6.04054">
        <ele>1315.7016602</ele>
        <time>2011-05-01T12:40:33Z</time>
      </trkpt>
      <trkpt lat="45.7" lon="6.04062">
        <ele>1314.2595215</ele>
        <time>2011-05-01T12:40:34Z</time>
      </trkpt>
      <trkpt lat="45.69995" lon="6.04096">
        <ele>1310.4143066</ele>
        <time>2011-05-01T12:40:39Z</time>
      </trkpt>
      <trkpt lat="45.69987" lon="6.04124">
        <ele>1305.607666</ele>
        <time>2011-05-01T12:40:45Z</time>
      </trkpt>
      <trkpt lat="45.69978" lon="6.04156">
        <ele>1303.6850586</ele>
        <time>2011-05-01T12:40:50Z</time>
      </trkpt>
      <trkpt lat="45.69971" lon="6.04192">
        <ele>1301.2817383</ele>
        <time>2011-05-01T12:40:55Z</time>
      </trkpt>
      <trkpt lat="45.69971" lon="6.04198">
        <ele>1301.2817383</ele>
        <time>2011-05-01T12:40:56Z</time>
      </trkpt>
      <trkpt lat="45.69967" lon="6.04209">
        <ele>1299.8398438</ele>
        <time>2011-05-01T12:40:59Z</time>
      </trkpt>
      <trkpt lat="45.69958" lon="6.04243">
        <ele>1296.9558105</ele>
        <time>2011-05-01T12:41:05Z</time>
      </trkpt>
      <trkpt lat="45.69955" lon="6.04264">
        <ele>1296.4753418</ele>
        <time>2011-05-01T12:41:08Z</time>
      </trkpt>
      <trkpt lat="45.69951" lon="6.04279">
        <ele>1295.9946289</ele>
        <time>2011-05-01T12:41:13Z</time>
      </trkpt>
      <trkpt lat="45.69951" lon="6.04281">
        <ele>1296.4753418</ele>
        <time>2011-05-01T12:41:16Z</time>
      </trkpt>
      <trkpt lat="45.69936" lon="6.04283">
        <ele>1296.9558105</ele>
        <time>2011-05-01T12:41:31Z</time>
      </trkpt>
      <trkpt lat="45.69907" lon="6.04276">
        <ele>1295.0332031</ele>
        <time>2011-05-01T12:41:37Z</time>
      </trkpt>
      <trkpt lat="45.69903" lon="6.0426">
        <ele>1295.0332031</ele>
        <time>2011-05-01T12:41:41Z</time>
      </trkpt>
      <trkpt lat="45.69901" lon="6.04231">
        <ele>1295.0332031</ele>
        <time>2011-05-01T12:41:48Z</time>
      </trkpt>
      <trkpt lat="45.69898" lon="6.0421">
        <ele>1295.9946289</ele>
        <time>2011-05-01T12:41:55Z</time>
      </trkpt>
      <trkpt lat="45.6989" lon="6.042">
        <ele>1296.4753418</ele>
        <time>2011-05-01T12:41:59Z</time>
      </trkpt>
      <trkpt lat="45.69877" lon="6.04198">
        <ele>1297.4365234</ele>
        <time>2011-05-01T12:42:03Z</time>
      </trkpt>
      <trkpt lat="45.69854" lon="6.04206">
        <ele>1297.9172363</ele>
        <time>2011-05-01T12:42:08Z</time>
      </trkpt>
      <trkpt lat="45.69843" lon="6.0421">
        <ele>1298.3977051</ele>
        <time>2011-05-01T12:42:11Z</time>
      </trkpt>
      <trkpt lat="45.69824" lon="6.04198">
        <ele>1300.8010254</ele>
        <time>2011-05-01T12:42:16Z</time>
      </trkpt>
      <trkpt lat="45.69813" lon="6.0418">
        <ele>1297.4365234</ele>
        <time>2011-05-01T12:42:19Z</time>
      </trkpt>
      <trkpt lat="45.69802" lon="6.0416">
        <ele>1300.3205566</ele>
        <time>2011-05-01T12:42:22Z</time>
      </trkpt>
      <trkpt lat="45.69793" lon="6.04132">
        <ele>1299.8398438</ele>
        <time>2011-05-01T12:42:26Z</time>
      </trkpt>
      <trkpt lat="45.69784" lon="6.04107">
        <ele>1298.878418</ele>
        <time>2011-05-01T12:42:30Z</time>
      </trkpt>
      <trkpt lat="45.69779" lon="6.04081">
        <ele>1300.3205566</ele>
        <time>2011-05-01T12:42:36Z</time>
      </trkpt>
      <trkpt lat="45.69776" lon="6.04066">
        <ele>1299.3591309</ele>
        <time>2011-05-01T12:42:42Z</time>
      </trkpt>
      <trkpt lat="45.69772" lon="6.04056">
        <ele>1297.9172363</ele>
        <time>2011-05-01T12:42:47Z</time>
      </trkpt>
      <trkpt lat="45.69769" lon="6.04044">
        <ele>1297.4365234</ele>
        <time>2011-05-01T12:42:53Z</time>
      </trkpt>
      <trkpt lat="45.69766" lon="6.04031">
        <ele>1302.7236328</ele>
        <time>2011-05-01T12:42:59Z</time>
      </trkpt>
      <trkpt lat="45.69761" lon="6.04018">
        <ele>1302.7236328</ele>
        <time>2011-05-01T12:43:05Z</time>
      </trkpt>
      <trkpt lat="45.69757" lon="6.04007">
        <ele>1305.1269531</ele>
        <time>2011-05-01T12:43:11Z</time>
      </trkpt>
      <trkpt lat="45.69751" lon="6.03989">
        <ele>1306.5688477</ele>
        <time>2011-05-01T12:43:18Z</time>
      </trkpt>
      <trkpt lat="45.69746" lon="6.03978">
        <ele>1307.0495605</ele>
        <time>2011-05-01T12:43:24Z</time>
      </trkpt>
      <trkpt lat="45.69744" lon="6.03969">
        <ele>1308.0112305</ele>
        <time>2011-05-01T12:43:30Z</time>
      </trkpt>
      <trkpt lat="45.69743" lon="6.03966">
        <ele>1307.5302734</ele>
        <time>2011-05-01T12:43:31Z</time>
      </trkpt>
      <trkpt lat="45.69738" lon="6.03934">
        <ele>1309.453125</ele>
        <time>2011-05-01T12:43:36Z</time>
      </trkpt>
      <trkpt lat="45.69735" lon="6.03914">
        <ele>1307.5302734</ele>
        <time>2011-05-01T12:43:39Z</time>
      </trkpt>
      <trkpt lat="45.69731" lon="6.03879">
        <ele>1299.8398438</ele>
        <time>2011-05-01T12:43:44Z</time>
      </trkpt>
      <trkpt lat="45.69732" lon="6.03826">
        <ele>1292.1494141</ele>
        <time>2011-05-01T12:43:50Z</time>
      </trkpt>
      <trkpt lat="45.69732" lon="6.03819">
        <ele>1291.1877441</ele>
        <time>2011-05-01T12:43:51Z</time>
      </trkpt>
      <trkpt lat="45.69725" lon="6.03788">
        <ele>1289.2651367</ele>
        <time>2011-05-01T12:43:56Z</time>
      </trkpt>
      <trkpt lat="45.6972" lon="6.0377">
        <ele>1287.8232422</ele>
        <time>2011-05-01T12:43:59Z</time>
      </trkpt>
      <trkpt lat="45.69718" lon="6.03733">
        <ele>1285.4199219</ele>
        <time>2011-05-01T12:44:05Z</time>
      </trkpt>
      <trkpt lat="45.69719" lon="6.03727">
        <ele>1285.4199219</ele>
        <time>2011-05-01T12:44:06Z</time>
      </trkpt>
      <trkpt lat="45.69724" lon="6.03709">
        <ele>1283.4973145</ele>
        <time>2011-05-01T12:44:09Z</time>
      </trkpt>
      <trkpt lat="45.6973" lon="6.0369">
        <ele>1282.0554199</ele>
        <time>2011-05-01T12:44:12Z</time>
      </trkpt>
      <trkpt lat="45.69735" lon="6.03673">
        <ele>1280.1328125</ele>
        <time>2011-05-01T12:44:17Z</time>
      </trkpt>
      <trkpt lat="45.69738" lon="6.03663">
        <ele>1278.690918</ele>
        <time>2011-05-01T12:44:19Z</time>
      </trkpt>
      <trkpt lat="45.69741" lon="6.03645">
        <ele>1276.2875977</ele>
        <time>2011-05-01T12:44:22Z</time>
      </trkpt>
      <trkpt lat="45.69743" lon="6.03618">
        <ele>1273.4035645</ele>
        <time>2011-05-01T12:44:26Z</time>
      </trkpt>
      <trkpt lat="45.69735" lon="6.03577">
        <ele>1271.9614258</ele>
        <time>2011-05-01T12:44:31Z</time>
      </trkpt>
      <trkpt lat="45.69724" lon="6.03537">
        <ele>1269.5583496</ele>
        <time>2011-05-01T12:44:36Z</time>
      </trkpt>
      <trkpt lat="45.69723" lon="6.03532">
        <ele>1269.5583496</ele>
        <time>2011-05-01T12:44:37Z</time>
      </trkpt>
      <trkpt lat="45.69722" lon="6.0353">
        <ele>1269.0776367</ele>
        <time>2011-05-01T12:44:40Z</time>
      </trkpt>
      <trkpt lat="45.69716" lon="6.03505">
        <ele>1266.6743164</ele>
        <time>2011-05-01T12:45:45Z</time>
      </trkpt>
      <trkpt lat="45.69718" lon="6.03477">
        <ele>1264.2709961</ele>
        <time>2011-05-01T12:45:50Z</time>
      </trkpt>
      <trkpt lat="45.69716" lon="6.03454">
        <ele>1261.8679199</ele>
        <time>2011-05-01T12:45:53Z</time>
      </trkpt>
      <trkpt lat="45.69706" lon="6.03428">
        <ele>1259.4643555</ele>
        <time>2011-05-01T12:45:57Z</time>
      </trkpt>
      <trkpt lat="45.69699" lon="6.03412">
        <ele>1258.5029297</ele>
        <time>2011-05-01T12:46:03Z</time>
      </trkpt>
      <trkpt lat="45.69699" lon="6.03412">
        <ele>1258.5029297</ele>
        <time>2011-05-01T12:46:04Z</time>
      </trkpt>
      <trkpt lat="45.69689" lon="6.03424">
        <ele>1254.6577148</ele>
        <time>2011-05-01T12:46:16Z</time>
      </trkpt>
      <trkpt lat="45.69679" lon="6.03433">
        <ele>1250.8125</ele>
        <time>2011-05-01T12:46:22Z</time>
      </trkpt>
      <trkpt lat="45.69671" lon="6.03442">
        <ele>1246.9672852</ele>
        <time>2011-05-01T12:46:28Z</time>
      </trkpt>
      <trkpt lat="45.69663" lon="6.03446">
        <ele>1244.0834961</ele>
        <time>2011-05-01T12:46:31Z</time>
      </trkpt>
      <trkpt lat="45.69647" lon="6.03456">
        <ele>1240.2380371</ele>
        <time>2011-05-01T12:46:34Z</time>
      </trkpt>
      <trkpt lat="45.69633" lon="6.03471">
        <ele>1236.3928223</ele>
        <time>2011-05-01T12:46:37Z</time>
      </trkpt>
      <trkpt lat="45.69615" lon="6.03485">
        <ele>1232.5476074</ele>
        <time>2011-05-01T12:46:41Z</time>
      </trkpt>
      <trkpt lat="45.69597" lon="6.03484">
        <ele>1228.7023926</ele>
        <time>2011-05-01T12:46:45Z</time>
      </trkpt>
      <trkpt lat="45.69589" lon="6.03471">
        <ele>1227.2602539</ele>
        <time>2011-05-01T12:46:48Z</time>
      </trkpt>
      <trkpt lat="45.69583" lon="6.03437">
        <ele>1223.8955078</ele>
        <time>2011-05-01T12:46:54Z</time>
      </trkpt>
      <trkpt lat="45.69582" lon="6.03431">
        <ele>1223.8955078</ele>
        <time>2011-05-01T12:46:55Z</time>
      </trkpt>
      <trkpt lat="45.69589" lon="6.03413">
        <ele>1221.0117188</ele>
        <time>2011-05-01T12:46:59Z</time>
      </trkpt>
      <trkpt lat="45.69604" lon="6.0338">
        <ele>1216.2050781</ele>
        <time>2011-05-01T12:47:06Z</time>
      </trkpt>
      <trkpt lat="45.69611" lon="6.03361">
        <ele>1215.7246094</ele>
        <time>2011-05-01T12:47:10Z</time>
      </trkpt>
      <trkpt lat="45.69613" lon="6.03344">
        <ele>1215.7246094</ele>
        <time>2011-05-01T12:47:14Z</time>
      </trkpt>
      <trkpt lat="45.69618" lon="6.03309">
        <ele>1213.8017578</ele>
        <time>2011-05-01T12:47:20Z</time>
      </trkpt>
      <trkpt lat="45.6962" lon="6.03286">
        <ele>1213.8017578</ele>
        <time>2011-05-01T12:47:23Z</time>
      </trkpt>
      <trkpt lat="45.69625" lon="6.03263">
        <ele>1212.8405762</ele>
        <time>2011-05-01T12:47:27Z</time>
      </trkpt>
      <trkpt lat="45.6963" lon="6.03252">
        <ele>1211.8791504</ele>
        <time>2011-05-01T12:47:30Z</time>
      </trkpt>
      <trkpt lat="45.6963" lon="6.03226">
        <ele>1210.4370117</ele>
        <time>2011-05-01T12:47:35Z</time>
      </trkpt>
      <trkpt lat="45.69625" lon="6.03218">
        <ele>1210.4370117</ele>
        <time>2011-05-01T12:47:37Z</time>
      </trkpt>
      <trkpt lat="45.69619" lon="6.03192">
        <ele>1208.9951172</ele>
        <time>2011-05-01T12:47:43Z</time>
      </trkpt>
      <trkpt lat="45.69616" lon="6.03174">
        <ele>1207.5532227</ele>
        <time>2011-05-01T12:47:49Z</time>
      </trkpt>
      <trkpt lat="45.69619" lon="6.03164">
        <ele>1205.6306152</ele>
        <time>2011-05-01T12:47:54Z</time>
      </trkpt>
      <trkpt lat="45.69616" lon="6.0316">
        <ele>1204.1887207</ele>
        <time>2011-05-01T12:47:59Z</time>
      </trkpt>
      <trkpt lat="45.69621" lon="6.03137">
        <ele>1208.9951172</ele>
        <time>2011-05-01T12:48:33Z</time>
      </trkpt>
      <trkpt lat="45.69625" lon="6.03126">
        <ele>1209.4758301</ele>
        <time>2011-05-01T12:48:39Z</time>
      </trkpt>
      <trkpt lat="45.69631" lon="6.03111">
        <ele>1207.0725098</ele>
        <time>2011-05-01T12:48:44Z</time>
      </trkpt>
      <trkpt lat="45.69632" lon="6.03089">
        <ele>1204.6691895</ele>
        <time>2011-05-01T12:48:49Z</time>
      </trkpt>
      <trkpt lat="45.69638" lon="6.03061">
        <ele>1203.2272949</ele>
        <time>2011-05-01T12:48:55Z</time>
      </trkpt>
      <trkpt lat="45.69641" lon="6.03033">
        <ele>1201.3046875</ele>
        <time>2011-05-01T12:48:59Z</time>
      </trkpt>
      <trkpt lat="45.69642" lon="6.03025">
        <ele>1201.3046875</ele>
        <time>2011-05-01T12:49:00Z</time>
      </trkpt>
      <trkpt lat="45.6964" lon="6.02996">
        <ele>1202.2658691</ele>
        <time>2011-05-01T12:49:05Z</time>
      </trkpt>
      <trkpt lat="45.69634" lon="6.02979">
        <ele>1202.2658691</ele>
        <time>2011-05-01T12:49:11Z</time>
      </trkpt>
      <trkpt lat="45.6963" lon="6.02945">
        <ele>1201.7854004</ele>
        <time>2011-05-01T12:49:18Z</time>
      </trkpt>
      <trkpt lat="45.69628" lon="6.02919">
        <ele>1200.8239746</ele>
        <time>2011-05-01T12:49:24Z</time>
      </trkpt>
      <trkpt lat="45.69622" lon="6.02893">
        <ele>1196.498291</ele>
        <time>2011-05-01T12:49:29Z</time>
      </trkpt>
      <trkpt lat="45.69616" lon="6.02863">
        <ele>1192.652832</ele>
        <time>2011-05-01T12:49:33Z</time>
      </trkpt>
      <trkpt lat="45.69619" lon="6.02831">
        <ele>1189.2880859</ele>
        <time>2011-05-01T12:49:37Z</time>
      </trkpt>
      <trkpt lat="45.69621" lon="6.02815">
        <ele>1187.8461914</ele>
        <time>2011-05-01T12:49:39Z</time>
      </trkpt>
      <trkpt lat="45.69621" lon="6.02778">
        <ele>1186.8847656</ele>
        <time>2011-05-01T12:49:44Z</time>
      </trkpt>
      <trkpt lat="45.69616" lon="6.02741">
        <ele>1187.3654785</ele>
        <time>2011-05-01T12:49:49Z</time>
      </trkpt>
      <trkpt lat="45.69609" lon="6.02708">
        <ele>1187.3654785</ele>
        <time>2011-05-01T12:49:54Z</time>
      </trkpt>
      <trkpt lat="45.69605" lon="6.0268">
        <ele>1187.8461914</ele>
        <time>2011-05-01T12:49:59Z</time>
      </trkpt>
      <trkpt lat="45.69604" lon="6.02643">
        <ele>1187.3654785</ele>
        <time>2011-05-01T12:50:06Z</time>
      </trkpt>
      <trkpt lat="45.69605" lon="6.02612">
        <ele>1187.3654785</ele>
        <time>2011-05-01T12:50:11Z</time>
      </trkpt>
      <trkpt lat="45.69611" lon="6.02581">
        <ele>1188.3269043</ele>
        <time>2011-05-01T12:50:17Z</time>
      </trkpt>
      <trkpt lat="45.69617" lon="6.02561">
        <ele>1185.923584</ele>
        <time>2011-05-01T12:50:23Z</time>
      </trkpt>
      <trkpt lat="45.69622" lon="6.0254">
        <ele>1184.4816895</ele>
        <time>2011-05-01T12:50:27Z</time>
      </trkpt>
      <trkpt lat="45.6963" lon="6.02525">
        <ele>1181.5976562</ele>
        <time>2011-05-01T12:50:31Z</time>
      </trkpt>
      <trkpt lat="45.69642" lon="6.02508">
        <ele>1178.713623</ele>
        <time>2011-05-01T12:50:37Z</time>
      </trkpt>
      <trkpt lat="45.69648" lon="6.02489">
        <ele>1175.8295898</ele>
        <time>2011-05-01T12:50:43Z</time>
      </trkpt>
      <trkpt lat="45.69647" lon="6.02475">
        <ele>1173.9069824</ele>
        <time>2011-05-01T12:50:47Z</time>
      </trkpt>
      <trkpt lat="45.69646" lon="6.02472">
        <ele>1172.9458008</ele>
        <time>2011-05-01T12:50:53Z</time>
      </trkpt>
      <trkpt lat="45.69632" lon="6.02443">
        <ele>1172.9458008</ele>
        <time>2011-05-01T12:51:44Z</time>
      </trkpt>
      <trkpt lat="45.69634" lon="6.0244">
        <ele>1173.4265137</ele>
        <time>2011-05-01T12:51:50Z</time>
      </trkpt>
      <trkpt lat="45.69634" lon="6.02431">
        <ele>1173.4265137</ele>
        <time>2011-05-01T12:51:55Z</time>
      </trkpt>
      <trkpt lat="45.69632" lon="6.02419">
        <ele>1174.3876953</ele>
        <time>2011-05-01T12:52:02Z</time>
      </trkpt>
      <trkpt lat="45.69628" lon="6.02405">
        <ele>1177.2717285</ele>
        <time>2011-05-01T12:52:12Z</time>
      </trkpt>
      <trkpt lat="45.69626" lon="6.02401">
        <ele>1177.7521973</ele>
        <time>2011-05-01T12:52:17Z</time>
      </trkpt>
      <trkpt lat="45.69622" lon="6.02388">
        <ele>1182.559082</ele>
        <time>2011-05-01T12:52:24Z</time>
      </trkpt>
      <trkpt lat="45.69622" lon="6.0238">
        <ele>1183.0395508</ele>
        <time>2011-05-01T12:52:30Z</time>
      </trkpt>
      <trkpt lat="45.69622" lon="6.02372">
        <ele>1184.0009766</ele>
        <time>2011-05-01T12:52:36Z</time>
      </trkpt>
      <trkpt lat="45.69622" lon="6.02361">
        <ele>1187.3654785</ele>
        <time>2011-05-01T12:52:42Z</time>
      </trkpt>
      <trkpt lat="45.69619" lon="6.02352">
        <ele>1187.8461914</ele>
        <time>2011-05-01T12:52:46Z</time>
      </trkpt>
      <trkpt lat="45.69617" lon="6.02343">
        <ele>1192.1721191</ele>
        <time>2011-05-01T12:52:50Z</time>
      </trkpt>
      <trkpt lat="45.69617" lon="6.02339">
        <ele>1193.6140137</ele>
        <time>2011-05-01T12:52:54Z</time>
      </trkpt>
      <trkpt lat="45.69614" lon="6.02328">
        <ele>1192.1721191</ele>
        <time>2011-05-01T12:53:00Z</time>
      </trkpt>
      <trkpt lat="45.69616" lon="6.02316">
        <ele>1188.8076172</ele>
        <time>2011-05-01T12:53:05Z</time>
      </trkpt>
      <trkpt lat="45.69617" lon="6.0231">
        <ele>1188.8076172</ele>
        <time>2011-05-01T12:53:08Z</time>
      </trkpt>
      <trkpt lat="45.69624" lon="6.02295">
        <ele>1190.7299805</ele>
        <time>2011-05-01T12:53:16Z</time>
      </trkpt>
      <trkpt lat="45.69624" lon="6.02293">
        <ele>1190.7299805</ele>
        <time>2011-05-01T12:53:17Z</time>
      </trkpt>
      <trkpt lat="45.69632" lon="6.02269">
        <ele>1189.2880859</ele>
        <time>2011-05-01T12:53:28Z</time>
      </trkpt>
      <trkpt lat="45.6963" lon="6.02254">
        <ele>1190.7299805</ele>
        <time>2011-05-01T12:53:34Z</time>
      </trkpt>
      <trkpt lat="45.69628" lon="6.02239">
        <ele>1190.7299805</ele>
        <time>2011-05-01T12:53:40Z</time>
      </trkpt>
      <trkpt lat="45.69629" lon="6.02224">
        <ele>1189.7687988</ele>
        <time>2011-05-01T12:53:45Z</time>
      </trkpt>
      <trkpt lat="45.69629" lon="6.02204">
        <ele>1188.3269043</ele>
        <time>2011-05-01T12:53:50Z</time>
      </trkpt>
      <trkpt lat="45.69632" lon="6.02181">
        <ele>1186.4042969</ele>
        <time>2011-05-01T12:53:54Z</time>
      </trkpt>
      <trkpt lat="45.69633" lon="6.0215">
        <ele>1184.9624023</ele>
        <time>2011-05-01T12:53:59Z</time>
      </trkpt>
      <trkpt lat="45.69629" lon="6.0214">
        <ele>1184.0009766</ele>
        <time>2011-05-01T12:54:02Z</time>
      </trkpt>
      <trkpt lat="45.69625" lon="6.02121">
        <ele>1161.4099121</ele>
        <time>2011-05-01T13:06:15Z</time>
      </trkpt>
      <trkpt lat="45.69626" lon="6.02116">
        <ele>1160.9291992</ele>
        <time>2011-05-01T13:06:16Z</time>
      </trkpt>
      <trkpt lat="45.69634" lon="6.02091">
        <ele>1159.0065918</ele>
        <time>2011-05-01T13:06:21Z</time>
      </trkpt>
      <trkpt lat="45.69643" lon="6.02061">
        <ele>1156.1225586</ele>
        <time>2011-05-01T13:06:25Z</time>
      </trkpt>
      <trkpt lat="45.69645" lon="6.02033">
        <ele>1153.2387695</ele>
        <time>2011-05-01T13:06:29Z</time>
      </trkpt>
      <trkpt lat="45.69635" lon="6.01998">
        <ele>1151.796875</ele>
        <time>2011-05-01T13:06:33Z</time>
      </trkpt>
      <trkpt lat="45.69628" lon="6.01989">
        <ele>1151.3161621</ele>
        <time>2011-05-01T13:06:34Z</time>
      </trkpt>
      <trkpt lat="45.69594" lon="6.01949">
        <ele>1149.8742676</ele>
        <time>2011-05-01T13:06:39Z</time>
      </trkpt>
      <trkpt lat="45.69568" lon="6.01902">
        <ele>1148.4321289</ele>
        <time>2011-05-01T13:06:44Z</time>
      </trkpt>
      <trkpt lat="45.69551" lon="6.01875">
        <ele>1148.4321289</ele>
        <time>2011-05-01T13:06:47Z</time>
      </trkpt>
      <trkpt lat="45.69541" lon="6.01862">
        <ele>1149.8742676</ele>
        <time>2011-05-01T13:06:49Z</time>
      </trkpt>
      <trkpt lat="45.69532" lon="6.01854">
        <ele>1150.8354492</ele>
        <time>2011-05-01T13:06:51Z</time>
      </trkpt>
      <trkpt lat="45.69525" lon="6.0185">
        <ele>1152.2773438</ele>
        <time>2011-05-01T13:06:53Z</time>
      </trkpt>
      <trkpt lat="45.69518" lon="6.01844">
        <ele>1153.7194824</ele>
        <time>2011-05-01T13:06:56Z</time>
      </trkpt>
      <trkpt lat="45.69506" lon="6.01824">
        <ele>1156.1225586</ele>
        <time>2011-05-01T13:07:05Z</time>
      </trkpt>
      <trkpt lat="45.69495" lon="6.01802">
        <ele>1157.0839844</ele>
        <time>2011-05-01T13:07:11Z</time>
      </trkpt>
      <trkpt lat="45.69479" lon="6.01778">
        <ele>1155.6420898</ele>
        <time>2011-05-01T13:07:15Z</time>
      </trkpt>
      <trkpt lat="45.69457" lon="6.01746">
        <ele>1153.2387695</ele>
        <time>2011-05-01T13:07:19Z</time>
      </trkpt>
      <trkpt lat="45.69446" lon="6.01733">
        <ele>1151.796875</ele>
        <time>2011-05-01T13:07:21Z</time>
      </trkpt>
      <trkpt lat="45.69418" lon="6.01714">
        <ele>1147.4707031</ele>
        <time>2011-05-01T13:07:26Z</time>
      </trkpt>
      <trkpt lat="45.69399" lon="6.01685">
        <ele>1143.1447754</ele>
        <time>2011-05-01T13:07:30Z</time>
      </trkpt>
      <trkpt lat="45.69372" lon="6.01624">
        <ele>1141.222168</ele>
        <time>2011-05-01T13:07:36Z</time>
      </trkpt>
      <trkpt lat="45.69368" lon="6.01617">
        <ele>1141.222168</ele>
        <time>2011-05-01T13:07:37Z</time>
      </trkpt>
      <trkpt lat="45.69349" lon="6.01589">
        <ele>1139.2995605</ele>
        <time>2011-05-01T13:07:42Z</time>
      </trkpt>
      <trkpt lat="45.69332" lon="6.01558">
        <ele>1137.3769531</ele>
        <time>2011-05-01T13:07:46Z</time>
      </trkpt>
      <trkpt lat="45.69324" lon="6.01535">
        <ele>1137.3769531</ele>
        <time>2011-05-01T13:07:50Z</time>
      </trkpt>
      <trkpt lat="45.69324" lon="6.01535">
        <ele>1137.857666</ele>
        <time>2011-05-01T13:07:53Z</time>
      </trkpt>
      <trkpt lat="45.69322" lon="6.01525">
        <ele>1136.8962402</ele>
        <time>2011-05-01T13:08:29Z</time>
      </trkpt>
      <trkpt lat="45.69312" lon="6.01515">
        <ele>1138.3383789</ele>
        <time>2011-05-01T13:08:35Z</time>
      </trkpt>
      <trkpt lat="45.69297" lon="6.01505">
        <ele>1139.2995605</ele>
        <time>2011-05-01T13:08:42Z</time>
      </trkpt>
      <trkpt lat="45.69283" lon="6.01495">
        <ele>1139.2995605</ele>
        <time>2011-05-01T13:08:47Z</time>
      </trkpt>
      <trkpt lat="45.69266" lon="6.01482">
        <ele>1139.7802734</ele>
        <time>2011-05-01T13:08:53Z</time>
      </trkpt>
      <trkpt lat="45.69247" lon="6.01469">
        <ele>1139.2995605</ele>
        <time>2011-05-01T13:09:00Z</time>
      </trkpt>
      <trkpt lat="45.69232" lon="6.01455">
        <ele>1139.2995605</ele>
        <time>2011-05-01T13:09:06Z</time>
      </trkpt>
      <trkpt lat="45.69204" lon="6.01427">
        <ele>1139.2995605</ele>
        <time>2011-05-01T13:09:16Z</time>
      </trkpt>
      <trkpt lat="45.69189" lon="6.01411">
        <ele>1140.7414551</ele>
        <time>2011-05-01T13:09:23Z</time>
      </trkpt>
      <trkpt lat="45.69172" lon="6.01393">
        <ele>1141.7028809</ele>
        <time>2011-05-01T13:09:32Z</time>
      </trkpt>
      <trkpt lat="45.69159" lon="6.01385">
        <ele>1142.1835938</ele>
        <time>2011-05-01T13:09:38Z</time>
      </trkpt>
      <trkpt lat="45.69144" lon="6.01382">
        <ele>1142.1835938</ele>
        <time>2011-05-01T13:09:44Z</time>
      </trkpt>
      <trkpt lat="45.69123" lon="6.01375">
        <ele>1143.6254883</ele>
        <time>2011-05-01T13:09:54Z</time>
      </trkpt>
      <trkpt lat="45.69107" lon="6.01369">
        <ele>1145.0673828</ele>
        <time>2011-05-01T13:10:03Z</time>
      </trkpt>
      <trkpt lat="45.69101" lon="6.01366">
        <ele>1145.5480957</ele>
        <time>2011-05-01T13:10:07Z</time>
      </trkpt>
      <trkpt lat="45.69097" lon="6.01357">
        <ele>1146.0288086</ele>
        <time>2011-05-01T13:10:12Z</time>
      </trkpt>
      <trkpt lat="45.69103" lon="6.01339">
        <ele>1145.0673828</ele>
        <time>2011-05-01T13:10:20Z</time>
      </trkpt>
      <trkpt lat="45.6911" lon="6.0133">
        <ele>1143.1447754</ele>
        <time>2011-05-01T13:10:26Z</time>
      </trkpt>
      <trkpt lat="45.69107" lon="6.01317">
        <ele>1144.1062012</ele>
        <time>2011-05-01T13:10:31Z</time>
      </trkpt>
      <trkpt lat="45.69102" lon="6.01296">
        <ele>1145.0673828</ele>
        <time>2011-05-01T13:10:38Z</time>
      </trkpt>
      <trkpt lat="45.69094" lon="6.01273">
        <ele>1145.0673828</ele>
        <time>2011-05-01T13:10:44Z</time>
      </trkpt>
      <trkpt lat="45.69081" lon="6.01239">
        <ele>1146.0288086</ele>
        <time>2011-05-01T13:10:52Z</time>
      </trkpt>
      <trkpt lat="45.69069" lon="6.01209">
        <ele>1146.5095215</ele>
        <time>2011-05-01T13:11:00Z</time>
      </trkpt>
      <trkpt lat="45.69061" lon="6.01185">
        <ele>1145.5480957</ele>
        <time>2011-05-01T13:11:05Z</time>
      </trkpt>
      <trkpt lat="45.69057" lon="6.01153">
        <ele>1145.5480957</ele>
        <time>2011-05-01T13:11:11Z</time>
      </trkpt>
      <trkpt lat="45.69058" lon="6.01124">
        <ele>1145.5480957</ele>
        <time>2011-05-01T13:11:17Z</time>
      </trkpt>
      <trkpt lat="45.69059" lon="6.01099">
        <ele>1145.5480957</ele>
        <time>2011-05-01T13:11:24Z</time>
      </trkpt>
      <trkpt lat="45.69061" lon="6.01068">
        <ele>1146.5095215</ele>
        <time>2011-05-01T13:11:32Z</time>
      </trkpt>
      <trkpt lat="45.69064" lon="6.01045">
        <ele>1147.4707031</ele>
        <time>2011-05-01T13:11:39Z</time>
      </trkpt>
      <trkpt lat="45.69074" lon="6.01025">
        <ele>1145.5480957</ele>
        <time>2011-05-01T13:11:46Z</time>
      </trkpt>
      <trkpt lat="45.69084" lon="6.01009">
        <ele>1143.1447754</ele>
        <time>2011-05-01T13:11:52Z</time>
      </trkpt>
      <trkpt lat="45.69095" lon="6.01">
        <ele>1141.222168</ele>
        <time>2011-05-01T13:11:59Z</time>
      </trkpt>
      <trkpt lat="45.69102" lon="6.00998">
        <ele>1143.6254883</ele>
        <time>2011-05-01T13:12:04Z</time>
      </trkpt>
      <trkpt lat="45.69103" lon="6.00999">
        <ele>1142.6643066</ele>
        <time>2011-05-01T13:12:07Z</time>
      </trkpt>
      <trkpt lat="45.69131" lon="6.01013">
        <ele>1128.7250977</ele>
        <time>2011-05-01T13:13:11Z</time>
      </trkpt>
      <trkpt lat="45.69143" lon="6.01016">
        <ele>1126.8024902</ele>
        <time>2011-05-01T13:13:19Z</time>
      </trkpt>
      <trkpt lat="45.69156" lon="6.01015">
        <ele>1125.8410645</ele>
        <time>2011-05-01T13:13:26Z</time>
      </trkpt>
      <trkpt lat="45.69171" lon="6.01013">
        <ele>1125.8410645</ele>
        <time>2011-05-01T13:13:34Z</time>
      </trkpt>
      <trkpt lat="45.69185" lon="6.0101">
        <ele>1126.3217773</ele>
        <time>2011-05-01T13:13:42Z</time>
      </trkpt>
      <trkpt lat="45.69197" lon="6.01004">
        <ele>1128.2443848</ele>
        <time>2011-05-01T13:13:52Z</time>
      </trkpt>
      <trkpt lat="45.69206" lon="6.01002">
        <ele>1134.973877</ele>
        <time>2011-05-01T13:13:59Z</time>
      </trkpt>
      <trkpt lat="45.69213" lon="6.00999">
        <ele>1137.857666</ele>
        <time>2011-05-01T13:14:05Z</time>
      </trkpt>
      <trkpt lat="45.69221" lon="6.00994">
        <ele>1140.2609863</ele>
        <time>2011-05-01T13:14:13Z</time>
      </trkpt>
      <trkpt lat="45.69225" lon="6.00991">
        <ele>1140.7414551</ele>
        <time>2011-05-01T13:14:16Z</time>
      </trkpt>
      <trkpt lat="45.6923" lon="6.00977">
        <ele>1142.6643066</ele>
        <time>2011-05-01T13:14:24Z</time>
      </trkpt>
      <trkpt lat="45.69229" lon="6.00962">
        <ele>1146.5095215</ele>
        <time>2011-05-01T13:14:31Z</time>
      </trkpt>
      <trkpt lat="45.69226" lon="6.00945">
        <ele>1151.3161621</ele>
        <time>2011-05-01T13:14:40Z</time>
      </trkpt>
      <trkpt lat="45.69224" lon="6.00927">
        <ele>1153.2387695</ele>
        <time>2011-05-01T13:14:49Z</time>
      </trkpt>
      <trkpt lat="45.69221" lon="6.0091">
        <ele>1154.6806641</ele>
        <time>2011-05-01T13:14:56Z</time>
      </trkpt>
      <trkpt lat="45.69217" lon="6.0089">
        <ele>1157.5646973</ele>
        <time>2011-05-01T13:15:04Z</time>
      </trkpt>
      <trkpt lat="45.69212" lon="6.00875">
        <ele>1160.9291992</ele>
        <time>2011-05-01T13:15:11Z</time>
      </trkpt>
      <trkpt lat="45.69207" lon="6.0086">
        <ele>1160.4484863</ele>
        <time>2011-05-01T13:15:19Z</time>
      </trkpt>
      <trkpt lat="45.69202" lon="6.00843">
        <ele>1162.8518066</ele>
        <time>2011-05-01T13:15:28Z</time>
      </trkpt>
      <trkpt lat="45.69197" lon="6.00823">
        <ele>1164.2939453</ele>
        <time>2011-05-01T13:15:37Z</time>
      </trkpt>
      <trkpt lat="45.69197" lon="6.00805">
        <ele>1164.7746582</ele>
        <time>2011-05-01T13:15:44Z</time>
      </trkpt>
      <trkpt lat="45.69199" lon="6.0079">
        <ele>1163.8129883</ele>
        <time>2011-05-01T13:15:50Z</time>
      </trkpt>
      <trkpt lat="45.69198" lon="6.00774">
        <ele>1165.736084</ele>
        <time>2011-05-01T13:15:58Z</time>
      </trkpt>
      <trkpt lat="45.69195" lon="6.00758">
        <ele>1167.6584473</ele>
        <time>2011-05-01T13:16:07Z</time>
      </trkpt>
      <trkpt lat="45.69192" lon="6.00747">
        <ele>1168.619873</ele>
        <time>2011-05-01T13:16:15Z</time>
      </trkpt>
      <trkpt lat="45.6919" lon="6.00737">
        <ele>1170.0617676</ele>
        <time>2011-05-01T13:16:22Z</time>
      </trkpt>
      <trkpt lat="45.69189" lon="6.00734">
        <ele>1170.0617676</ele>
        <time>2011-05-01T13:16:24Z</time>
      </trkpt>
      <trkpt lat="45.69187" lon="6.00729">
        <ele>1170.5424805</ele>
        <time>2011-05-01T13:16:28Z</time>
      </trkpt>
      <trkpt lat="45.69184" lon="6.00718">
        <ele>1171.984375</ele>
        <time>2011-05-01T13:16:36Z</time>
      </trkpt>
      <trkpt lat="45.69178" lon="6.0071">
        <ele>1172.9458008</ele>
        <time>2011-05-01T13:16:44Z</time>
      </trkpt>
      <trkpt lat="45.69172" lon="6.00712">
        <ele>1171.984375</ele>
        <time>2011-05-01T13:16:50Z</time>
      </trkpt>
      <trkpt lat="45.69165" lon="6.00725">
        <ele>1171.5036621</ele>
        <time>2011-05-01T13:16:59Z</time>
      </trkpt>
      <trkpt lat="45.69163" lon="6.00742">
        <ele>1172.4650879</ele>
        <time>2011-05-01T13:17:08Z</time>
      </trkpt>
      <trkpt lat="45.69162" lon="6.00757">
        <ele>1173.4265137</ele>
        <time>2011-05-01T13:17:16Z</time>
      </trkpt>
      <trkpt lat="45.69155" lon="6.00764">
        <ele>1175.348877</ele>
        <time>2011-05-01T13:17:25Z</time>
      </trkpt>
      <trkpt lat="45.69149" lon="6.00758">
        <ele>1178.2329102</ele>
        <time>2011-05-01T13:17:32Z</time>
      </trkpt>
      <trkpt lat="45.69145" lon="6.00749">
        <ele>1180.1557617</ele>
        <time>2011-05-01T13:17:39Z</time>
      </trkpt>
      <trkpt lat="45.69139" lon="6.00736">
        <ele>1182.0783691</ele>
        <time>2011-05-01T13:17:49Z</time>
      </trkpt>
      <trkpt lat="45.69135" lon="6.00724">
        <ele>1183.5202637</ele>
        <time>2011-05-01T13:17:56Z</time>
      </trkpt>
      <trkpt lat="45.69132" lon="6.00712">
        <ele>1185.4428711</ele>
        <time>2011-05-01T13:18:03Z</time>
      </trkpt>
      <trkpt lat="45.69126" lon="6.00698">
        <ele>1186.8847656</ele>
        <time>2011-05-01T13:18:13Z</time>
      </trkpt>
      <trkpt lat="45.6912" lon="6.00692">
        <ele>1188.3269043</ele>
        <time>2011-05-01T13:18:20Z</time>
      </trkpt>
      <trkpt lat="45.69113" lon="6.00686">
        <ele>1189.2880859</ele>
        <time>2011-05-01T13:18:27Z</time>
      </trkpt>
      <trkpt lat="45.6911" lon="6.00677">
        <ele>1190.7299805</ele>
        <time>2011-05-01T13:18:34Z</time>
      </trkpt>
      <trkpt lat="45.6911" lon="6.00674">
        <ele>1191.2106934</ele>
        <time>2011-05-01T13:18:36Z</time>
      </trkpt>
      <trkpt lat="45.6911" lon="6.00669">
        <ele>1191.2106934</ele>
        <time>2011-05-01T13:18:40Z</time>
      </trkpt>
      <trkpt lat="45.69108" lon="6.00653">
        <ele>1193.6140137</ele>
        <time>2011-05-01T13:18:50Z</time>
      </trkpt>
      <trkpt lat="45.69104" lon="6.00643">
        <ele>1194.5751953</ele>
        <time>2011-05-01T13:18:57Z</time>
      </trkpt>
      <trkpt lat="45.69101" lon="6.0063">
        <ele>1196.0175781</ele>
        <time>2011-05-01T13:19:05Z</time>
      </trkpt>
      <trkpt lat="45.691" lon="6.00612">
        <ele>1197.9401855</ele>
        <time>2011-05-01T13:19:15Z</time>
      </trkpt>
      <trkpt lat="45.69096" lon="6.00595">
        <ele>1200.3435059</ele>
        <time>2011-05-01T13:19:25Z</time>
      </trkpt>
      <trkpt lat="45.69091" lon="6.00579">
        <ele>1201.7854004</ele>
        <time>2011-05-01T13:19:35Z</time>
      </trkpt>
      <trkpt lat="45.69091" lon="6.00564">
        <ele>1203.2272949</ele>
        <time>2011-05-01T13:19:43Z</time>
      </trkpt>
      <trkpt lat="45.69092" lon="6.00549">
        <ele>1204.1887207</ele>
        <time>2011-05-01T13:19:52Z</time>
      </trkpt>
      <trkpt lat="45.6909" lon="6.00532">
        <ele>1206.111084</ele>
        <time>2011-05-01T13:20:01Z</time>
      </trkpt>
      <trkpt lat="45.6909" lon="6.00523">
        <ele>1207.0725098</ele>
        <time>2011-05-01T13:20:07Z</time>
      </trkpt>
      <trkpt lat="45.69097" lon="6.00523">
        <ele>1205.1499023</ele>
        <time>2011-05-01T13:20:13Z</time>
      </trkpt>
      <trkpt lat="45.69108" lon="6.00521">
        <ele>1201.7854004</ele>
        <time>2011-05-01T13:20:22Z</time>
      </trkpt>
      <trkpt lat="45.69116" lon="6.00513">
        <ele>1202.746582</ele>
        <time>2011-05-01T13:20:30Z</time>
      </trkpt>
      <trkpt lat="45.69121" lon="6.00508">
        <ele>1203.7080078</ele>
        <time>2011-05-01T13:20:38Z</time>
      </trkpt>
      <trkpt lat="45.69112" lon="6.0049">
        <ele>1207.0725098</ele>
        <time>2011-05-01T13:21:04Z</time>
      </trkpt>
      <trkpt lat="45.69102" lon="6.00478">
        <ele>1208.5144043</ele>
        <time>2011-05-01T13:21:13Z</time>
      </trkpt>
      <trkpt lat="45.69096" lon="6.0047">
        <ele>1208.9951172</ele>
        <time>2011-05-01T13:21:20Z</time>
      </trkpt>
      <trkpt lat="45.69094" lon="6.00471">
        <ele>1208.0339355</ele>
        <time>2011-05-01T13:21:25Z</time>
      </trkpt>
      <trkpt lat="45.6907" lon="6.00483">
        <ele>1208.5144043</ele>
        <time>2011-05-01T13:25:58Z</time>
      </trkpt>
      <trkpt lat="45.69056" lon="6.0049">
        <ele>1208.9951172</ele>
        <time>2011-05-01T13:26:07Z</time>
      </trkpt>
      <trkpt lat="45.69041" lon="6.00494">
        <ele>1209.9562988</ele>
        <time>2011-05-01T13:26:15Z</time>
      </trkpt>
      <trkpt lat="45.69025" lon="6.00498">
        <ele>1211.8791504</ele>
        <time>2011-05-01T13:26:26Z</time>
      </trkpt>
      <trkpt lat="45.69013" lon="6.00492">
        <ele>1211.8791504</ele>
        <time>2011-05-01T13:26:32Z</time>
      </trkpt>
      <trkpt lat="45.68997" lon="6.00474">
        <ele>1212.3598633</ele>
        <time>2011-05-01T13:26:37Z</time>
      </trkpt>
      <trkpt lat="45.68992" lon="6.0047">
        <ele>1212.3598633</ele>
        <time>2011-05-01T13:26:41Z</time>
      </trkpt>
      <trkpt lat="45.68988" lon="6.00469">
        <ele>1212.8405762</ele>
        <time>2011-05-01T13:26:44Z</time>
      </trkpt>
      <trkpt lat="45.68985" lon="6.00469">
        <ele>1214.2824707</ele>
        <time>2011-05-01T13:26:49Z</time>
      </trkpt>
      <trkpt lat="45.68957" lon="6.00445">
        <ele>1214.7631836</ele>
        <time>2011-05-01T13:27:31Z</time>
      </trkpt>
      <trkpt lat="45.68945" lon="6.00441">
        <ele>1211.8791504</ele>
        <time>2011-05-01T13:27:39Z</time>
      </trkpt>
      <trkpt lat="45.68928" lon="6.00435">
        <ele>1209.4758301</ele>
        <time>2011-05-01T13:27:45Z</time>
      </trkpt>
      <trkpt lat="45.68917" lon="6.0042">
        <ele>1209.9562988</ele>
        <time>2011-05-01T13:27:50Z</time>
      </trkpt>
      <trkpt lat="45.68909" lon="6.00411">
        <ele>1213.3212891</ele>
        <time>2011-05-01T13:27:56Z</time>
      </trkpt>
      <trkpt lat="45.68899" lon="6.00409">
        <ele>1216.2050781</ele>
        <time>2011-05-01T13:28:01Z</time>
      </trkpt>
      <trkpt lat="45.68883" lon="6.00401">
        <ele>1220.050293</ele>
        <time>2011-05-01T13:28:07Z</time>
      </trkpt>
      <trkpt lat="45.68861" lon="6.00386">
        <ele>1228.2216797</ele>
        <time>2011-05-01T13:28:16Z</time>
      </trkpt>
      <trkpt lat="45.68841" lon="6.00364">
        <ele>1226.2988281</ele>
        <time>2011-05-01T13:28:25Z</time>
      </trkpt>
      <trkpt lat="45.68827" lon="6.00353">
        <ele>1221.9729004</ele>
        <time>2011-05-01T13:28:31Z</time>
      </trkpt>
      <trkpt lat="45.68813" lon="6.00345">
        <ele>1223.8955078</ele>
        <time>2011-05-01T13:28:38Z</time>
      </trkpt>
      <trkpt lat="45.68802" lon="6.00337">
        <ele>1225.8181152</ele>
        <time>2011-05-01T13:28:45Z</time>
      </trkpt>
      <trkpt lat="45.68802" lon="6.00337">
        <ele>1227.2602539</ele>
        <time>2011-05-01T13:28:48Z</time>
      </trkpt>
      <trkpt lat="45.68793" lon="6.0037">
        <ele>1212.8405762</ele>
        <time>2011-05-01T13:29:42Z</time>
      </trkpt>
      <trkpt lat="45.68793" lon="6.00373">
        <ele>1212.3598633</ele>
        <time>2011-05-01T13:29:43Z</time>
      </trkpt>
      <trkpt lat="45.68796" lon="6.00395">
        <ele>1212.8405762</ele>
        <time>2011-05-01T13:29:50Z</time>
      </trkpt>
      <trkpt lat="45.68797" lon="6.0041">
        <ele>1213.8017578</ele>
        <time>2011-05-01T13:29:57Z</time>
      </trkpt>
      <trkpt lat="45.68797" lon="6.00418">
        <ele>1213.3212891</ele>
        <time>2011-05-01T13:30:03Z</time>
      </trkpt>
      <trkpt lat="45.68801" lon="6.00434">
        <ele>1215.2438965</ele>
        <time>2011-05-01T13:30:11Z</time>
      </trkpt>
      <trkpt lat="45.68801" lon="6.00448">
        <ele>1216.685791</ele>
        <time>2011-05-01T13:30:19Z</time>
      </trkpt>
      <trkpt lat="45.688" lon="6.00456">
        <ele>1217.1665039</ele>
        <time>2011-05-01T13:30:25Z</time>
      </trkpt>
      <trkpt lat="45.688" lon="6.00458">
        <ele>1216.685791</ele>
        <time>2011-05-01T13:30:29Z</time>
      </trkpt>
      <trkpt lat="45.68797" lon="6.00549">
        <ele>1227.7407227</ele>
        <time>2011-05-01T13:31:56Z</time>
      </trkpt>
      <trkpt lat="45.68792" lon="6.00558">
        <ele>1230.625</ele>
        <time>2011-05-01T13:32:05Z</time>
      </trkpt>
      <trkpt lat="45.68792" lon="6.00559">
        <ele>1231.1057129</ele>
        <time>2011-05-01T13:32:08Z</time>
      </trkpt>
      <trkpt lat="45.68748" lon="6.00555">
        <ele>1244.0834961</ele>
        <time>2011-05-01T13:34:55Z</time>
      </trkpt>
      <trkpt lat="45.6874" lon="6.00548">
        <ele>1244.5639648</ele>
        <time>2011-05-01T13:35:03Z</time>
      </trkpt>
      <trkpt lat="45.68732" lon="6.00541">
        <ele>1245.0446777</ele>
        <time>2011-05-01T13:35:10Z</time>
      </trkpt>
      <trkpt lat="45.6872" lon="6.00534">
        <ele>1245.5253906</ele>
        <time>2011-05-01T13:35:18Z</time>
      </trkpt>
      <trkpt lat="45.68708" lon="6.00527">
        <ele>1246.9672852</ele>
        <time>2011-05-01T13:35:27Z</time>
      </trkpt>
      <trkpt lat="45.68698" lon="6.00526">
        <ele>1247.447998</ele>
        <time>2011-05-01T13:35:35Z</time>
      </trkpt>
      <trkpt lat="45.68696" lon="6.00526">
        <ele>1247.9287109</ele>
        <time>2011-05-01T13:35:37Z</time>
      </trkpt>
      <trkpt lat="45.68692" lon="6.00529">
        <ele>1248.4091797</ele>
        <time>2011-05-01T13:35:41Z</time>
      </trkpt>
      <trkpt lat="45.68685" lon="6.00537">
        <ele>1250.3320312</ele>
        <time>2011-05-01T13:35:49Z</time>
      </trkpt>
      <trkpt lat="45.68685" lon="6.00537">
        <ele>1250.3320312</ele>
        <time>2011-05-01T13:35:50Z</time>
      </trkpt>
      <trkpt lat="45.68638" lon="6.00538">
        <ele>1258.9836426</ele>
        <time>2011-05-01T13:37:06Z</time>
      </trkpt>
      <trkpt lat="45.68629" lon="6.00542">
        <ele>1259.9448242</ele>
        <time>2011-05-01T13:37:13Z</time>
      </trkpt>
      <trkpt lat="45.68622" lon="6.00546">
        <ele>1260.4257812</ele>
        <time>2011-05-01T13:37:19Z</time>
      </trkpt>
      <trkpt lat="45.68611" lon="6.00553">
        <ele>1260.9064941</ele>
        <time>2011-05-01T13:37:28Z</time>
      </trkpt>
      <trkpt lat="45.68602" lon="6.00558">
        <ele>1261.387207</ele>
        <time>2011-05-01T13:37:35Z</time>
      </trkpt>
      <trkpt lat="45.68592" lon="6.0056">
        <ele>1260.9064941</ele>
        <time>2011-05-01T13:37:43Z</time>
      </trkpt>
      <trkpt lat="45.6859" lon="6.00559">
        <ele>1260.9064941</ele>
        <time>2011-05-01T13:37:45Z</time>
      </trkpt>
      <trkpt lat="45.68581" lon="6.00548">
        <ele>1262.3483887</ele>
        <time>2011-05-01T13:37:52Z</time>
      </trkpt>
      <trkpt lat="45.68576" lon="6.00541">
        <ele>1262.8291016</ele>
        <time>2011-05-01T13:37:57Z</time>
      </trkpt>
      <trkpt lat="45.68564" lon="6.00533">
        <ele>1262.8291016</ele>
        <time>2011-05-01T13:38:03Z</time>
      </trkpt>
      <trkpt lat="45.68553" lon="6.00526">
        <ele>1263.3098145</ele>
        <time>2011-05-01T13:38:09Z</time>
      </trkpt>
      <trkpt lat="45.68543" lon="6.00514">
        <ele>1264.2709961</ele>
        <time>2011-05-01T13:38:19Z</time>
      </trkpt>
      <trkpt lat="45.68537" lon="6.0051">
        <ele>1264.2709961</ele>
        <time>2011-05-01T13:38:26Z</time>
      </trkpt>
      <trkpt lat="45.68537" lon="6.0051">
        <ele>1264.751709</ele>
        <time>2011-05-01T13:38:27Z</time>
      </trkpt>
      <trkpt lat="45.68555" lon="6.00494">
        <ele>1268.5969238</ele>
        <time>2011-05-01T13:39:33Z</time>
      </trkpt>
      <trkpt lat="45.68558" lon="6.00492">
        <ele>1269.5583496</ele>
        <time>2011-05-01T13:39:39Z</time>
      </trkpt>
      <trkpt lat="45.68562" lon="6.00486">
        <ele>1269.5583496</ele>
        <time>2011-05-01T13:39:48Z</time>
      </trkpt>
      <trkpt lat="45.68563" lon="6.00484">
        <ele>1270.0388184</ele>
        <time>2011-05-01T13:39:55Z</time>
      </trkpt>
      <trkpt lat="45.68565" lon="6.00482">
        <ele>1270.0388184</ele>
        <time>2011-05-01T13:39:58Z</time>
      </trkpt>
      <trkpt lat="45.68574" lon="6.00476">
        <ele>1270.5195312</ele>
        <time>2011-05-01T13:40:05Z</time>
      </trkpt>
      <trkpt lat="45.68585" lon="6.00467">
        <ele>1271.4807129</ele>
        <time>2011-05-01T13:40:13Z</time>
      </trkpt>
      <trkpt lat="45.68592" lon="6.00457">
        <ele>1273.4035645</ele>
        <time>2011-05-01T13:40:21Z</time>
      </trkpt>
      <trkpt lat="45.68599" lon="6.00447">
        <ele>1275.3259277</ele>
        <time>2011-05-01T13:40:30Z</time>
      </trkpt>
      <trkpt lat="45.68599" lon="6.00442">
        <ele>1276.2875977</ele>
        <time>2011-05-01T13:40:33Z</time>
      </trkpt>
      <trkpt lat="45.68593" lon="6.00438">
        <ele>1278.2102051</ele>
        <time>2011-05-01T13:40:39Z</time>
      </trkpt>
      <trkpt lat="45.68585" lon="6.00435">
        <ele>1279.6520996</ele>
        <time>2011-05-01T13:40:48Z</time>
      </trkpt>
      <trkpt lat="45.68582" lon="6.00433">
        <ele>1280.1328125</ele>
        <time>2011-05-01T13:40:51Z</time>
      </trkpt>
      <trkpt lat="45.6858" lon="6.00433">
        <ele>1280.1328125</ele>
        <time>2011-05-01T13:40:56Z</time>
      </trkpt>
      <trkpt lat="45.68576" lon="6.00433">
        <ele>1279.6520996</ele>
        <time>2011-05-01T13:41:05Z</time>
      </trkpt>
      <trkpt lat="45.68573" lon="6.00432">
        <ele>1279.6520996</ele>
        <time>2011-05-01T13:41:11Z</time>
      </trkpt>
      <trkpt lat="45.6857" lon="6.00428">
        <ele>1282.0554199</ele>
        <time>2011-05-01T13:41:19Z</time>
      </trkpt>
      <trkpt lat="45.68566" lon="6.00422">
        <ele>1283.9780273</ele>
        <time>2011-05-01T13:41:28Z</time>
      </trkpt>
      <trkpt lat="45.6856" lon="6.0042">
        <ele>1285.4199219</ele>
        <time>2011-05-01T13:41:37Z</time>
      </trkpt>
      <trkpt lat="45.68556" lon="6.00417">
        <ele>1287.3425293</ele>
        <time>2011-05-01T13:41:42Z</time>
      </trkpt>
      <trkpt lat="45.68549" lon="6.00413">
        <ele>1290.2265625</ele>
        <time>2011-05-01T13:41:52Z</time>
      </trkpt>
      <trkpt lat="45.68543" lon="6.0041">
        <ele>1291.1877441</ele>
        <time>2011-05-01T13:42:03Z</time>
      </trkpt>
      <trkpt lat="45.68539" lon="6.00407">
        <ele>1292.630127</ele>
        <time>2011-05-01T13:42:11Z</time>
      </trkpt>
      <trkpt lat="45.68535" lon="6.00406">
        <ele>1294.0720215</ele>
        <time>2011-05-01T13:42:19Z</time>
      </trkpt>
      <trkpt lat="45.6853" lon="6.00403">
        <ele>1295.9946289</ele>
        <time>2011-05-01T13:42:28Z</time>
      </trkpt>
      <trkpt lat="45.68525" lon="6.00403">
        <ele>1297.9172363</ele>
        <time>2011-05-01T13:42:36Z</time>
      </trkpt>
      <trkpt lat="45.68522" lon="6.00401">
        <ele>1299.8398438</ele>
        <time>2011-05-01T13:42:42Z</time>
      </trkpt>
      <trkpt lat="45.68516" lon="6.00399">
        <ele>1302.2429199</ele>
        <time>2011-05-01T13:42:53Z</time>
      </trkpt>
      <trkpt lat="45.68512" lon="6.00396">
        <ele>1302.7236328</ele>
        <time>2011-05-01T13:43:02Z</time>
      </trkpt>
      <trkpt lat="45.68509" lon="6.00393">
        <ele>1303.2043457</ele>
        <time>2011-05-01T13:43:09Z</time>
      </trkpt>
      <trkpt lat="45.68505" lon="6.00386">
        <ele>1305.1269531</ele>
        <time>2011-05-01T13:43:25Z</time>
      </trkpt>
      <trkpt lat="45.68498" lon="6.00384">
        <ele>1303.6850586</ele>
        <time>2011-05-01T13:43:35Z</time>
      </trkpt>
      <trkpt lat="45.68496" lon="6.00383">
        <ele>1303.6850586</ele>
        <time>2011-05-01T13:43:41Z</time>
      </trkpt>
      <trkpt lat="45.68491" lon="6.00381">
        <ele>1306.0881348</ele>
        <time>2011-05-01T13:43:49Z</time>
      </trkpt>
      <trkpt lat="45.68488" lon="6.00377">
        <ele>1308.0112305</ele>
        <time>2011-05-01T13:43:56Z</time>
      </trkpt>
      <trkpt lat="45.68481" lon="6.00373">
        <ele>1310.4143066</ele>
        <time>2011-05-01T13:44:08Z</time>
      </trkpt>
      <trkpt lat="45.68475" lon="6.00372">
        <ele>1311.8564453</ele>
        <time>2011-05-01T13:44:17Z</time>
      </trkpt>
      <trkpt lat="45.68468" lon="6.00377">
        <ele>1312.817627</ele>
        <time>2011-05-01T13:44:27Z</time>
      </trkpt>
      <trkpt lat="45.68467" lon="6.00378">
        <ele>1313.2983398</ele>
        <time>2011-05-01T13:44:34Z</time>
      </trkpt>
      <trkpt lat="45.68464" lon="6.0038">
        <ele>1314.7402344</ele>
        <time>2011-05-01T13:44:50Z</time>
      </trkpt>
      <trkpt lat="45.68461" lon="6.00379">
        <ele>1315.2209473</ele>
        <time>2011-05-01T13:44:58Z</time>
      </trkpt>
      <trkpt lat="45.68459" lon="6.0038">
        <ele>1315.7016602</ele>
        <time>2011-05-01T13:45:01Z</time>
      </trkpt>
      <trkpt lat="45.68457" lon="6.00382">
        <ele>1316.1821289</ele>
        <time>2011-05-01T13:45:03Z</time>
      </trkpt>
      <trkpt lat="45.68446" lon="6.00385">
        <ele>1317.6240234</ele>
        <time>2011-05-01T13:45:11Z</time>
      </trkpt>
      <trkpt lat="45.68436" lon="6.00385">
        <ele>1318.5854492</ele>
        <time>2011-05-01T13:45:19Z</time>
      </trkpt>
      <trkpt lat="45.68419" lon="6.00381">
        <ele>1318.5854492</ele>
        <time>2011-05-01T13:45:30Z</time>
      </trkpt>
      <trkpt lat="45.68408" lon="6.00378">
        <ele>1319.546875</ele>
        <time>2011-05-01T13:45:38Z</time>
      </trkpt>
      <trkpt lat="45.68396" lon="6.00377">
        <ele>1320.5080566</ele>
        <time>2011-05-01T13:45:46Z</time>
      </trkpt>
      <trkpt lat="45.68385" lon="6.00377">
        <ele>1320.5080566</ele>
        <time>2011-05-01T13:45:54Z</time>
      </trkpt>
      <trkpt lat="45.68375" lon="6.00372">
        <ele>1320.0273438</ele>
        <time>2011-05-01T13:46:01Z</time>
      </trkpt>
      <trkpt lat="45.68362" lon="6.00365">
        <ele>1319.546875</ele>
        <time>2011-05-01T13:46:08Z</time>
      </trkpt>
      <trkpt lat="45.68352" lon="6.00357">
        <ele>1320.0273438</ele>
        <time>2011-05-01T13:46:15Z</time>
      </trkpt>
      <trkpt lat="45.68346" lon="6.00344">
        <ele>1320.5080566</ele>
        <time>2011-05-01T13:46:23Z</time>
      </trkpt>
      <trkpt lat="45.6834" lon="6.00334">
        <ele>1321.9499512</ele>
        <time>2011-05-01T13:46:29Z</time>
      </trkpt>
      <trkpt lat="45.68333" lon="6.00319">
        <ele>1324.8342285</ele>
        <time>2011-05-01T13:46:36Z</time>
      </trkpt>
      <trkpt lat="45.6832" lon="6.00303">
        <ele>1326.7568359</ele>
        <time>2011-05-01T13:46:45Z</time>
      </trkpt>
      <trkpt lat="45.68307" lon="6.00287">
        <ele>1329.1599121</ele>
        <time>2011-05-01T13:46:53Z</time>
      </trkpt>
      <trkpt lat="45.68295" lon="6.00273">
        <ele>1330.1213379</ele>
        <time>2011-05-01T13:47:00Z</time>
      </trkpt>
      <trkpt lat="45.68282" lon="6.00263">
        <ele>1331.5632324</ele>
        <time>2011-05-01T13:47:07Z</time>
      </trkpt>
      <trkpt lat="45.68268" lon="6.00249">
        <ele>1332.5246582</ele>
        <time>2011-05-01T13:47:16Z</time>
      </trkpt>
      <trkpt lat="45.68256" lon="6.00236">
        <ele>1333.4858398</ele>
        <time>2011-05-01T13:47:24Z</time>
      </trkpt>
      <trkpt lat="45.68249" lon="6.00219">
        <ele>1333.005127</ele>
        <time>2011-05-01T13:47:32Z</time>
      </trkpt>
      <trkpt lat="45.68239" lon="6.00204">
        <ele>1334.4472656</ele>
        <time>2011-05-01T13:47:40Z</time>
      </trkpt>
      <trkpt lat="45.68222" lon="6.00189">
        <ele>1338.7731934</ele>
        <time>2011-05-01T13:47:50Z</time>
      </trkpt>
      <trkpt lat="45.6821" lon="6.00179">
        <ele>1336.369873</ele>
        <time>2011-05-01T13:47:58Z</time>
      </trkpt>
      <trkpt lat="45.68199" lon="6.00177">
        <ele>1341.1765137</ele>
        <time>2011-05-01T13:48:05Z</time>
      </trkpt>
      <trkpt lat="45.68194" lon="6.00177">
        <ele>1342.6186523</ele>
        <time>2011-05-01T13:48:08Z</time>
      </trkpt>
      <trkpt lat="45.68183" lon="6.0019">
        <ele>1343.579834</ele>
        <time>2011-05-01T13:48:15Z</time>
      </trkpt>
      <trkpt lat="45.68176" lon="6.00206">
        <ele>1343.0991211</ele>
        <time>2011-05-01T13:48:22Z</time>
      </trkpt>
      <trkpt lat="45.6817" lon="6.00225">
        <ele>1341.6572266</ele>
        <time>2011-05-01T13:48:29Z</time>
      </trkpt>
      <trkpt lat="45.68164" lon="6.00244">
        <ele>1341.1765137</ele>
        <time>2011-05-01T13:48:35Z</time>
      </trkpt>
      <trkpt lat="45.68151" lon="6.00263">
        <ele>1340.215332</ele>
        <time>2011-05-01T13:48:41Z</time>
      </trkpt>
      <trkpt lat="45.68137" lon="6.00265">
        <ele>1342.1379395</ele>
        <time>2011-05-01T13:48:46Z</time>
      </trkpt>
      <trkpt lat="45.68123" lon="6.00264">
        <ele>1342.6186523</ele>
        <time>2011-05-01T13:48:53Z</time>
      </trkpt>
      <trkpt lat="45.68117" lon="6.00259">
        <ele>1343.0991211</ele>
        <time>2011-05-01T13:48:57Z</time>
      </trkpt>
      <trkpt lat="45.6811" lon="6.00245">
        <ele>1344.0605469</ele>
        <time>2011-05-01T13:49:04Z</time>
      </trkpt>
      <trkpt lat="45.6811" lon="6.00235">
        <ele>1343.579834</ele>
        <time>2011-05-01T13:49:09Z</time>
      </trkpt>
      <trkpt lat="45.68114" lon="6.00218">
        <ele>1340.6958008</ele>
        <time>2011-05-01T13:49:16Z</time>
      </trkpt>
      <trkpt lat="45.6812" lon="6.00207">
        <ele>1343.579834</ele>
        <time>2011-05-01T13:49:21Z</time>
      </trkpt>
      <trkpt lat="45.68133" lon="6.00195">
        <ele>1347.4250488</ele>
        <time>2011-05-01T13:49:28Z</time>
      </trkpt>
      <trkpt lat="45.68148" lon="6.00184">
        <ele>1346.9443359</ele>
        <time>2011-05-01T13:49:35Z</time>
      </trkpt>
      <trkpt lat="45.68155" lon="6.00176">
        <ele>1346.9443359</ele>
        <time>2011-05-01T13:49:39Z</time>
      </trkpt>
      <trkpt lat="45.68161" lon="6.00163">
        <ele>1345.0217285</ele>
        <time>2011-05-01T13:49:44Z</time>
      </trkpt>
      <trkpt lat="45.68168" lon="6.00141">
        <ele>1343.579834</ele>
        <time>2011-05-01T13:49:52Z</time>
      </trkpt>
      <trkpt lat="45.68174" lon="6.00126">
        <ele>1346.4638672</ele>
        <time>2011-05-01T13:49:57Z</time>
      </trkpt>
      <trkpt lat="45.68181" lon="6.00109">
        <ele>1347.9057617</ele>
        <time>2011-05-01T13:50:03Z</time>
      </trkpt>
      <trkpt lat="45.68189" lon="6.0009">
        <ele>1350.7895508</ele>
        <time>2011-05-01T13:50:11Z</time>
      </trkpt>
      <trkpt lat="45.68191" lon="6.00078">
        <ele>1351.7509766</ele>
        <time>2011-05-01T13:50:17Z</time>
      </trkpt>
      <trkpt lat="45.68182" lon="6.00065">
        <ele>1353.673584</ele>
        <time>2011-05-01T13:50:25Z</time>
      </trkpt>
      <trkpt lat="45.68177" lon="6.0006">
        <ele>1353.1928711</ele>
        <time>2011-05-01T13:50:29Z</time>
      </trkpt>
      <trkpt lat="45.6817" lon="6.00053">
        <ele>1352.7121582</ele>
        <time>2011-05-01T13:50:35Z</time>
      </trkpt>
      <trkpt lat="45.68153" lon="6.00045">
        <ele>1351.7509766</ele>
        <time>2011-05-01T13:50:46Z</time>
      </trkpt>
      <trkpt lat="45.68139" lon="6.00041">
        <ele>1356.5576172</ele>
        <time>2011-05-01T13:50:54Z</time>
      </trkpt>
      <trkpt lat="45.68126" lon="6.00042">
        <ele>1358.9609375</ele>
        <time>2011-05-01T13:51:02Z</time>
      </trkpt>
      <trkpt lat="45.68112" lon="6.00042">
        <ele>1360.402832</ele>
        <time>2011-05-01T13:51:12Z</time>
      </trkpt>
      <trkpt lat="45.68102" lon="6.00042">
        <ele>1361.3642578</ele>
        <time>2011-05-01T13:51:19Z</time>
      </trkpt>
      <trkpt lat="45.68089" lon="6.00038">
        <ele>1362.3254395</ele>
        <time>2011-05-01T13:51:26Z</time>
      </trkpt>
      <trkpt lat="45.68075" lon="6.00033">
        <ele>1362.3254395</ele>
        <time>2011-05-01T13:51:34Z</time>
      </trkpt>
      <trkpt lat="45.68063" lon="6.00027">
        <ele>1360.402832</ele>
        <time>2011-05-01T13:51:41Z</time>
      </trkpt>
      <trkpt lat="45.68054" lon="6.00019">
        <ele>1360.8835449</ele>
        <time>2011-05-01T13:51:48Z</time>
      </trkpt>
      <trkpt lat="45.68042" lon="6.00009">
        <ele>1362.8061523</ele>
        <time>2011-05-01T13:51:56Z</time>
      </trkpt>
      <trkpt lat="45.68029" lon="5.99999">
        <ele>1364.7287598</ele>
        <time>2011-05-01T13:52:04Z</time>
      </trkpt>
      <trkpt lat="45.68019" lon="5.99992">
        <ele>1369.0546875</ele>
        <time>2011-05-01T13:52:10Z</time>
      </trkpt>
      <trkpt lat="45.68015" lon="5.9998">
        <ele>1370.9772949</ele>
        <time>2011-05-01T13:52:16Z</time>
      </trkpt>
      <trkpt lat="45.68013" lon="5.99968">
        <ele>1372.9001465</ele>
        <time>2011-05-01T13:52:22Z</time>
      </trkpt>
      <trkpt lat="45.68011" lon="5.99955">
        <ele>1370.9772949</ele>
        <time>2011-05-01T13:52:29Z</time>
      </trkpt>
      <trkpt lat="45.68006" lon="5.99942">
        <ele>1370.9772949</ele>
        <time>2011-05-01T13:52:38Z</time>
      </trkpt>
      <trkpt lat="45.67999" lon="5.99934">
        <ele>1373.8613281</ele>
        <time>2011-05-01T13:52:43Z</time>
      </trkpt>
      <trkpt lat="45.67991" lon="5.99922">
        <ele>1373.3808594</ele>
        <time>2011-05-01T13:52:52Z</time>
      </trkpt>
      <trkpt lat="45.67988" lon="5.99917">
        <ele>1373.3808594</ele>
        <time>2011-05-01T13:52:56Z</time>
      </trkpt>
      <trkpt lat="45.67985" lon="5.99916">
        <ele>1375.3032227</ele>
        <time>2011-05-01T13:52:58Z</time>
      </trkpt>
      <trkpt lat="45.67983" lon="5.99921">
        <ele>1378.6679688</ele>
        <time>2011-05-01T13:53:03Z</time>
      </trkpt>
      <trkpt lat="45.67982" lon="5.99927">
        <ele>1379.6291504</ele>
        <time>2011-05-01T13:53:06Z</time>
      </trkpt>
      <trkpt lat="45.67974" lon="5.99939">
        <ele>1380.5905762</ele>
        <time>2011-05-01T13:53:13Z</time>
      </trkpt>
      <trkpt lat="45.67967" lon="5.99947">
        <ele>1382.0324707</ele>
        <time>2011-05-01T13:53:18Z</time>
      </trkpt>
      <trkpt lat="45.67971" lon="5.99954">
        <ele>1382.5131836</ele>
        <time>2011-05-01T13:53:23Z</time>
      </trkpt>
      <trkpt lat="45.67978" lon="5.99958">
        <ele>1382.5131836</ele>
        <time>2011-05-01T13:53:28Z</time>
      </trkpt>
    </trkseg>
  </trk>
</gpx>